<?xml version="1.0" encoding="UTF-8" standalone="yes"?>
<gpx
 xmlns="http://www.topografix.com/GPX/1/1"
 creator="OziExplorer Version 3956f - http://www.oziexplorer.com"
 version="1.1"
 xmlns:xsi="http://www.w3.org/2001/XMLSchema-instance"
 xsi:schemaLocation="http://www.topografix.com/GPX/1/1 http://www.topografix.com/GPX/1/1/gpx.xsd">
<metadata>
 <time>2021-07-28T07:46:24Z</time>
 <bounds minlat="31.774460" minlon="34.989200" maxlat="31.825100" maxlon="35.088290"/>
</metadata>
<trk>
 <name>EshtaolKusalonBurma_37km.800m</name>
 <desc>EshtaolKusalonBurma_37km.800m</desc>
<trkseg>
<trkpt lat="31.8112900" lon="35.0135900">
<ele>275.919983</ele>
<time>2021-05-26T12:50:30.838Z</time>
</trkpt>
<trkpt lat="31.8111500" lon="35.0138400">
<ele>276.299988</ele>
<time>2021-05-26T12:50:30.839Z</time>
</trkpt>
<trkpt lat="31.8109800" lon="35.0141200">
<ele>276.490021</ele>
<time>2021-05-26T12:50:30.840Z</time>
</trkpt>
<trkpt lat="31.8107200" lon="35.0145700">
<ele>278.119995</ele>
<time>2021-05-26T12:50:30.840Z</time>
</trkpt>
<trkpt lat="31.8105100" lon="35.0149600">
<ele>283.739990</ele>
<time>2021-05-26T12:50:30.840Z</time>
</trkpt>
<trkpt lat="31.8104600" lon="35.0152000">
<ele>285.289978</ele>
<time>2021-05-26T12:50:30.840Z</time>
</trkpt>
<trkpt lat="31.8103500" lon="35.0154900">
<ele>284.700012</ele>
<time>2021-05-26T12:50:30.840Z</time>
</trkpt>
<trkpt lat="31.8102800" lon="35.0157700">
<ele>283.239990</ele>
<time>2021-05-26T12:50:30.840Z</time>
</trkpt>
<trkpt lat="31.8101600" lon="35.0161100">
<ele>284.570007</ele>
<time>2021-05-26T12:50:30.840Z</time>
</trkpt>
<trkpt lat="31.8100100" lon="35.0165600">
<ele>284.130005</ele>
<time>2021-05-26T12:50:30.840Z</time>
</trkpt>
<trkpt lat="31.8098100" lon="35.0170700">
<ele>286.109985</ele>
<time>2021-05-26T12:50:30.840Z</time>
</trkpt>
<trkpt lat="31.8096700" lon="35.0175500">
<ele>287.559998</ele>
<time>2021-05-26T12:50:30.840Z</time>
</trkpt>
<trkpt lat="31.8096500" lon="35.0177100">
<ele>288.279999</ele>
<time>2021-05-26T12:50:30.840Z</time>
</trkpt>
<trkpt lat="31.8096000" lon="35.0181100">
<ele>290.480011</ele>
<time>2021-05-26T12:50:30.841Z</time>
</trkpt>
<trkpt lat="31.8095500" lon="35.0182600">
<ele>291.929993</ele>
<time>2021-05-26T12:50:30.841Z</time>
</trkpt>
<trkpt lat="31.8099600" lon="35.0183800">
<ele>291.459991</ele>
<time>2021-05-26T12:50:30.841Z</time>
</trkpt>
<trkpt lat="31.8100100" lon="35.0184000">
<ele>291.479980</ele>
<time>2021-05-26T12:50:30.841Z</time>
</trkpt>
<trkpt lat="31.8100400" lon="35.0184200">
<ele>291.619995</ele>
<time>2021-05-26T12:50:30.841Z</time>
</trkpt>
<trkpt lat="31.8100800" lon="35.0184500">
<ele>291.839996</ele>
<time>2021-05-26T12:50:30.841Z</time>
</trkpt>
<trkpt lat="31.8101200" lon="35.0184900">
<ele>292.130005</ele>
<time>2021-05-26T12:50:30.841Z</time>
</trkpt>
<trkpt lat="31.8101500" lon="35.0185200">
<ele>292.339996</ele>
<time>2021-05-26T12:50:30.841Z</time>
</trkpt>
<trkpt lat="31.8101900" lon="35.0185700">
<ele>292.699982</ele>
<time>2021-05-26T12:50:30.841Z</time>
</trkpt>
<trkpt lat="31.8102200" lon="35.0186100">
<ele>292.989990</ele>
<time>2021-05-26T12:50:30.841Z</time>
</trkpt>
<trkpt lat="31.8102400" lon="35.0186700">
<ele>293.369995</ele>
<time>2021-05-26T12:50:30.841Z</time>
</trkpt>
<trkpt lat="31.8102700" lon="35.0187000">
<ele>293.619995</ele>
<time>2021-05-26T12:50:30.841Z</time>
</trkpt>
<trkpt lat="31.8102900" lon="35.0187600">
<ele>294.089996</ele>
<time>2021-05-26T12:50:30.841Z</time>
</trkpt>
<trkpt lat="31.8104100" lon="35.0191100">
<ele>297.429993</ele>
<time>2021-05-26T12:50:30.841Z</time>
</trkpt>
<trkpt lat="31.8104300" lon="35.0191600">
<ele>297.830017</ele>
<time>2021-05-26T12:50:30.841Z</time>
</trkpt>
<trkpt lat="31.8104500" lon="35.0191900">
<ele>298.329987</ele>
<time>2021-05-26T12:50:30.841Z</time>
</trkpt>
<trkpt lat="31.8104700" lon="35.0192300">
<ele>299.119995</ele>
<time>2021-05-26T12:50:30.841Z</time>
</trkpt>
<trkpt lat="31.8104800" lon="35.0192600">
<ele>299.739990</ele>
<time>2021-05-26T12:50:30.841Z</time>
</trkpt>
<trkpt lat="31.8105000" lon="35.0193100">
<ele>300.700012</ele>
<time>2021-05-26T12:50:30.841Z</time>
</trkpt>
<trkpt lat="31.8105300" lon="35.0193400">
<ele>301.040009</ele>
<time>2021-05-26T12:50:30.841Z</time>
</trkpt>
<trkpt lat="31.8105500" lon="35.0193700">
<ele>301.459991</ele>
<time>2021-05-26T12:50:30.841Z</time>
</trkpt>
<trkpt lat="31.8105800" lon="35.0194000">
<ele>301.890015</ele>
<time>2021-05-26T12:50:30.841Z</time>
</trkpt>
<trkpt lat="31.8106100" lon="35.0194300">
<ele>302.320007</ele>
<time>2021-05-26T12:50:30.841Z</time>
</trkpt>
<trkpt lat="31.8106400" lon="35.0194500">
<ele>302.500000</ele>
<time>2021-05-26T12:50:30.841Z</time>
</trkpt>
<trkpt lat="31.8118200" lon="35.0201100">
<ele>314.470001</ele>
<time>2021-05-26T12:50:30.842Z</time>
</trkpt>
<trkpt lat="31.8118500" lon="35.0198900">
<ele>317.589996</ele>
<time>2021-05-26T12:50:30.842Z</time>
</trkpt>
<trkpt lat="31.8119100" lon="35.0196000">
<ele>319.959991</ele>
<time>2021-05-26T12:50:30.842Z</time>
</trkpt>
<trkpt lat="31.8121300" lon="35.0187800">
<ele>320.879974</ele>
<time>2021-05-26T12:50:30.842Z</time>
</trkpt>
<trkpt lat="31.8121800" lon="35.0187200">
<ele>322.000000</ele>
<time>2021-05-26T12:50:30.842Z</time>
</trkpt>
<trkpt lat="31.8122400" lon="35.0187200">
<ele>323.109985</ele>
<time>2021-05-26T12:50:30.842Z</time>
</trkpt>
<trkpt lat="31.8123200" lon="35.0186700">
<ele>323.500000</ele>
<time>2021-05-26T12:50:30.842Z</time>
</trkpt>
<trkpt lat="31.8126000" lon="35.0190300">
<ele>328.589996</ele>
<time>2021-05-26T12:50:30.842Z</time>
</trkpt>
<trkpt lat="31.8128600" lon="35.0191600">
<ele>329.750000</ele>
<time>2021-05-26T12:50:30.842Z</time>
</trkpt>
<trkpt lat="31.8133600" lon="35.0194600">
<ele>327.230011</ele>
<time>2021-05-26T12:50:30.842Z</time>
</trkpt>
<trkpt lat="31.8136700" lon="35.0195300">
<ele>328.289978</ele>
<time>2021-05-26T12:50:30.842Z</time>
</trkpt>
<trkpt lat="31.8139800" lon="35.0196600">
<ele>320.069977</ele>
<time>2021-05-26T12:50:30.842Z</time>
</trkpt>
<trkpt lat="31.8146200" lon="35.0195700">
<ele>316.639984</ele>
<time>2021-05-26T12:50:30.843Z</time>
</trkpt>
<trkpt lat="31.8148200" lon="35.0194200">
<ele>319.200012</ele>
<time>2021-05-26T12:50:30.843Z</time>
</trkpt>
<trkpt lat="31.8149800" lon="35.0193900">
<ele>318.439972</ele>
<time>2021-05-26T12:50:30.843Z</time>
</trkpt>
<trkpt lat="31.8155800" lon="35.0192900">
<ele>303.720001</ele>
<time>2021-05-26T12:50:30.843Z</time>
</trkpt>
<trkpt lat="31.8158200" lon="35.0191700">
<ele>302.290009</ele>
<time>2021-05-26T12:50:30.843Z</time>
</trkpt>
<trkpt lat="31.8160500" lon="35.0191100">
<ele>297.420013</ele>
<time>2021-05-26T12:50:30.843Z</time>
</trkpt>
<trkpt lat="31.8164900" lon="35.0191000">
<ele>294.890015</ele>
<time>2021-05-26T12:50:30.843Z</time>
</trkpt>
<trkpt lat="31.8167400" lon="35.0190700">
<ele>291.290009</ele>
<time>2021-05-26T12:50:30.843Z</time>
</trkpt>
<trkpt lat="31.8168800" lon="35.0189600">
<ele>289.670013</ele>
<time>2021-05-26T12:50:30.843Z</time>
</trkpt>
<trkpt lat="31.8173600" lon="35.0186200">
<ele>291.860016</ele>
<time>2021-05-26T12:50:30.843Z</time>
</trkpt>
<trkpt lat="31.8175200" lon="35.0185600">
<ele>291.949982</ele>
<time>2021-05-26T12:50:30.843Z</time>
</trkpt>
<trkpt lat="31.8178700" lon="35.0183100">
<ele>287.570007</ele>
<time>2021-05-26T12:50:30.843Z</time>
</trkpt>
<trkpt lat="31.8181800" lon="35.0182300">
<ele>285.570007</ele>
<time>2021-05-26T12:50:30.843Z</time>
</trkpt>
<trkpt lat="31.8189500" lon="35.0181700">
<ele>276.170013</ele>
<time>2021-05-26T12:50:30.843Z</time>
</trkpt>
<trkpt lat="31.8192500" lon="35.0179400">
<ele>272.480011</ele>
<time>2021-05-26T12:50:30.843Z</time>
</trkpt>
<trkpt lat="31.8196000" lon="35.0175300">
<ele>274.510010</ele>
<time>2021-05-26T12:50:30.843Z</time>
</trkpt>
<trkpt lat="31.8196300" lon="35.0174600">
<ele>274.809998</ele>
<time>2021-05-26T12:50:30.843Z</time>
</trkpt>
<trkpt lat="31.8200100" lon="35.0170400">
<ele>273.429993</ele>
<time>2021-05-26T12:50:30.843Z</time>
</trkpt>
<trkpt lat="31.8201800" lon="35.0168900">
<ele>269.199982</ele>
<time>2021-05-26T12:50:30.843Z</time>
</trkpt>
<trkpt lat="31.8204500" lon="35.0167100">
<ele>265.339996</ele>
<time>2021-05-26T12:50:30.843Z</time>
</trkpt>
<trkpt lat="31.8206700" lon="35.0165200">
<ele>263.769989</ele>
<time>2021-05-26T12:50:30.843Z</time>
</trkpt>
<trkpt lat="31.8207900" lon="35.0163700">
<ele>263.880005</ele>
<time>2021-05-26T12:50:30.843Z</time>
</trkpt>
<trkpt lat="31.8208100" lon="35.0162700">
<ele>264.239990</ele>
<time>2021-05-26T12:50:30.843Z</time>
</trkpt>
<trkpt lat="31.8208200" lon="35.0162300">
<ele>264.440002</ele>
<time>2021-05-26T12:50:30.843Z</time>
</trkpt>
<trkpt lat="31.8208200" lon="35.0161200">
<ele>264.779999</ele>
<time>2021-05-26T12:50:30.843Z</time>
</trkpt>
<trkpt lat="31.8207900" lon="35.0160000">
<ele>263.700012</ele>
<time>2021-05-26T12:50:30.843Z</time>
</trkpt>
<trkpt lat="31.8207400" lon="35.0159100">
<ele>262.690002</ele>
<time>2021-05-26T12:50:30.843Z</time>
</trkpt>
<trkpt lat="31.8205500" lon="35.0158000">
<ele>261.149994</ele>
<time>2021-05-26T12:50:30.844Z</time>
</trkpt>
<trkpt lat="31.8204600" lon="35.0156700">
<ele>261.670013</ele>
<time>2021-05-26T12:50:30.844Z</time>
</trkpt>
<trkpt lat="31.8204400" lon="35.0156000">
<ele>261.619995</ele>
<time>2021-05-26T12:50:30.844Z</time>
</trkpt>
<trkpt lat="31.8204300" lon="35.0155100">
<ele>261.019989</ele>
<time>2021-05-26T12:50:30.844Z</time>
</trkpt>
<trkpt lat="31.8204300" lon="35.0153700">
<ele>259.419983</ele>
<time>2021-05-26T12:50:30.844Z</time>
</trkpt>
<trkpt lat="31.8204400" lon="35.0152900">
<ele>258.389984</ele>
<time>2021-05-26T12:50:30.844Z</time>
</trkpt>
<trkpt lat="31.8204800" lon="35.0151700">
<ele>258.200012</ele>
<time>2021-05-26T12:50:30.844Z</time>
</trkpt>
<trkpt lat="31.8205500" lon="35.0150800">
<ele>257.769989</ele>
<time>2021-05-26T12:50:30.844Z</time>
</trkpt>
<trkpt lat="31.8206900" lon="35.0149800">
<ele>258.290009</ele>
<time>2021-05-26T12:50:30.844Z</time>
</trkpt>
<trkpt lat="31.8210200" lon="35.0147900">
<ele>259.910004</ele>
<time>2021-05-26T12:50:30.844Z</time>
</trkpt>
<trkpt lat="31.8211500" lon="35.0146900">
<ele>258.850006</ele>
<time>2021-05-26T12:50:30.844Z</time>
</trkpt>
<trkpt lat="31.8214000" lon="35.0144600">
<ele>253.379990</ele>
<time>2021-05-26T12:50:30.844Z</time>
</trkpt>
<trkpt lat="31.8214900" lon="35.0143300">
<ele>254.530014</ele>
<time>2021-05-26T12:50:30.844Z</time>
</trkpt>
<trkpt lat="31.8216100" lon="35.0140200">
<ele>255.259995</ele>
<time>2021-05-26T12:50:30.844Z</time>
</trkpt>
<trkpt lat="31.8218700" lon="35.0129000">
<ele>253.690002</ele>
<time>2021-05-26T12:50:30.844Z</time>
</trkpt>
<trkpt lat="31.8219500" lon="35.0125100">
<ele>253.970001</ele>
<time>2021-05-26T12:50:30.844Z</time>
</trkpt>
<trkpt lat="31.8219700" lon="35.0122500">
<ele>254.819992</ele>
<time>2021-05-26T12:50:30.844Z</time>
</trkpt>
<trkpt lat="31.8219700" lon="35.0121100">
<ele>254.870010</ele>
<time>2021-05-26T12:50:30.844Z</time>
</trkpt>
<trkpt lat="31.8219600" lon="35.0120200">
<ele>254.899994</ele>
<time>2021-05-26T12:50:30.844Z</time>
</trkpt>
<trkpt lat="31.8218300" lon="35.0115600">
<ele>256.529999</ele>
<time>2021-05-26T12:50:30.844Z</time>
</trkpt>
<trkpt lat="31.8216900" lon="35.0108800">
<ele>255.100006</ele>
<time>2021-05-26T12:50:30.845Z</time>
</trkpt>
<trkpt lat="31.8215700" lon="35.0106300">
<ele>256.100006</ele>
<time>2021-05-26T12:50:30.845Z</time>
</trkpt>
<trkpt lat="31.8215200" lon="35.0103900">
<ele>255.730011</ele>
<time>2021-05-26T12:50:30.845Z</time>
</trkpt>
<trkpt lat="31.8215100" lon="35.0102900">
<ele>255.320007</ele>
<time>2021-05-26T12:50:30.845Z</time>
</trkpt>
<trkpt lat="31.8215100" lon="35.0101100">
<ele>254.649994</ele>
<time>2021-05-26T12:50:30.845Z</time>
</trkpt>
<trkpt lat="31.8215200" lon="35.0099200">
<ele>254.570007</ele>
<time>2021-05-26T12:50:30.845Z</time>
</trkpt>
<trkpt lat="31.8215600" lon="35.0098300">
<ele>254.239990</ele>
<time>2021-05-26T12:50:30.846Z</time>
</trkpt>
<trkpt lat="31.8216500" lon="35.0096900">
<ele>252.669998</ele>
<time>2021-05-26T12:50:30.846Z</time>
</trkpt>
<trkpt lat="31.8217400" lon="35.0096100">
<ele>252.070007</ele>
<time>2021-05-26T12:50:30.846Z</time>
</trkpt>
<trkpt lat="31.8223400" lon="35.0091700">
<ele>246.729996</ele>
<time>2021-05-26T12:50:30.846Z</time>
</trkpt>
<trkpt lat="31.8224200" lon="35.0090700">
<ele>246.310013</ele>
<time>2021-05-26T12:50:30.846Z</time>
</trkpt>
<trkpt lat="31.8225600" lon="35.0088800">
<ele>245.799988</ele>
<time>2021-05-26T12:50:30.846Z</time>
</trkpt>
<trkpt lat="31.8228200" lon="35.0081500">
<ele>244.300003</ele>
<time>2021-05-26T12:50:30.846Z</time>
</trkpt>
<trkpt lat="31.8229400" lon="35.0078800">
<ele>245.099991</ele>
<time>2021-05-26T12:50:30.846Z</time>
</trkpt>
<trkpt lat="31.8230300" lon="35.0076900">
<ele>245.179993</ele>
<time>2021-05-26T12:50:30.846Z</time>
</trkpt>
<trkpt lat="31.8232700" lon="35.0073200">
<ele>242.180008</ele>
<time>2021-05-26T12:50:30.846Z</time>
</trkpt>
<trkpt lat="31.8239900" lon="35.0061400">
<ele>241.179993</ele>
<time>2021-05-26T12:50:30.846Z</time>
</trkpt>
<trkpt lat="31.8244100" lon="35.0055800">
<ele>234.680008</ele>
<time>2021-05-26T12:50:30.846Z</time>
</trkpt>
<trkpt lat="31.8246000" lon="35.0053600">
<ele>232.760010</ele>
<time>2021-05-26T12:50:30.846Z</time>
</trkpt>
<trkpt lat="31.8248200" lon="35.0049600">
<ele>232.010010</ele>
<time>2021-05-26T12:50:30.846Z</time>
</trkpt>
<trkpt lat="31.8248800" lon="35.0048400">
<ele>232.379990</ele>
<time>2021-05-26T12:50:30.846Z</time>
</trkpt>
<trkpt lat="31.8249300" lon="35.0046600">
<ele>232.330002</ele>
<time>2021-05-26T12:50:30.846Z</time>
</trkpt>
<trkpt lat="31.8249600" lon="35.0045100">
<ele>232.059998</ele>
<time>2021-05-26T12:50:30.846Z</time>
</trkpt>
<trkpt lat="31.8250900" lon="35.0030600">
<ele>228.310013</ele>
<time>2021-05-26T12:50:30.847Z</time>
</trkpt>
<trkpt lat="31.8251000" lon="35.0026100">
<ele>230.490005</ele>
<time>2021-05-26T12:50:30.847Z</time>
</trkpt>
<trkpt lat="31.8250600" lon="35.0022100">
<ele>230.699997</ele>
<time>2021-05-26T12:50:30.847Z</time>
</trkpt>
<trkpt lat="31.8249200" lon="35.0017700">
<ele>229.210007</ele>
<time>2021-05-26T12:50:30.847Z</time>
</trkpt>
<trkpt lat="31.8246700" lon="35.0011600">
<ele>226.759995</ele>
<time>2021-05-26T12:50:30.847Z</time>
</trkpt>
<trkpt lat="31.8244600" lon="35.0007100">
<ele>225.019989</ele>
<time>2021-05-26T12:50:30.847Z</time>
</trkpt>
<trkpt lat="31.8244200" lon="35.0006200">
<ele>224.820007</ele>
<time>2021-05-26T12:50:30.847Z</time>
</trkpt>
<trkpt lat="31.8243900" lon="35.0005000">
<ele>224.419998</ele>
<time>2021-05-26T12:50:30.847Z</time>
</trkpt>
<trkpt lat="31.8241400" lon="34.9998100">
<ele>224.509995</ele>
<time>2021-05-26T12:50:30.847Z</time>
</trkpt>
<trkpt lat="31.8239700" lon="34.9994500">
<ele>226.230011</ele>
<time>2021-05-26T12:50:30.847Z</time>
</trkpt>
<trkpt lat="31.8238700" lon="34.9993000">
<ele>229.100006</ele>
<time>2021-05-26T12:50:30.847Z</time>
</trkpt>
<trkpt lat="31.8235700" lon="34.9989600">
<ele>237.360001</ele>
<time>2021-05-26T12:50:30.847Z</time>
</trkpt>
<trkpt lat="31.8235500" lon="34.9988800">
<ele>236.729996</ele>
<time>2021-05-26T12:50:30.847Z</time>
</trkpt>
<trkpt lat="31.8235400" lon="34.9988000">
<ele>235.589996</ele>
<time>2021-05-26T12:50:30.847Z</time>
</trkpt>
<trkpt lat="31.8235300" lon="34.9987200">
<ele>234.479996</ele>
<time>2021-05-26T12:50:30.847Z</time>
</trkpt>
<trkpt lat="31.8235400" lon="34.9982700">
<ele>228.789993</ele>
<time>2021-05-26T12:50:30.847Z</time>
</trkpt>
<trkpt lat="31.8235300" lon="34.9981400">
<ele>229.039993</ele>
<time>2021-05-26T12:50:30.847Z</time>
</trkpt>
<trkpt lat="31.8234400" lon="34.9978900">
<ele>230.940002</ele>
<time>2021-05-26T12:50:30.847Z</time>
</trkpt>
<trkpt lat="31.8233700" lon="34.9976900">
<ele>232.019989</ele>
<time>2021-05-26T12:50:30.848Z</time>
</trkpt>
<trkpt lat="31.8233400" lon="34.9975400">
<ele>232.059998</ele>
<time>2021-05-26T12:50:30.848Z</time>
</trkpt>
<trkpt lat="31.8232500" lon="34.9969600">
<ele>228.030014</ele>
<time>2021-05-26T12:50:30.848Z</time>
</trkpt>
<trkpt lat="31.8232600" lon="34.9965200">
<ele>226.330002</ele>
<time>2021-05-26T12:50:30.848Z</time>
</trkpt>
<trkpt lat="31.8234400" lon="34.9958100">
<ele>219.599991</ele>
<time>2021-05-26T12:50:30.848Z</time>
</trkpt>
<trkpt lat="31.8228300" lon="34.9956700">
<ele>218.270004</ele>
<time>2021-05-26T12:50:30.848Z</time>
</trkpt>
<trkpt lat="31.8224700" lon="34.9955100">
<ele>213.529999</ele>
<time>2021-05-26T12:50:30.848Z</time>
</trkpt>
<trkpt lat="31.8224500" lon="34.9955100">
<ele>213.329987</ele>
<time>2021-05-26T12:50:30.848Z</time>
</trkpt>
<trkpt lat="31.8221600" lon="34.9955300">
<ele>211.470001</ele>
<time>2021-05-26T12:50:30.848Z</time>
</trkpt>
<trkpt lat="31.8215900" lon="34.9961600">
<ele>209.349991</ele>
<time>2021-05-26T12:50:30.848Z</time>
</trkpt>
<trkpt lat="31.8212800" lon="34.9964000">
<ele>209.900009</ele>
<time>2021-05-26T12:50:30.848Z</time>
</trkpt>
<trkpt lat="31.8211500" lon="34.9964200">
<ele>208.640015</ele>
<time>2021-05-26T12:50:30.848Z</time>
</trkpt>
<trkpt lat="31.8208500" lon="34.9964200">
<ele>215.009995</ele>
<time>2021-05-26T12:50:30.848Z</time>
</trkpt>
<trkpt lat="31.8204700" lon="34.9963900">
<ele>223.250000</ele>
<time>2021-05-26T12:50:30.848Z</time>
</trkpt>
<trkpt lat="31.8199600" lon="34.9963100">
<ele>216.620010</ele>
<time>2021-05-26T12:50:30.848Z</time>
</trkpt>
<trkpt lat="31.8195300" lon="34.9963000">
<ele>217.459991</ele>
<time>2021-05-26T12:50:30.848Z</time>
</trkpt>
<trkpt lat="31.8191600" lon="34.9964900">
<ele>221.889984</ele>
<time>2021-05-26T12:50:30.848Z</time>
</trkpt>
<trkpt lat="31.8191400" lon="34.9964100">
<ele>220.739990</ele>
<time>2021-05-26T12:50:30.849Z</time>
</trkpt>
<trkpt lat="31.8190200" lon="34.9962300">
<ele>221.269989</ele>
<time>2021-05-26T12:50:30.849Z</time>
</trkpt>
<trkpt lat="31.8188900" lon="34.9959900">
<ele>222.550003</ele>
<time>2021-05-26T12:50:30.849Z</time>
</trkpt>
<trkpt lat="31.8188400" lon="34.9958300">
<ele>222.550003</ele>
<time>2021-05-26T12:50:30.849Z</time>
</trkpt>
<trkpt lat="31.8188100" lon="34.9957000">
<ele>223.539993</ele>
<time>2021-05-26T12:50:30.849Z</time>
</trkpt>
<trkpt lat="31.8187500" lon="34.9955400">
<ele>224.580002</ele>
<time>2021-05-26T12:50:30.849Z</time>
</trkpt>
<trkpt lat="31.8187500" lon="34.9953700">
<ele>225.500000</ele>
<time>2021-05-26T12:50:30.849Z</time>
</trkpt>
<trkpt lat="31.8187700" lon="34.9952600">
<ele>226.110001</ele>
<time>2021-05-26T12:50:30.849Z</time>
</trkpt>
<trkpt lat="31.8188200" lon="34.9949700">
<ele>230.330002</ele>
<time>2021-05-26T12:50:30.849Z</time>
</trkpt>
<trkpt lat="31.8188200" lon="34.9948400">
<ele>233.839996</ele>
<time>2021-05-26T12:50:30.849Z</time>
</trkpt>
<trkpt lat="31.8188100" lon="34.9947700">
<ele>235.310013</ele>
<time>2021-05-26T12:50:30.849Z</time>
</trkpt>
<trkpt lat="31.8187800" lon="34.9947100">
<ele>235.710007</ele>
<time>2021-05-26T12:50:30.849Z</time>
</trkpt>
<trkpt lat="31.8186800" lon="34.9946000">
<ele>236.039993</ele>
<time>2021-05-26T12:50:30.849Z</time>
</trkpt>
<trkpt lat="31.8185300" lon="34.9945600">
<ele>234.739990</ele>
<time>2021-05-26T12:50:30.849Z</time>
</trkpt>
<trkpt lat="31.8183400" lon="34.9945500">
<ele>233.029999</ele>
<time>2021-05-26T12:50:30.849Z</time>
</trkpt>
<trkpt lat="31.8182800" lon="34.9945200">
<ele>233.649994</ele>
<time>2021-05-26T12:50:30.849Z</time>
</trkpt>
<trkpt lat="31.8181400" lon="34.9945000">
<ele>233.559998</ele>
<time>2021-05-26T12:50:30.849Z</time>
</trkpt>
<trkpt lat="31.8180800" lon="34.9944700">
<ele>233.779999</ele>
<time>2021-05-26T12:50:30.849Z</time>
</trkpt>
<trkpt lat="31.8177900" lon="34.9944100">
<ele>239.659988</ele>
<time>2021-05-26T12:50:30.849Z</time>
</trkpt>
<trkpt lat="31.8176200" lon="34.9943500">
<ele>242.710007</ele>
<time>2021-05-26T12:50:30.849Z</time>
</trkpt>
<trkpt lat="31.8174800" lon="34.9943300">
<ele>244.579987</ele>
<time>2021-05-26T12:50:30.849Z</time>
</trkpt>
<trkpt lat="31.8172800" lon="34.9942300">
<ele>250.339996</ele>
<time>2021-05-26T12:50:30.849Z</time>
</trkpt>
<trkpt lat="31.8172100" lon="34.9941600">
<ele>253.250000</ele>
<time>2021-05-26T12:50:30.849Z</time>
</trkpt>
<trkpt lat="31.8171000" lon="34.9938800">
<ele>258.540009</ele>
<time>2021-05-26T12:50:30.849Z</time>
</trkpt>
<trkpt lat="31.8170100" lon="34.9936000">
<ele>261.890015</ele>
<time>2021-05-26T12:50:30.849Z</time>
</trkpt>
<trkpt lat="31.8169200" lon="34.9931100">
<ele>265.470001</ele>
<time>2021-05-26T12:50:30.849Z</time>
</trkpt>
<trkpt lat="31.8168300" lon="34.9929400">
<ele>263.100006</ele>
<time>2021-05-26T12:50:30.849Z</time>
</trkpt>
<trkpt lat="31.8167400" lon="34.9929000">
<ele>261.380005</ele>
<time>2021-05-26T12:50:30.849Z</time>
</trkpt>
<trkpt lat="31.8166300" lon="34.9929000">
<ele>259.679993</ele>
<time>2021-05-26T12:50:30.849Z</time>
</trkpt>
<trkpt lat="31.8165600" lon="34.9929100">
<ele>258.529999</ele>
<time>2021-05-26T12:50:30.849Z</time>
</trkpt>
<trkpt lat="31.8164500" lon="34.9929200">
<ele>256.619995</ele>
<time>2021-05-26T12:50:30.849Z</time>
</trkpt>
<trkpt lat="31.8163300" lon="34.9929800">
<ele>255.300003</ele>
<time>2021-05-26T12:50:30.849Z</time>
</trkpt>
<trkpt lat="31.8162300" lon="34.9930700">
<ele>254.769989</ele>
<time>2021-05-26T12:50:30.849Z</time>
</trkpt>
<trkpt lat="31.8161300" lon="34.9930800">
<ele>253.970001</ele>
<time>2021-05-26T12:50:30.850Z</time>
</trkpt>
<trkpt lat="31.8160500" lon="34.9930800">
<ele>252.909988</ele>
<time>2021-05-26T12:50:30.850Z</time>
</trkpt>
<trkpt lat="31.8159900" lon="34.9930700">
<ele>252.110001</ele>
<time>2021-05-26T12:50:30.850Z</time>
</trkpt>
<trkpt lat="31.8159700" lon="34.9930200">
<ele>252.300003</ele>
<time>2021-05-26T12:50:30.850Z</time>
</trkpt>
<trkpt lat="31.8159700" lon="34.9929000">
<ele>253.399994</ele>
<time>2021-05-26T12:50:30.851Z</time>
</trkpt>
<trkpt lat="31.8159800" lon="34.9927800">
<ele>254.400009</ele>
<time>2021-05-26T12:50:30.851Z</time>
</trkpt>
<trkpt lat="31.8160300" lon="34.9926500">
<ele>256.580017</ele>
<time>2021-05-26T12:50:30.851Z</time>
</trkpt>
<trkpt lat="31.8163900" lon="34.9921500">
<ele>264.029999</ele>
<time>2021-05-26T12:50:30.851Z</time>
</trkpt>
<trkpt lat="31.8165600" lon="34.9917100">
<ele>272.160004</ele>
<time>2021-05-26T12:50:30.851Z</time>
</trkpt>
<trkpt lat="31.8166100" lon="34.9912100">
<ele>284.860016</ele>
<time>2021-05-26T12:50:30.851Z</time>
</trkpt>
<trkpt lat="31.8166300" lon="34.9911300">
<ele>286.739990</ele>
<time>2021-05-26T12:50:30.851Z</time>
</trkpt>
<trkpt lat="31.8166800" lon="34.9910900">
<ele>288.029999</ele>
<time>2021-05-26T12:50:30.851Z</time>
</trkpt>
<trkpt lat="31.8167400" lon="34.9910700">
<ele>288.500000</ele>
<time>2021-05-26T12:50:30.851Z</time>
</trkpt>
<trkpt lat="31.8168100" lon="34.9910700">
<ele>289.109985</ele>
<time>2021-05-26T12:50:30.851Z</time>
</trkpt>
<trkpt lat="31.8169300" lon="34.9911100">
<ele>289.899994</ele>
<time>2021-05-26T12:50:30.851Z</time>
</trkpt>
<trkpt lat="31.8172400" lon="34.9914100">
<ele>293.000000</ele>
<time>2021-05-26T12:50:30.851Z</time>
</trkpt>
<trkpt lat="31.8176100" lon="34.9918700">
<ele>293.540009</ele>
<time>2021-05-26T12:50:30.852Z</time>
</trkpt>
<trkpt lat="31.8178300" lon="34.9920200">
<ele>291.089996</ele>
<time>2021-05-26T12:50:30.852Z</time>
</trkpt>
<trkpt lat="31.8178900" lon="34.9920200">
<ele>290.779999</ele>
<time>2021-05-26T12:50:30.852Z</time>
</trkpt>
<trkpt lat="31.8179600" lon="34.9920200">
<ele>290.410004</ele>
<time>2021-05-26T12:50:30.852Z</time>
</trkpt>
<trkpt lat="31.8180600" lon="34.9920100">
<ele>290.010010</ele>
<time>2021-05-26T12:50:30.852Z</time>
</trkpt>
<trkpt lat="31.8181200" lon="34.9919700">
<ele>289.959991</ele>
<time>2021-05-26T12:50:30.852Z</time>
</trkpt>
<trkpt lat="31.8181900" lon="34.9918200">
<ele>290.459991</ele>
<time>2021-05-26T12:50:30.852Z</time>
</trkpt>
<trkpt lat="31.8180600" lon="34.9916200">
<ele>293.929993</ele>
<time>2021-05-26T12:50:30.852Z</time>
</trkpt>
<trkpt lat="31.8179200" lon="34.9913400">
<ele>295.160004</ele>
<time>2021-05-26T12:50:30.852Z</time>
</trkpt>
<trkpt lat="31.8177000" lon="34.9907800">
<ele>298.209991</ele>
<time>2021-05-26T12:50:30.852Z</time>
</trkpt>
<trkpt lat="31.8174300" lon="34.9902500">
<ele>302.019989</ele>
<time>2021-05-26T12:50:30.852Z</time>
</trkpt>
<trkpt lat="31.8173600" lon="34.9900500">
<ele>299.429993</ele>
<time>2021-05-26T12:50:30.852Z</time>
</trkpt>
<trkpt lat="31.8172400" lon="34.9900600">
<ele>297.890015</ele>
<time>2021-05-26T12:50:30.852Z</time>
</trkpt>
<trkpt lat="31.8170600" lon="34.9900900">
<ele>293.320007</ele>
<time>2021-05-26T12:50:30.852Z</time>
</trkpt>
<trkpt lat="31.8166900" lon="34.9901800">
<ele>285.850006</ele>
<time>2021-05-26T12:50:30.852Z</time>
</trkpt>
<trkpt lat="31.8159600" lon="34.9902900">
<ele>297.070007</ele>
<time>2021-05-26T12:50:30.852Z</time>
</trkpt>
<trkpt lat="31.8157400" lon="34.9903100">
<ele>298.850006</ele>
<time>2021-05-26T12:50:30.852Z</time>
</trkpt>
<trkpt lat="31.8155500" lon="34.9903000">
<ele>298.899994</ele>
<time>2021-05-26T12:50:30.852Z</time>
</trkpt>
<trkpt lat="31.8152200" lon="34.9902300">
<ele>304.380005</ele>
<time>2021-05-26T12:50:30.852Z</time>
</trkpt>
<trkpt lat="31.8148600" lon="34.9900100">
<ele>312.260010</ele>
<time>2021-05-26T12:50:30.852Z</time>
</trkpt>
<trkpt lat="31.8142200" lon="34.9896400">
<ele>319.079987</ele>
<time>2021-05-26T12:50:30.852Z</time>
</trkpt>
<trkpt lat="31.8135600" lon="34.9893900">
<ele>327.279999</ele>
<time>2021-05-26T12:50:30.852Z</time>
</trkpt>
<trkpt lat="31.8134500" lon="34.9893400">
<ele>328.600006</ele>
<time>2021-05-26T12:50:30.852Z</time>
</trkpt>
<trkpt lat="31.8125900" lon="34.9892400">
<ele>315.950012</ele>
<time>2021-05-26T12:50:30.852Z</time>
</trkpt>
<trkpt lat="31.8121600" lon="34.9892000">
<ele>307.140015</ele>
<time>2021-05-26T12:50:30.852Z</time>
</trkpt>
<trkpt lat="31.8117300" lon="34.9892800">
<ele>309.309998</ele>
<time>2021-05-26T12:50:30.852Z</time>
</trkpt>
<trkpt lat="31.8116000" lon="34.9893200">
<ele>309.549988</ele>
<time>2021-05-26T12:50:30.853Z</time>
</trkpt>
<trkpt lat="31.8112900" lon="34.9894900">
<ele>310.100006</ele>
<time>2021-05-26T12:50:30.853Z</time>
</trkpt>
<trkpt lat="31.8111400" lon="34.9895500">
<ele>309.470001</ele>
<time>2021-05-26T12:50:30.853Z</time>
</trkpt>
<trkpt lat="31.8107800" lon="34.9895500">
<ele>305.510010</ele>
<time>2021-05-26T12:50:30.853Z</time>
</trkpt>
<trkpt lat="31.8106100" lon="34.9895600">
<ele>307.339996</ele>
<time>2021-05-26T12:50:30.853Z</time>
</trkpt>
<trkpt lat="31.8104300" lon="34.9895800">
<ele>310.489990</ele>
<time>2021-05-26T12:50:30.853Z</time>
</trkpt>
<trkpt lat="31.8102600" lon="34.9896400">
<ele>313.240021</ele>
<time>2021-05-26T12:50:30.853Z</time>
</trkpt>
<trkpt lat="31.8094800" lon="34.9902400">
<ele>309.510010</ele>
<time>2021-05-26T12:50:30.853Z</time>
</trkpt>
<trkpt lat="31.8080500" lon="34.9914200">
<ele>311.559998</ele>
<time>2021-05-26T12:50:30.853Z</time>
</trkpt>
<trkpt lat="31.8078600" lon="34.9914700">
<ele>312.250000</ele>
<time>2021-05-26T12:50:30.853Z</time>
</trkpt>
<trkpt lat="31.8076900" lon="34.9914300">
<ele>314.880005</ele>
<time>2021-05-26T12:50:30.853Z</time>
</trkpt>
<trkpt lat="31.8075500" lon="34.9913000">
<ele>319.760010</ele>
<time>2021-05-26T12:50:30.853Z</time>
</trkpt>
<trkpt lat="31.8073300" lon="34.9909200">
<ele>325.130005</ele>
<time>2021-05-26T12:50:30.853Z</time>
</trkpt>
<trkpt lat="31.8072000" lon="34.9907100">
<ele>326.350006</ele>
<time>2021-05-26T12:50:30.853Z</time>
</trkpt>
<trkpt lat="31.8069400" lon="34.9905200">
<ele>327.850006</ele>
<time>2021-05-26T12:50:30.853Z</time>
</trkpt>
<trkpt lat="31.8067800" lon="34.9904800">
<ele>326.809998</ele>
<time>2021-05-26T12:50:30.853Z</time>
</trkpt>
<trkpt lat="31.8066800" lon="34.9904800">
<ele>326.260010</ele>
<time>2021-05-26T12:50:30.853Z</time>
</trkpt>
<trkpt lat="31.8063500" lon="34.9904800">
<ele>320.089996</ele>
<time>2021-05-26T12:50:30.854Z</time>
</trkpt>
<trkpt lat="31.8061000" lon="34.9904900">
<ele>320.929993</ele>
<time>2021-05-26T12:50:30.854Z</time>
</trkpt>
<trkpt lat="31.8055700" lon="34.9906500">
<ele>317.690002</ele>
<time>2021-05-26T12:50:30.854Z</time>
</trkpt>
<trkpt lat="31.8043400" lon="34.9915100">
<ele>327.580017</ele>
<time>2021-05-26T12:50:30.854Z</time>
</trkpt>
<trkpt lat="31.8041700" lon="34.9915500">
<ele>329.869995</ele>
<time>2021-05-26T12:50:30.854Z</time>
</trkpt>
<trkpt lat="31.8038900" lon="34.9915500">
<ele>335.720001</ele>
<time>2021-05-26T12:50:30.854Z</time>
</trkpt>
<trkpt lat="31.8037600" lon="34.9915700">
<ele>336.419983</ele>
<time>2021-05-26T12:50:30.854Z</time>
</trkpt>
<trkpt lat="31.8037100" lon="34.9916200">
<ele>337.140015</ele>
<time>2021-05-26T12:50:30.854Z</time>
</trkpt>
<trkpt lat="31.8035900" lon="34.9918200">
<ele>340.010010</ele>
<time>2021-05-26T12:50:30.854Z</time>
</trkpt>
<trkpt lat="31.8035400" lon="34.9919100">
<ele>340.770020</ele>
<time>2021-05-26T12:50:30.854Z</time>
</trkpt>
<trkpt lat="31.8034300" lon="34.9921500">
<ele>342.779999</ele>
<time>2021-05-26T12:50:30.855Z</time>
</trkpt>
<trkpt lat="31.8033200" lon="34.9923600">
<ele>343.890015</ele>
<time>2021-05-26T12:50:30.855Z</time>
</trkpt>
<trkpt lat="31.8032000" lon="34.9925800">
<ele>344.529999</ele>
<time>2021-05-26T12:50:30.855Z</time>
</trkpt>
<trkpt lat="31.8031100" lon="34.9927000">
<ele>342.020020</ele>
<time>2021-05-26T12:50:30.855Z</time>
</trkpt>
<trkpt lat="31.8029500" lon="34.9928700">
<ele>336.979980</ele>
<time>2021-05-26T12:50:30.855Z</time>
</trkpt>
<trkpt lat="31.8028400" lon="34.9929500">
<ele>334.449982</ele>
<time>2021-05-26T12:50:30.855Z</time>
</trkpt>
<trkpt lat="31.8027100" lon="34.9930500">
<ele>332.519989</ele>
<time>2021-05-26T12:50:30.855Z</time>
</trkpt>
<trkpt lat="31.8021800" lon="34.9932800">
<ele>334.850006</ele>
<time>2021-05-26T12:50:30.855Z</time>
</trkpt>
<trkpt lat="31.8021400" lon="34.9933000">
<ele>335.489990</ele>
<time>2021-05-26T12:50:30.855Z</time>
</trkpt>
<trkpt lat="31.8020000" lon="34.9933700">
<ele>338.139984</ele>
<time>2021-05-26T12:50:30.855Z</time>
</trkpt>
<trkpt lat="31.8019100" lon="34.9933900">
<ele>339.470001</ele>
<time>2021-05-26T12:50:30.855Z</time>
</trkpt>
<trkpt lat="31.8017900" lon="34.9934600">
<ele>341.139984</ele>
<time>2021-05-26T12:50:30.855Z</time>
</trkpt>
<trkpt lat="31.8016600" lon="34.9935700">
<ele>341.829987</ele>
<time>2021-05-26T12:50:30.855Z</time>
</trkpt>
<trkpt lat="31.8015700" lon="34.9937000">
<ele>342.850006</ele>
<time>2021-05-26T12:50:30.855Z</time>
</trkpt>
<trkpt lat="31.8014300" lon="34.9939200">
<ele>344.230011</ele>
<time>2021-05-26T12:50:30.855Z</time>
</trkpt>
<trkpt lat="31.8012300" lon="34.9943100">
<ele>342.209991</ele>
<time>2021-05-26T12:50:30.855Z</time>
</trkpt>
<trkpt lat="31.8011900" lon="34.9943900">
<ele>341.769989</ele>
<time>2021-05-26T12:50:30.855Z</time>
</trkpt>
<trkpt lat="31.8011400" lon="34.9944300">
<ele>341.269989</ele>
<time>2021-05-26T12:50:30.855Z</time>
</trkpt>
<trkpt lat="31.8011000" lon="34.9944800">
<ele>341.059998</ele>
<time>2021-05-26T12:50:30.855Z</time>
</trkpt>
<trkpt lat="31.8009900" lon="34.9945800">
<ele>340.010010</ele>
<time>2021-05-26T12:50:30.856Z</time>
</trkpt>
<trkpt lat="31.8008200" lon="34.9946400">
<ele>338.019989</ele>
<time>2021-05-26T12:50:30.856Z</time>
</trkpt>
<trkpt lat="31.8006900" lon="34.9946500">
<ele>337.189972</ele>
<time>2021-05-26T12:50:30.856Z</time>
</trkpt>
<trkpt lat="31.8005800" lon="34.9946500">
<ele>336.399994</ele>
<time>2021-05-26T12:50:30.856Z</time>
</trkpt>
<trkpt lat="31.8002400" lon="34.9946500">
<ele>338.729980</ele>
<time>2021-05-26T12:50:30.856Z</time>
</trkpt>
<trkpt lat="31.8001300" lon="34.9946500">
<ele>338.720001</ele>
<time>2021-05-26T12:50:30.856Z</time>
</trkpt>
<trkpt lat="31.8000000" lon="34.9946500">
<ele>338.699982</ele>
<time>2021-05-26T12:50:30.856Z</time>
</trkpt>
<trkpt lat="31.7997600" lon="34.9947500">
<ele>339.450012</ele>
<time>2021-05-26T12:50:30.856Z</time>
</trkpt>
<trkpt lat="31.7995800" lon="34.9949500">
<ele>342.629974</ele>
<time>2021-05-26T12:50:30.856Z</time>
</trkpt>
<trkpt lat="31.7993200" lon="34.9953800">
<ele>345.759979</ele>
<time>2021-05-26T12:50:30.856Z</time>
</trkpt>
<trkpt lat="31.7991600" lon="34.9955900">
<ele>347.020020</ele>
<time>2021-05-26T12:50:30.856Z</time>
</trkpt>
<trkpt lat="31.7988000" lon="34.9959900">
<ele>347.150024</ele>
<time>2021-05-26T12:50:30.856Z</time>
</trkpt>
<trkpt lat="31.7984800" lon="34.9962800">
<ele>347.869995</ele>
<time>2021-05-26T12:50:30.856Z</time>
</trkpt>
<trkpt lat="31.7982400" lon="34.9966000">
<ele>350.529999</ele>
<time>2021-05-26T12:50:30.856Z</time>
</trkpt>
<trkpt lat="31.7980900" lon="34.9967900">
<ele>350.639984</ele>
<time>2021-05-26T12:50:30.856Z</time>
</trkpt>
<trkpt lat="31.7979900" lon="34.9969100">
<ele>350.790009</ele>
<time>2021-05-26T12:50:30.856Z</time>
</trkpt>
<trkpt lat="31.7977300" lon="34.9971400">
<ele>353.809998</ele>
<time>2021-05-26T12:50:30.856Z</time>
</trkpt>
<trkpt lat="31.7975900" lon="34.9972500">
<ele>352.559998</ele>
<time>2021-05-26T12:50:30.856Z</time>
</trkpt>
<trkpt lat="31.7974600" lon="34.9973100">
<ele>351.050018</ele>
<time>2021-05-26T12:50:30.857Z</time>
</trkpt>
<trkpt lat="31.7973800" lon="34.9973400">
<ele>351.180023</ele>
<time>2021-05-26T12:50:30.857Z</time>
</trkpt>
<trkpt lat="31.7970800" lon="34.9973900">
<ele>354.369995</ele>
<time>2021-05-26T12:50:30.857Z</time>
</trkpt>
<trkpt lat="31.7969400" lon="34.9974100">
<ele>357.080017</ele>
<time>2021-05-26T12:50:30.857Z</time>
</trkpt>
<trkpt lat="31.7967700" lon="34.9974200">
<ele>360.139984</ele>
<time>2021-05-26T12:50:30.857Z</time>
</trkpt>
<trkpt lat="31.7965100" lon="34.9974200">
<ele>365.550018</ele>
<time>2021-05-26T12:50:30.857Z</time>
</trkpt>
<trkpt lat="31.7962700" lon="34.9973700">
<ele>370.610016</ele>
<time>2021-05-26T12:50:30.857Z</time>
</trkpt>
<trkpt lat="31.7960300" lon="34.9972300">
<ele>374.850006</ele>
<time>2021-05-26T12:50:30.857Z</time>
</trkpt>
<trkpt lat="31.7958500" lon="34.9971300">
<ele>377.819977</ele>
<time>2021-05-26T12:50:30.857Z</time>
</trkpt>
<trkpt lat="31.7956000" lon="34.9969600">
<ele>381.610016</ele>
<time>2021-05-26T12:50:30.857Z</time>
</trkpt>
<trkpt lat="31.7955300" lon="34.9968900">
<ele>382.049988</ele>
<time>2021-05-26T12:50:30.857Z</time>
</trkpt>
<trkpt lat="31.7951500" lon="34.9966700">
<ele>380.660004</ele>
<time>2021-05-26T12:50:30.857Z</time>
</trkpt>
<trkpt lat="31.7949600" lon="34.9966200">
<ele>377.899994</ele>
<time>2021-05-26T12:50:30.857Z</time>
</trkpt>
<trkpt lat="31.7949000" lon="34.9966200">
<ele>377.510010</ele>
<time>2021-05-26T12:50:30.857Z</time>
</trkpt>
<trkpt lat="31.7948200" lon="34.9966200">
<ele>376.980011</ele>
<time>2021-05-26T12:50:30.857Z</time>
</trkpt>
<trkpt lat="31.7946000" lon="34.9966900">
<ele>374.880005</ele>
<time>2021-05-26T12:50:30.857Z</time>
</trkpt>
<trkpt lat="31.7942900" lon="34.9968900">
<ele>375.190002</ele>
<time>2021-05-26T12:50:30.857Z</time>
</trkpt>
<trkpt lat="31.7940300" lon="34.9970300">
<ele>376.459991</ele>
<time>2021-05-26T12:50:30.857Z</time>
</trkpt>
<trkpt lat="31.7937400" lon="34.9971800">
<ele>375.389984</ele>
<time>2021-05-26T12:50:30.857Z</time>
</trkpt>
<trkpt lat="31.7930700" lon="34.9974600">
<ele>371.770020</ele>
<time>2021-05-26T12:50:30.857Z</time>
</trkpt>
<trkpt lat="31.7928300" lon="34.9976200">
<ele>367.850006</ele>
<time>2021-05-26T12:50:30.857Z</time>
</trkpt>
<trkpt lat="31.7925600" lon="34.9977100">
<ele>366.949982</ele>
<time>2021-05-26T12:50:30.857Z</time>
</trkpt>
<trkpt lat="31.7924400" lon="34.9977300">
<ele>367.010010</ele>
<time>2021-05-26T12:50:30.857Z</time>
</trkpt>
<trkpt lat="31.7921700" lon="34.9977400">
<ele>368.290009</ele>
<time>2021-05-26T12:50:30.857Z</time>
</trkpt>
<trkpt lat="31.7919500" lon="34.9977300">
<ele>367.500000</ele>
<time>2021-05-26T12:50:30.857Z</time>
</trkpt>
<trkpt lat="31.7918100" lon="34.9977700">
<ele>367.899994</ele>
<time>2021-05-26T12:50:30.857Z</time>
</trkpt>
<trkpt lat="31.7916200" lon="34.9979500">
<ele>372.679993</ele>
<time>2021-05-26T12:50:30.857Z</time>
</trkpt>
<trkpt lat="31.7915400" lon="34.9980100">
<ele>374.760010</ele>
<time>2021-05-26T12:50:30.857Z</time>
</trkpt>
<trkpt lat="31.7914600" lon="34.9980300">
<ele>375.840027</ele>
<time>2021-05-26T12:50:30.857Z</time>
</trkpt>
<trkpt lat="31.7913700" lon="34.9980500">
<ele>376.730011</ele>
<time>2021-05-26T12:50:30.857Z</time>
</trkpt>
<trkpt lat="31.7910400" lon="34.9980400">
<ele>374.559998</ele>
<time>2021-05-26T12:50:30.857Z</time>
</trkpt>
<trkpt lat="31.7909500" lon="34.9980600">
<ele>374.500000</ele>
<time>2021-05-26T12:50:30.857Z</time>
</trkpt>
<trkpt lat="31.7909100" lon="34.9981000">
<ele>375.079987</ele>
<time>2021-05-26T12:50:30.857Z</time>
</trkpt>
<trkpt lat="31.7908900" lon="34.9981400">
<ele>375.720001</ele>
<time>2021-05-26T12:50:30.857Z</time>
</trkpt>
<trkpt lat="31.7908900" lon="34.9983100">
<ele>378.779999</ele>
<time>2021-05-26T12:50:30.857Z</time>
</trkpt>
<trkpt lat="31.7909500" lon="34.9985200">
<ele>382.779999</ele>
<time>2021-05-26T12:50:30.858Z</time>
</trkpt>
<trkpt lat="31.7910400" lon="34.9986300">
<ele>384.910004</ele>
<time>2021-05-26T12:50:30.858Z</time>
</trkpt>
<trkpt lat="31.7912000" lon="34.9987500">
<ele>387.160004</ele>
<time>2021-05-26T12:50:30.858Z</time>
</trkpt>
<trkpt lat="31.7914300" lon="34.9990000">
<ele>387.079987</ele>
<time>2021-05-26T12:50:30.858Z</time>
</trkpt>
<trkpt lat="31.7917700" lon="34.9992700">
<ele>377.070007</ele>
<time>2021-05-26T12:50:30.858Z</time>
</trkpt>
<trkpt lat="31.7920000" lon="34.9995100">
<ele>374.080017</ele>
<time>2021-05-26T12:50:30.858Z</time>
</trkpt>
<trkpt lat="31.7921100" lon="34.9995700">
<ele>374.129974</ele>
<time>2021-05-26T12:50:30.858Z</time>
</trkpt>
<trkpt lat="31.7921900" lon="34.9996000">
<ele>374.170013</ele>
<time>2021-05-26T12:50:30.858Z</time>
</trkpt>
<trkpt lat="31.7922800" lon="34.9996500">
<ele>374.279999</ele>
<time>2021-05-26T12:50:30.858Z</time>
</trkpt>
<trkpt lat="31.7923300" lon="34.9997400">
<ele>374.200012</ele>
<time>2021-05-26T12:50:30.858Z</time>
</trkpt>
<trkpt lat="31.7923800" lon="35.0000000">
<ele>373.300018</ele>
<time>2021-05-26T12:50:30.858Z</time>
</trkpt>
<trkpt lat="31.7923900" lon="35.0000300">
<ele>372.840027</ele>
<time>2021-05-26T12:50:30.858Z</time>
</trkpt>
<trkpt lat="31.7924200" lon="35.0001300">
<ele>371.519989</ele>
<time>2021-05-26T12:50:30.858Z</time>
</trkpt>
<trkpt lat="31.7924400" lon="35.0001500">
<ele>371.219971</ele>
<time>2021-05-26T12:50:30.858Z</time>
</trkpt>
<trkpt lat="31.7924800" lon="35.0002200">
<ele>370.459991</ele>
<time>2021-05-26T12:50:30.858Z</time>
</trkpt>
<trkpt lat="31.7925500" lon="35.0003000">
<ele>369.290009</ele>
<time>2021-05-26T12:50:30.858Z</time>
</trkpt>
<trkpt lat="31.7926700" lon="35.0003800">
<ele>367.779999</ele>
<time>2021-05-26T12:50:30.858Z</time>
</trkpt>
<trkpt lat="31.7928400" lon="35.0004600">
<ele>365.679993</ele>
<time>2021-05-26T12:50:30.858Z</time>
</trkpt>
<trkpt lat="31.7930700" lon="35.0005000">
<ele>362.459991</ele>
<time>2021-05-26T12:50:30.858Z</time>
</trkpt>
<trkpt lat="31.7935900" lon="35.0005000">
<ele>357.229980</ele>
<time>2021-05-26T12:50:30.858Z</time>
</trkpt>
<trkpt lat="31.7936500" lon="35.0005100">
<ele>356.669983</ele>
<time>2021-05-26T12:50:30.858Z</time>
</trkpt>
<trkpt lat="31.7938900" lon="35.0005300">
<ele>354.799988</ele>
<time>2021-05-26T12:50:30.858Z</time>
</trkpt>
<trkpt lat="31.7940100" lon="35.0005300">
<ele>353.109985</ele>
<time>2021-05-26T12:50:30.858Z</time>
</trkpt>
<trkpt lat="31.7941000" lon="35.0005900">
<ele>352.609985</ele>
<time>2021-05-26T12:50:30.858Z</time>
</trkpt>
<trkpt lat="31.7943300" lon="35.0006700">
<ele>352.500000</ele>
<time>2021-05-26T12:50:30.858Z</time>
</trkpt>
<trkpt lat="31.7944300" lon="35.0007500">
<ele>352.550018</ele>
<time>2021-05-26T12:50:30.859Z</time>
</trkpt>
<trkpt lat="31.7945100" lon="35.0007500">
<ele>352.819977</ele>
<time>2021-05-26T12:50:30.859Z</time>
</trkpt>
<trkpt lat="31.7949200" lon="35.0006800">
<ele>356.100006</ele>
<time>2021-05-26T12:50:30.859Z</time>
</trkpt>
<trkpt lat="31.7950500" lon="35.0006700">
<ele>358.519989</ele>
<time>2021-05-26T12:50:30.859Z</time>
</trkpt>
<trkpt lat="31.7953300" lon="35.0006700">
<ele>365.709991</ele>
<time>2021-05-26T12:50:30.859Z</time>
</trkpt>
<trkpt lat="31.7954100" lon="35.0006800">
<ele>367.250000</ele>
<time>2021-05-26T12:50:30.859Z</time>
</trkpt>
<trkpt lat="31.7956700" lon="35.0007900">
<ele>372.750000</ele>
<time>2021-05-26T12:50:30.859Z</time>
</trkpt>
<trkpt lat="31.7958300" lon="35.0009300">
<ele>374.699982</ele>
<time>2021-05-26T12:50:30.859Z</time>
</trkpt>
<trkpt lat="31.7958700" lon="35.0010100">
<ele>374.660004</ele>
<time>2021-05-26T12:50:30.859Z</time>
</trkpt>
<trkpt lat="31.7958800" lon="35.0011100">
<ele>375.150024</ele>
<time>2021-05-26T12:50:30.859Z</time>
</trkpt>
<trkpt lat="31.7958800" lon="35.0012500">
<ele>375.159973</ele>
<time>2021-05-26T12:50:30.859Z</time>
</trkpt>
<trkpt lat="31.7958400" lon="35.0014500">
<ele>376.520020</ele>
<time>2021-05-26T12:50:30.859Z</time>
</trkpt>
<trkpt lat="31.7958200" lon="35.0014900">
<ele>377.019989</ele>
<time>2021-05-26T12:50:30.859Z</time>
</trkpt>
<trkpt lat="31.7956900" lon="35.0017000">
<ele>376.820007</ele>
<time>2021-05-26T12:50:30.859Z</time>
</trkpt>
<trkpt lat="31.7949300" lon="35.0024800">
<ele>379.809998</ele>
<time>2021-05-26T12:50:30.859Z</time>
</trkpt>
<trkpt lat="31.7948900" lon="35.0025200">
<ele>380.059998</ele>
<time>2021-05-26T12:50:30.859Z</time>
</trkpt>
<trkpt lat="31.7946100" lon="35.0027600">
<ele>383.160004</ele>
<time>2021-05-26T12:50:30.859Z</time>
</trkpt>
<trkpt lat="31.7944900" lon="35.0029000">
<ele>384.360016</ele>
<time>2021-05-26T12:50:30.859Z</time>
</trkpt>
<trkpt lat="31.7944200" lon="35.0030000">
<ele>385.019989</ele>
<time>2021-05-26T12:50:30.859Z</time>
</trkpt>
<trkpt lat="31.7940700" lon="35.0036600">
<ele>384.660004</ele>
<time>2021-05-26T12:50:30.859Z</time>
</trkpt>
<trkpt lat="31.7940000" lon="35.0038400">
<ele>382.000000</ele>
<time>2021-05-26T12:50:30.859Z</time>
</trkpt>
<trkpt lat="31.7939200" lon="35.0040200">
<ele>378.490021</ele>
<time>2021-05-26T12:50:30.859Z</time>
</trkpt>
<trkpt lat="31.7935700" lon="35.0044700">
<ele>373.290009</ele>
<time>2021-05-26T12:50:30.859Z</time>
</trkpt>
<trkpt lat="31.7935500" lon="35.0044800">
<ele>373.459991</ele>
<time>2021-05-26T12:50:30.859Z</time>
</trkpt>
<trkpt lat="31.7935200" lon="35.0044900">
<ele>373.709991</ele>
<time>2021-05-26T12:50:30.859Z</time>
</trkpt>
<trkpt lat="31.7933700" lon="35.0045200">
<ele>375.079987</ele>
<time>2021-05-26T12:50:30.859Z</time>
</trkpt>
<trkpt lat="31.7931900" lon="35.0045600">
<ele>375.440002</ele>
<time>2021-05-26T12:50:30.859Z</time>
</trkpt>
<trkpt lat="31.7930900" lon="35.0045600">
<ele>374.989990</ele>
<time>2021-05-26T12:50:30.859Z</time>
</trkpt>
<trkpt lat="31.7930600" lon="35.0046300">
<ele>375.370026</ele>
<time>2021-05-26T12:50:30.860Z</time>
</trkpt>
<trkpt lat="31.7929400" lon="35.0051900">
<ele>375.270020</ele>
<time>2021-05-26T12:50:30.860Z</time>
</trkpt>
<trkpt lat="31.7927600" lon="35.0053700">
<ele>374.959991</ele>
<time>2021-05-26T12:50:30.860Z</time>
</trkpt>
<trkpt lat="31.7914400" lon="35.0066100">
<ele>376.690002</ele>
<time>2021-05-26T12:50:30.860Z</time>
</trkpt>
<trkpt lat="31.7914100" lon="35.0066400">
<ele>376.880005</ele>
<time>2021-05-26T12:50:30.860Z</time>
</trkpt>
<trkpt lat="31.7910800" lon="35.0069500">
<ele>370.539978</ele>
<time>2021-05-26T12:50:30.860Z</time>
</trkpt>
<trkpt lat="31.7907200" lon="35.0072000">
<ele>368.940002</ele>
<time>2021-05-26T12:50:30.860Z</time>
</trkpt>
<trkpt lat="31.7905600" lon="35.0073300">
<ele>370.160004</ele>
<time>2021-05-26T12:50:30.860Z</time>
</trkpt>
<trkpt lat="31.7902300" lon="35.0078900">
<ele>372.459991</ele>
<time>2021-05-26T12:50:30.860Z</time>
</trkpt>
<trkpt lat="31.7900300" lon="35.0081900">
<ele>372.509979</ele>
<time>2021-05-26T12:50:30.860Z</time>
</trkpt>
<trkpt lat="31.7899000" lon="35.0083700">
<ele>372.079987</ele>
<time>2021-05-26T12:50:30.860Z</time>
</trkpt>
<trkpt lat="31.7897800" lon="35.0084700">
<ele>372.100006</ele>
<time>2021-05-26T12:50:30.860Z</time>
</trkpt>
<trkpt lat="31.7896000" lon="35.0085500">
<ele>371.709991</ele>
<time>2021-05-26T12:50:30.860Z</time>
</trkpt>
<trkpt lat="31.7895200" lon="35.0085800">
<ele>371.760010</ele>
<time>2021-05-26T12:50:30.860Z</time>
</trkpt>
<trkpt lat="31.7890900" lon="35.0087000">
<ele>363.330017</ele>
<time>2021-05-26T12:50:30.861Z</time>
</trkpt>
<trkpt lat="31.7886800" lon="35.0088600">
<ele>358.739990</ele>
<time>2021-05-26T12:50:30.862Z</time>
</trkpt>
<trkpt lat="31.7885300" lon="35.0089100">
<ele>356.830017</ele>
<time>2021-05-26T12:50:30.862Z</time>
</trkpt>
<trkpt lat="31.7880800" lon="35.0089800">
<ele>353.280029</ele>
<time>2021-05-26T12:50:30.862Z</time>
</trkpt>
<trkpt lat="31.7877300" lon="35.0091100">
<ele>354.669983</ele>
<time>2021-05-26T12:50:30.862Z</time>
</trkpt>
<trkpt lat="31.7876200" lon="35.0091200">
<ele>355.200012</ele>
<time>2021-05-26T12:50:30.862Z</time>
</trkpt>
<trkpt lat="31.7875000" lon="35.0091300">
<ele>355.809998</ele>
<time>2021-05-26T12:50:30.862Z</time>
</trkpt>
<trkpt lat="31.7873000" lon="35.0091200">
<ele>355.370026</ele>
<time>2021-05-26T12:50:30.862Z</time>
</trkpt>
<trkpt lat="31.7869100" lon="35.0090300">
<ele>355.290009</ele>
<time>2021-05-26T12:50:30.862Z</time>
</trkpt>
<trkpt lat="31.7863500" lon="35.0089600">
<ele>344.760010</ele>
<time>2021-05-26T12:50:30.862Z</time>
</trkpt>
<trkpt lat="31.7859400" lon="35.0089400">
<ele>344.079987</ele>
<time>2021-05-26T12:50:30.862Z</time>
</trkpt>
<trkpt lat="31.7856600" lon="35.0089600">
<ele>343.099976</ele>
<time>2021-05-26T12:50:30.862Z</time>
</trkpt>
<trkpt lat="31.7854900" lon="35.0090100">
<ele>343.420013</ele>
<time>2021-05-26T12:50:30.862Z</time>
</trkpt>
<trkpt lat="31.7853300" lon="35.0091100">
<ele>346.550018</ele>
<time>2021-05-26T12:50:30.862Z</time>
</trkpt>
<trkpt lat="31.7852000" lon="35.0092200">
<ele>347.660004</ele>
<time>2021-05-26T12:50:30.862Z</time>
</trkpt>
<trkpt lat="31.7851500" lon="35.0092900">
<ele>348.350006</ele>
<time>2021-05-26T12:50:30.862Z</time>
</trkpt>
<trkpt lat="31.7850300" lon="35.0095400">
<ele>351.220001</ele>
<time>2021-05-26T12:50:30.862Z</time>
</trkpt>
<trkpt lat="31.7849900" lon="35.0096600">
<ele>352.649994</ele>
<time>2021-05-26T12:50:30.862Z</time>
</trkpt>
<trkpt lat="31.7849500" lon="35.0099900">
<ele>355.989990</ele>
<time>2021-05-26T12:50:30.862Z</time>
</trkpt>
<trkpt lat="31.7849300" lon="35.0107100">
<ele>356.299988</ele>
<time>2021-05-26T12:50:30.862Z</time>
</trkpt>
<trkpt lat="31.7849300" lon="35.0108000">
<ele>356.620026</ele>
<time>2021-05-26T12:50:30.862Z</time>
</trkpt>
<trkpt lat="31.7849500" lon="35.0110200">
<ele>359.000000</ele>
<time>2021-05-26T12:50:30.862Z</time>
</trkpt>
<trkpt lat="31.7850000" lon="35.0111400">
<ele>360.269989</ele>
<time>2021-05-26T12:50:30.863Z</time>
</trkpt>
<trkpt lat="31.7851100" lon="35.0112500">
<ele>355.920013</ele>
<time>2021-05-26T12:50:30.863Z</time>
</trkpt>
<trkpt lat="31.7852700" lon="35.0113100">
<ele>352.100006</ele>
<time>2021-05-26T12:50:30.863Z</time>
</trkpt>
<trkpt lat="31.7854600" lon="35.0113300">
<ele>351.209991</ele>
<time>2021-05-26T12:50:30.863Z</time>
</trkpt>
<trkpt lat="31.7855100" lon="35.0113300">
<ele>351.130005</ele>
<time>2021-05-26T12:50:30.863Z</time>
</trkpt>
<trkpt lat="31.7857400" lon="35.0112900">
<ele>351.350006</ele>
<time>2021-05-26T12:50:30.863Z</time>
</trkpt>
<trkpt lat="31.7859200" lon="35.0111900">
<ele>351.559998</ele>
<time>2021-05-26T12:50:30.863Z</time>
</trkpt>
<trkpt lat="31.7860800" lon="35.0110600">
<ele>351.640015</ele>
<time>2021-05-26T12:50:30.863Z</time>
</trkpt>
<trkpt lat="31.7863400" lon="35.0107700">
<ele>354.019989</ele>
<time>2021-05-26T12:50:30.863Z</time>
</trkpt>
<trkpt lat="31.7864500" lon="35.0106800">
<ele>353.490021</ele>
<time>2021-05-26T12:50:30.863Z</time>
</trkpt>
<trkpt lat="31.7865400" lon="35.0106200">
<ele>353.490021</ele>
<time>2021-05-26T12:50:30.863Z</time>
</trkpt>
<trkpt lat="31.7867500" lon="35.0105500">
<ele>354.029999</ele>
<time>2021-05-26T12:50:30.863Z</time>
</trkpt>
<trkpt lat="31.7870500" lon="35.0105200">
<ele>354.809998</ele>
<time>2021-05-26T12:50:30.863Z</time>
</trkpt>
<trkpt lat="31.7876400" lon="35.0105300">
<ele>353.209991</ele>
<time>2021-05-26T12:50:30.863Z</time>
</trkpt>
<trkpt lat="31.7886800" lon="35.0104900">
<ele>349.940002</ele>
<time>2021-05-26T12:50:30.863Z</time>
</trkpt>
<trkpt lat="31.7888100" lon="35.0104900">
<ele>349.910004</ele>
<time>2021-05-26T12:50:30.863Z</time>
</trkpt>
<trkpt lat="31.7889800" lon="35.0105200">
<ele>350.450012</ele>
<time>2021-05-26T12:50:30.863Z</time>
</trkpt>
<trkpt lat="31.7891900" lon="35.0105300">
<ele>353.190002</ele>
<time>2021-05-26T12:50:30.863Z</time>
</trkpt>
<trkpt lat="31.7894500" lon="35.0105500">
<ele>351.999969</ele>
<time>2021-05-26T12:50:30.863Z</time>
</trkpt>
<trkpt lat="31.7897600" lon="35.0105100">
<ele>349.309998</ele>
<time>2021-05-26T12:50:30.863Z</time>
</trkpt>
<trkpt lat="31.7899400" lon="35.0104000">
<ele>350.209991</ele>
<time>2021-05-26T12:50:30.863Z</time>
</trkpt>
<trkpt lat="31.7901500" lon="35.0103100">
<ele>352.670013</ele>
<time>2021-05-26T12:50:30.863Z</time>
</trkpt>
<trkpt lat="31.7902300" lon="35.0103000">
<ele>353.199982</ele>
<time>2021-05-26T12:50:30.863Z</time>
</trkpt>
<trkpt lat="31.7904900" lon="35.0103100">
<ele>354.009979</ele>
<time>2021-05-26T12:50:30.864Z</time>
</trkpt>
<trkpt lat="31.7912300" lon="35.0104600">
<ele>353.580017</ele>
<time>2021-05-26T12:50:30.864Z</time>
</trkpt>
<trkpt lat="31.7917500" lon="35.0106400">
<ele>352.359985</ele>
<time>2021-05-26T12:50:30.864Z</time>
</trkpt>
<trkpt lat="31.7919600" lon="35.0107000">
<ele>349.970001</ele>
<time>2021-05-26T12:50:30.864Z</time>
</trkpt>
<trkpt lat="31.7921700" lon="35.0107400">
<ele>350.629974</ele>
<time>2021-05-26T12:50:30.864Z</time>
</trkpt>
<trkpt lat="31.7924400" lon="35.0108600">
<ele>349.269989</ele>
<time>2021-05-26T12:50:30.864Z</time>
</trkpt>
<trkpt lat="31.7926100" lon="35.0110900">
<ele>349.829987</ele>
<time>2021-05-26T12:50:30.864Z</time>
</trkpt>
<trkpt lat="31.7927400" lon="35.0112700">
<ele>352.939972</ele>
<time>2021-05-26T12:50:30.864Z</time>
</trkpt>
<trkpt lat="31.7929100" lon="35.0116400">
<ele>354.869995</ele>
<time>2021-05-26T12:50:30.864Z</time>
</trkpt>
<trkpt lat="31.7932000" lon="35.0120400">
<ele>353.220001</ele>
<time>2021-05-26T12:50:30.864Z</time>
</trkpt>
<trkpt lat="31.7934200" lon="35.0125900">
<ele>347.779999</ele>
<time>2021-05-26T12:50:30.864Z</time>
</trkpt>
<trkpt lat="31.7934800" lon="35.0127100">
<ele>347.639984</ele>
<time>2021-05-26T12:50:30.864Z</time>
</trkpt>
<trkpt lat="31.7935200" lon="35.0128100">
<ele>347.750000</ele>
<time>2021-05-26T12:50:30.864Z</time>
</trkpt>
<trkpt lat="31.7934900" lon="35.0128500">
<ele>347.710022</ele>
<time>2021-05-26T12:50:30.864Z</time>
</trkpt>
<trkpt lat="31.7934400" lon="35.0128700">
<ele>347.509979</ele>
<time>2021-05-26T12:50:30.864Z</time>
</trkpt>
<trkpt lat="31.7933000" lon="35.0128700">
<ele>346.800018</ele>
<time>2021-05-26T12:50:30.864Z</time>
</trkpt>
<trkpt lat="31.7931800" lon="35.0128400">
<ele>346.200012</ele>
<time>2021-05-26T12:50:30.864Z</time>
</trkpt>
<trkpt lat="31.7929300" lon="35.0126100">
<ele>350.399994</ele>
<time>2021-05-26T12:50:30.864Z</time>
</trkpt>
<trkpt lat="31.7927500" lon="35.0124900">
<ele>353.700012</ele>
<time>2021-05-26T12:50:30.864Z</time>
</trkpt>
<trkpt lat="31.7926000" lon="35.0124500">
<ele>352.200012</ele>
<time>2021-05-26T12:50:30.864Z</time>
</trkpt>
<trkpt lat="31.7924800" lon="35.0124400">
<ele>350.710022</ele>
<time>2021-05-26T12:50:30.864Z</time>
</trkpt>
<trkpt lat="31.7922600" lon="35.0124300">
<ele>345.199982</ele>
<time>2021-05-26T12:50:30.865Z</time>
</trkpt>
<trkpt lat="31.7920800" lon="35.0124000">
<ele>340.449982</ele>
<time>2021-05-26T12:50:30.865Z</time>
</trkpt>
<trkpt lat="31.7916300" lon="35.0122500">
<ele>338.320007</ele>
<time>2021-05-26T12:50:30.865Z</time>
</trkpt>
<trkpt lat="31.7914800" lon="35.0121300">
<ele>339.580017</ele>
<time>2021-05-26T12:50:30.865Z</time>
</trkpt>
<trkpt lat="31.7911800" lon="35.0116100">
<ele>333.240021</ele>
<time>2021-05-26T12:50:30.865Z</time>
</trkpt>
<trkpt lat="31.7909300" lon="35.0115000">
<ele>326.839996</ele>
<time>2021-05-26T12:50:30.865Z</time>
</trkpt>
<trkpt lat="31.7907300" lon="35.0114900">
<ele>322.330017</ele>
<time>2021-05-26T12:50:30.865Z</time>
</trkpt>
<trkpt lat="31.7905500" lon="35.0114900">
<ele>319.309998</ele>
<time>2021-05-26T12:50:30.865Z</time>
</trkpt>
<trkpt lat="31.7904900" lon="35.0115000">
<ele>318.789978</ele>
<time>2021-05-26T12:50:30.865Z</time>
</trkpt>
<trkpt lat="31.7904300" lon="35.0115300">
<ele>318.139984</ele>
<time>2021-05-26T12:50:30.865Z</time>
</trkpt>
<trkpt lat="31.7902700" lon="35.0118200">
<ele>313.810028</ele>
<time>2021-05-26T12:50:30.865Z</time>
</trkpt>
<trkpt lat="31.7902100" lon="35.0118900">
<ele>312.359985</ele>
<time>2021-05-26T12:50:30.865Z</time>
</trkpt>
<trkpt lat="31.7900900" lon="35.0119400">
<ele>309.700012</ele>
<time>2021-05-26T12:50:30.865Z</time>
</trkpt>
<trkpt lat="31.7899900" lon="35.0119500">
<ele>307.850006</ele>
<time>2021-05-26T12:50:30.865Z</time>
</trkpt>
<trkpt lat="31.7896500" lon="35.0119500">
<ele>304.960022</ele>
<time>2021-05-26T12:50:30.865Z</time>
</trkpt>
<trkpt lat="31.7896200" lon="35.0119400">
<ele>305.139984</ele>
<time>2021-05-26T12:50:30.866Z</time>
</trkpt>
<trkpt lat="31.7890800" lon="35.0117700">
<ele>320.449982</ele>
<time>2021-05-26T12:50:30.866Z</time>
</trkpt>
<trkpt lat="31.7888400" lon="35.0117500">
<ele>321.019989</ele>
<time>2021-05-26T12:50:30.866Z</time>
</trkpt>
<trkpt lat="31.7886900" lon="35.0117500">
<ele>319.570007</ele>
<time>2021-05-26T12:50:30.866Z</time>
</trkpt>
<trkpt lat="31.7885800" lon="35.0117600">
<ele>317.910004</ele>
<time>2021-05-26T12:50:30.866Z</time>
</trkpt>
<trkpt lat="31.7883400" lon="35.0119000">
<ele>309.139984</ele>
<time>2021-05-26T12:50:30.866Z</time>
</trkpt>
<trkpt lat="31.7880200" lon="35.0120200">
<ele>302.110016</ele>
<time>2021-05-26T12:50:30.866Z</time>
</trkpt>
<trkpt lat="31.7876700" lon="35.0120900">
<ele>296.890015</ele>
<time>2021-05-26T12:50:30.866Z</time>
</trkpt>
<trkpt lat="31.7875400" lon="35.0121000">
<ele>296.660004</ele>
<time>2021-05-26T12:50:30.866Z</time>
</trkpt>
<trkpt lat="31.7872500" lon="35.0121000">
<ele>299.559998</ele>
<time>2021-05-26T12:50:30.866Z</time>
</trkpt>
<trkpt lat="31.7871300" lon="35.0121200">
<ele>299.649994</ele>
<time>2021-05-26T12:50:30.866Z</time>
</trkpt>
<trkpt lat="31.7870300" lon="35.0121400">
<ele>299.309998</ele>
<time>2021-05-26T12:50:30.866Z</time>
</trkpt>
<trkpt lat="31.7866300" lon="35.0123300">
<ele>299.940002</ele>
<time>2021-05-26T12:50:30.866Z</time>
</trkpt>
<trkpt lat="31.7864600" lon="35.0123500">
<ele>301.149994</ele>
<time>2021-05-26T12:50:30.866Z</time>
</trkpt>
<trkpt lat="31.7860000" lon="35.0123600">
<ele>304.220001</ele>
<time>2021-05-26T12:50:30.866Z</time>
</trkpt>
<trkpt lat="31.7858500" lon="35.0123800">
<ele>304.250000</ele>
<time>2021-05-26T12:50:30.866Z</time>
</trkpt>
<trkpt lat="31.7854500" lon="35.0125500">
<ele>306.790009</ele>
<time>2021-05-26T12:50:30.866Z</time>
</trkpt>
<trkpt lat="31.7850400" lon="35.0126100">
<ele>303.390015</ele>
<time>2021-05-26T12:50:30.866Z</time>
</trkpt>
<trkpt lat="31.7850000" lon="35.0126400">
<ele>303.510010</ele>
<time>2021-05-26T12:50:30.866Z</time>
</trkpt>
<trkpt lat="31.7848300" lon="35.0127000">
<ele>302.809998</ele>
<time>2021-05-26T12:50:30.866Z</time>
</trkpt>
<trkpt lat="31.7847300" lon="35.0127000">
<ele>302.019989</ele>
<time>2021-05-26T12:50:30.866Z</time>
</trkpt>
<trkpt lat="31.7844200" lon="35.0127000">
<ele>302.679993</ele>
<time>2021-05-26T12:50:30.866Z</time>
</trkpt>
<trkpt lat="31.7841300" lon="35.0126300">
<ele>303.720001</ele>
<time>2021-05-26T12:50:30.866Z</time>
</trkpt>
<trkpt lat="31.7840100" lon="35.0125900">
<ele>302.779999</ele>
<time>2021-05-26T12:50:30.866Z</time>
</trkpt>
<trkpt lat="31.7832800" lon="35.0124800">
<ele>299.950012</ele>
<time>2021-05-26T12:50:30.866Z</time>
</trkpt>
<trkpt lat="31.7832200" lon="35.0124800">
<ele>299.489990</ele>
<time>2021-05-26T12:50:30.867Z</time>
</trkpt>
<trkpt lat="31.7831400" lon="35.0124700">
<ele>299.000000</ele>
<time>2021-05-26T12:50:30.867Z</time>
</trkpt>
<trkpt lat="31.7824100" lon="35.0125100">
<ele>289.919983</ele>
<time>2021-05-26T12:50:30.867Z</time>
</trkpt>
<trkpt lat="31.7823200" lon="35.0125400">
<ele>288.759979</ele>
<time>2021-05-26T12:50:30.867Z</time>
</trkpt>
<trkpt lat="31.7820300" lon="35.0125700">
<ele>288.089996</ele>
<time>2021-05-26T12:50:30.867Z</time>
</trkpt>
<trkpt lat="31.7819000" lon="35.0125700">
<ele>288.000000</ele>
<time>2021-05-26T12:50:30.867Z</time>
</trkpt>
<trkpt lat="31.7814800" lon="35.0125600">
<ele>287.830017</ele>
<time>2021-05-26T12:50:30.867Z</time>
</trkpt>
<trkpt lat="31.7812900" lon="35.0125500">
<ele>286.260010</ele>
<time>2021-05-26T12:50:30.867Z</time>
</trkpt>
<trkpt lat="31.7806200" lon="35.0125400">
<ele>279.489990</ele>
<time>2021-05-26T12:50:30.867Z</time>
</trkpt>
<trkpt lat="31.7803800" lon="35.0125100">
<ele>277.920013</ele>
<time>2021-05-26T12:50:30.867Z</time>
</trkpt>
<trkpt lat="31.7803000" lon="35.0124800">
<ele>277.380005</ele>
<time>2021-05-26T12:50:30.867Z</time>
</trkpt>
<trkpt lat="31.7801600" lon="35.0123900">
<ele>277.619995</ele>
<time>2021-05-26T12:50:30.867Z</time>
</trkpt>
<trkpt lat="31.7800000" lon="35.0121500">
<ele>277.739990</ele>
<time>2021-05-26T12:50:30.867Z</time>
</trkpt>
<trkpt lat="31.7798700" lon="35.0119500">
<ele>275.149994</ele>
<time>2021-05-26T12:50:30.867Z</time>
</trkpt>
<trkpt lat="31.7794200" lon="35.0112800">
<ele>267.239990</ele>
<time>2021-05-26T12:50:30.867Z</time>
</trkpt>
<trkpt lat="31.7791300" lon="35.0107000">
<ele>263.609985</ele>
<time>2021-05-26T12:50:30.867Z</time>
</trkpt>
<trkpt lat="31.7790900" lon="35.0106700">
<ele>263.119995</ele>
<time>2021-05-26T12:50:30.867Z</time>
</trkpt>
<trkpt lat="31.7786100" lon="35.0107800">
<ele>262.600006</ele>
<time>2021-05-26T12:50:30.867Z</time>
</trkpt>
<trkpt lat="31.7785900" lon="35.0107200">
<ele>261.799988</ele>
<time>2021-05-26T12:50:30.867Z</time>
</trkpt>
<trkpt lat="31.7784700" lon="35.0108000">
<ele>260.220001</ele>
<time>2021-05-26T12:50:30.867Z</time>
</trkpt>
<trkpt lat="31.7779400" lon="35.0111100">
<ele>256.000000</ele>
<time>2021-05-26T12:50:30.867Z</time>
</trkpt>
<trkpt lat="31.7777500" lon="35.0112000">
<ele>255.720001</ele>
<time>2021-05-26T12:50:30.867Z</time>
</trkpt>
<trkpt lat="31.7775800" lon="35.0112400">
<ele>252.190002</ele>
<time>2021-05-26T12:50:30.867Z</time>
</trkpt>
<trkpt lat="31.7774600" lon="35.0112800">
<ele>250.089996</ele>
<time>2021-05-26T12:50:30.867Z</time>
</trkpt>
<trkpt lat="31.7772600" lon="35.0113100">
<ele>247.510010</ele>
<time>2021-05-26T12:50:30.867Z</time>
</trkpt>
<trkpt lat="31.7771400" lon="35.0113300">
<ele>246.869995</ele>
<time>2021-05-26T12:50:30.867Z</time>
</trkpt>
<trkpt lat="31.7770500" lon="35.0113600">
<ele>246.869995</ele>
<time>2021-05-26T12:50:30.867Z</time>
</trkpt>
<trkpt lat="31.7769100" lon="35.0114200">
<ele>247.520004</ele>
<time>2021-05-26T12:50:30.867Z</time>
</trkpt>
<trkpt lat="31.7768600" lon="35.0114400">
<ele>247.750000</ele>
<time>2021-05-26T12:50:30.867Z</time>
</trkpt>
<trkpt lat="31.7768300" lon="35.0114300">
<ele>247.559998</ele>
<time>2021-05-26T12:50:30.867Z</time>
</trkpt>
<trkpt lat="31.7768000" lon="35.0114200">
<ele>247.389999</ele>
<time>2021-05-26T12:50:30.867Z</time>
</trkpt>
<trkpt lat="31.7767800" lon="35.0114100">
<ele>247.250000</ele>
<time>2021-05-26T12:50:30.867Z</time>
</trkpt>
<trkpt lat="31.7767400" lon="35.0113900">
<ele>247.009995</ele>
<time>2021-05-26T12:50:30.867Z</time>
</trkpt>
<trkpt lat="31.7767200" lon="35.0113900">
<ele>247.009995</ele>
<time>2021-05-26T12:50:30.868Z</time>
</trkpt>
<trkpt lat="31.7766200" lon="35.0114100">
<ele>247.309998</ele>
<time>2021-05-26T12:50:30.868Z</time>
</trkpt>
<trkpt lat="31.7765900" lon="35.0114300">
<ele>247.530014</ele>
<time>2021-05-26T12:50:30.868Z</time>
</trkpt>
<trkpt lat="31.7765700" lon="35.0114600">
<ele>247.769989</ele>
<time>2021-05-26T12:50:30.868Z</time>
</trkpt>
<trkpt lat="31.7765300" lon="35.0115100">
<ele>248.150009</ele>
<time>2021-05-26T12:50:30.868Z</time>
</trkpt>
<trkpt lat="31.7765200" lon="35.0115500">
<ele>248.380005</ele>
<time>2021-05-26T12:50:30.868Z</time>
</trkpt>
<trkpt lat="31.7765100" lon="35.0115800">
<ele>248.550003</ele>
<time>2021-05-26T12:50:30.868Z</time>
</trkpt>
<trkpt lat="31.7764900" lon="35.0116100">
<ele>248.720001</ele>
<time>2021-05-26T12:50:30.868Z</time>
</trkpt>
<trkpt lat="31.7764700" lon="35.0116400">
<ele>248.880005</ele>
<time>2021-05-26T12:50:30.868Z</time>
</trkpt>
<trkpt lat="31.7764400" lon="35.0116900">
<ele>248.900009</ele>
<time>2021-05-26T12:50:30.868Z</time>
</trkpt>
<trkpt lat="31.7758200" lon="35.0120000">
<ele>260.930023</ele>
<time>2021-05-26T12:50:30.868Z</time>
</trkpt>
<trkpt lat="31.7756900" lon="35.0120800">
<ele>262.510010</ele>
<time>2021-05-26T12:50:30.868Z</time>
</trkpt>
<trkpt lat="31.7755700" lon="35.0121700">
<ele>262.420013</ele>
<time>2021-05-26T12:50:30.868Z</time>
</trkpt>
<trkpt lat="31.7754600" lon="35.0123100">
<ele>261.239990</ele>
<time>2021-05-26T12:50:30.868Z</time>
</trkpt>
<trkpt lat="31.7750600" lon="35.0128800">
<ele>263.570007</ele>
<time>2021-05-26T12:50:30.868Z</time>
</trkpt>
<trkpt lat="31.7749700" lon="35.0130800">
<ele>267.559998</ele>
<time>2021-05-26T12:50:30.868Z</time>
</trkpt>
<trkpt lat="31.7749500" lon="35.0132300">
<ele>269.190002</ele>
<time>2021-05-26T12:50:30.868Z</time>
</trkpt>
<trkpt lat="31.7749500" lon="35.0135300">
<ele>273.220001</ele>
<time>2021-05-26T12:50:30.868Z</time>
</trkpt>
<trkpt lat="31.7749800" lon="35.0142400">
<ele>272.070007</ele>
<time>2021-05-26T12:50:30.868Z</time>
</trkpt>
<trkpt lat="31.7752000" lon="35.0143900">
<ele>273.850006</ele>
<time>2021-05-26T12:50:30.868Z</time>
</trkpt>
<trkpt lat="31.7752900" lon="35.0142400">
<ele>274.320007</ele>
<time>2021-05-26T12:50:30.868Z</time>
</trkpt>
<trkpt lat="31.7752600" lon="35.0140200">
<ele>273.970001</ele>
<time>2021-05-26T12:50:30.868Z</time>
</trkpt>
<trkpt lat="31.7754000" lon="35.0139300">
<ele>272.880005</ele>
<time>2021-05-26T12:50:30.868Z</time>
</trkpt>
<trkpt lat="31.7755900" lon="35.0140200">
<ele>272.100006</ele>
<time>2021-05-26T12:50:30.869Z</time>
</trkpt>
<trkpt lat="31.7757000" lon="35.0140900">
<ele>271.989990</ele>
<time>2021-05-26T12:50:30.869Z</time>
</trkpt>
<trkpt lat="31.7757800" lon="35.0142100">
<ele>273.570007</ele>
<time>2021-05-26T12:50:30.869Z</time>
</trkpt>
<trkpt lat="31.7759400" lon="35.0143300">
<ele>275.480011</ele>
<time>2021-05-26T12:50:30.869Z</time>
</trkpt>
<trkpt lat="31.7760900" lon="35.0144100">
<ele>275.540009</ele>
<time>2021-05-26T12:50:30.869Z</time>
</trkpt>
<trkpt lat="31.7764800" lon="35.0145200">
<ele>264.950012</ele>
<time>2021-05-26T12:50:30.869Z</time>
</trkpt>
<trkpt lat="31.7768600" lon="35.0147500">
<ele>255.550003</ele>
<time>2021-05-26T12:50:30.869Z</time>
</trkpt>
<trkpt lat="31.7770700" lon="35.0155800">
<ele>266.190002</ele>
<time>2021-05-26T12:50:30.869Z</time>
</trkpt>
<trkpt lat="31.7774000" lon="35.0159800">
<ele>262.910004</ele>
<time>2021-05-26T12:50:30.869Z</time>
</trkpt>
<trkpt lat="31.7774100" lon="35.0159800">
<ele>262.679993</ele>
<time>2021-05-26T12:50:30.869Z</time>
</trkpt>
<trkpt lat="31.7774100" lon="35.0159800">
<ele>262.679993</ele>
<time>2021-05-26T12:50:30.869Z</time>
</trkpt>
<trkpt lat="31.7774200" lon="35.0159700">
<ele>262.350006</ele>
<time>2021-05-26T12:50:30.869Z</time>
</trkpt>
<trkpt lat="31.7775100" lon="35.0160400">
<ele>261.089996</ele>
<time>2021-05-26T12:50:30.869Z</time>
</trkpt>
<trkpt lat="31.7776200" lon="35.0160600">
<ele>259.720001</ele>
<time>2021-05-26T12:50:30.869Z</time>
</trkpt>
<trkpt lat="31.7776800" lon="35.0160700">
<ele>258.960022</ele>
<time>2021-05-26T12:50:30.869Z</time>
</trkpt>
<trkpt lat="31.7779000" lon="35.0159900">
<ele>255.510010</ele>
<time>2021-05-26T12:50:30.870Z</time>
</trkpt>
<trkpt lat="31.7780200" lon="35.0159500">
<ele>254.290009</ele>
<time>2021-05-26T12:50:30.870Z</time>
</trkpt>
<trkpt lat="31.7781800" lon="35.0159500">
<ele>254.639999</ele>
<time>2021-05-26T12:50:30.870Z</time>
</trkpt>
<trkpt lat="31.7782600" lon="35.0160400">
<ele>255.280014</ele>
<time>2021-05-26T12:50:30.870Z</time>
</trkpt>
<trkpt lat="31.7782500" lon="35.0163000">
<ele>256.489990</ele>
<time>2021-05-26T12:50:30.870Z</time>
</trkpt>
<trkpt lat="31.7782600" lon="35.0164500">
<ele>257.390015</ele>
<time>2021-05-26T12:50:30.870Z</time>
</trkpt>
<trkpt lat="31.7783400" lon="35.0167300">
<ele>258.010010</ele>
<time>2021-05-26T12:50:30.870Z</time>
</trkpt>
<trkpt lat="31.7784000" lon="35.0170300">
<ele>258.299988</ele>
<time>2021-05-26T12:50:30.870Z</time>
</trkpt>
<trkpt lat="31.7784700" lon="35.0172000">
<ele>258.899994</ele>
<time>2021-05-26T12:50:30.870Z</time>
</trkpt>
<trkpt lat="31.7786000" lon="35.0175100">
<ele>263.299988</ele>
<time>2021-05-26T12:50:30.870Z</time>
</trkpt>
<trkpt lat="31.7787300" lon="35.0177200">
<ele>266.959991</ele>
<time>2021-05-26T12:50:30.870Z</time>
</trkpt>
<trkpt lat="31.7788600" lon="35.0178600">
<ele>269.540009</ele>
<time>2021-05-26T12:50:30.870Z</time>
</trkpt>
<trkpt lat="31.7788600" lon="35.0178600">
<ele>269.540009</ele>
<time>2021-05-26T12:50:30.870Z</time>
</trkpt>
<trkpt lat="31.7788800" lon="35.0178800">
<ele>269.859985</ele>
<time>2021-05-26T12:50:30.870Z</time>
</trkpt>
<trkpt lat="31.7799400" lon="35.0182000">
<ele>265.339996</ele>
<time>2021-05-26T12:50:30.870Z</time>
</trkpt>
<trkpt lat="31.7801700" lon="35.0183300">
<ele>264.019989</ele>
<time>2021-05-26T12:50:30.870Z</time>
</trkpt>
<trkpt lat="31.7803000" lon="35.0185000">
<ele>264.299988</ele>
<time>2021-05-26T12:50:30.870Z</time>
</trkpt>
<trkpt lat="31.7804400" lon="35.0187800">
<ele>263.190002</ele>
<time>2021-05-26T12:50:30.870Z</time>
</trkpt>
<trkpt lat="31.7805000" lon="35.0189800">
<ele>262.399994</ele>
<time>2021-05-26T12:50:30.871Z</time>
</trkpt>
<trkpt lat="31.7805100" lon="35.0189900">
<ele>262.149994</ele>
<time>2021-05-26T12:50:30.871Z</time>
</trkpt>
<trkpt lat="31.7805000" lon="35.0189900">
<ele>262.399994</ele>
<time>2021-05-26T12:50:30.871Z</time>
</trkpt>
<trkpt lat="31.7805000" lon="35.0189900">
<ele>262.399994</ele>
<time>2021-05-26T12:50:30.871Z</time>
</trkpt>
<trkpt lat="31.7805500" lon="35.0193600">
<ele>262.480011</ele>
<time>2021-05-26T12:50:30.871Z</time>
</trkpt>
<trkpt lat="31.7805500" lon="35.0195600">
<ele>263.479980</ele>
<time>2021-05-26T12:50:30.871Z</time>
</trkpt>
<trkpt lat="31.7805500" lon="35.0197600">
<ele>264.339996</ele>
<time>2021-05-26T12:50:30.871Z</time>
</trkpt>
<trkpt lat="31.7805100" lon="35.0200500">
<ele>266.279999</ele>
<time>2021-05-26T12:50:30.871Z</time>
</trkpt>
<trkpt lat="31.7802900" lon="35.0204900">
<ele>266.179993</ele>
<time>2021-05-26T12:50:30.871Z</time>
</trkpt>
<trkpt lat="31.7797800" lon="35.0213400">
<ele>265.750000</ele>
<time>2021-05-26T12:50:30.871Z</time>
</trkpt>
<trkpt lat="31.7795500" lon="35.0217200">
<ele>264.309998</ele>
<time>2021-05-26T12:50:30.871Z</time>
</trkpt>
<trkpt lat="31.7793700" lon="35.0220700">
<ele>266.389984</ele>
<time>2021-05-26T12:50:30.871Z</time>
</trkpt>
<trkpt lat="31.7791600" lon="35.0225200">
<ele>267.269989</ele>
<time>2021-05-26T12:50:30.871Z</time>
</trkpt>
<trkpt lat="31.7788100" lon="35.0233900">
<ele>270.860016</ele>
<time>2021-05-26T12:50:30.871Z</time>
</trkpt>
<trkpt lat="31.7786600" lon="35.0237200">
<ele>274.040009</ele>
<time>2021-05-26T12:50:30.871Z</time>
</trkpt>
<trkpt lat="31.7785900" lon="35.0238400">
<ele>272.950012</ele>
<time>2021-05-26T12:50:30.871Z</time>
</trkpt>
<trkpt lat="31.7780600" lon="35.0245400">
<ele>273.100006</ele>
<time>2021-05-26T12:50:30.871Z</time>
</trkpt>
<trkpt lat="31.7780100" lon="35.0246200">
<ele>274.139984</ele>
<time>2021-05-26T12:50:30.871Z</time>
</trkpt>
<trkpt lat="31.7779500" lon="35.0248000">
<ele>276.529999</ele>
<time>2021-05-26T12:50:30.871Z</time>
</trkpt>
<trkpt lat="31.7777600" lon="35.0256200">
<ele>280.589996</ele>
<time>2021-05-26T12:50:30.872Z</time>
</trkpt>
<trkpt lat="31.7776900" lon="35.0258000">
<ele>281.489990</ele>
<time>2021-05-26T12:50:30.872Z</time>
</trkpt>
<trkpt lat="31.7776300" lon="35.0258900">
<ele>281.880005</ele>
<time>2021-05-26T12:50:30.872Z</time>
</trkpt>
<trkpt lat="31.7773700" lon="35.0260800">
<ele>285.149994</ele>
<time>2021-05-26T12:50:30.872Z</time>
</trkpt>
<trkpt lat="31.7772600" lon="35.0261800">
<ele>288.410004</ele>
<time>2021-05-26T12:50:30.872Z</time>
</trkpt>
<trkpt lat="31.7772000" lon="35.0262700">
<ele>291.419983</ele>
<time>2021-05-26T12:50:30.872Z</time>
</trkpt>
<trkpt lat="31.7771700" lon="35.0263900">
<ele>294.269989</ele>
<time>2021-05-26T12:50:30.872Z</time>
</trkpt>
<trkpt lat="31.7771700" lon="35.0265600">
<ele>296.639984</ele>
<time>2021-05-26T12:50:30.872Z</time>
</trkpt>
<trkpt lat="31.7771700" lon="35.0266800">
<ele>298.320007</ele>
<time>2021-05-26T12:50:30.872Z</time>
</trkpt>
<trkpt lat="31.7772000" lon="35.0267900">
<ele>299.260010</ele>
<time>2021-05-26T12:50:30.872Z</time>
</trkpt>
<trkpt lat="31.7772500" lon="35.0269100">
<ele>300.589996</ele>
<time>2021-05-26T12:50:30.872Z</time>
</trkpt>
<trkpt lat="31.7773300" lon="35.0270400">
<ele>304.160004</ele>
<time>2021-05-26T12:50:30.872Z</time>
</trkpt>
<trkpt lat="31.7774100" lon="35.0271300">
<ele>306.100006</ele>
<time>2021-05-26T12:50:30.872Z</time>
</trkpt>
<trkpt lat="31.7775200" lon="35.0272000">
<ele>306.480011</ele>
<time>2021-05-26T12:50:30.872Z</time>
</trkpt>
<trkpt lat="31.7781400" lon="35.0274400">
<ele>312.720001</ele>
<time>2021-05-26T12:50:30.872Z</time>
</trkpt>
<trkpt lat="31.7781700" lon="35.0275200">
<ele>313.040009</ele>
<time>2021-05-26T12:50:30.872Z</time>
</trkpt>
<trkpt lat="31.7781800" lon="35.0275800">
<ele>312.579987</ele>
<time>2021-05-26T12:50:30.872Z</time>
</trkpt>
<trkpt lat="31.7781500" lon="35.0281800">
<ele>309.269989</ele>
<time>2021-05-26T12:50:30.872Z</time>
</trkpt>
<trkpt lat="31.7781400" lon="35.0296600">
<ele>310.730011</ele>
<time>2021-05-26T12:50:30.872Z</time>
</trkpt>
<trkpt lat="31.7781100" lon="35.0300400">
<ele>315.019989</ele>
<time>2021-05-26T12:50:30.872Z</time>
</trkpt>
<trkpt lat="31.7780600" lon="35.0302200">
<ele>317.730011</ele>
<time>2021-05-26T12:50:30.872Z</time>
</trkpt>
<trkpt lat="31.7778900" lon="35.0305600">
<ele>316.899994</ele>
<time>2021-05-26T12:50:30.872Z</time>
</trkpt>
<trkpt lat="31.7777500" lon="35.0307600">
<ele>313.769989</ele>
<time>2021-05-26T12:50:30.872Z</time>
</trkpt>
<trkpt lat="31.7776000" lon="35.0308500">
<ele>311.519989</ele>
<time>2021-05-26T12:50:30.872Z</time>
</trkpt>
<trkpt lat="31.7774600" lon="35.0309600">
<ele>312.189972</ele>
<time>2021-05-26T12:50:30.872Z</time>
</trkpt>
<trkpt lat="31.7773200" lon="35.0311500">
<ele>316.599976</ele>
<time>2021-05-26T12:50:30.872Z</time>
</trkpt>
<trkpt lat="31.7772400" lon="35.0313500">
<ele>319.820007</ele>
<time>2021-05-26T12:50:30.873Z</time>
</trkpt>
<trkpt lat="31.7771900" lon="35.0315400">
<ele>323.650024</ele>
<time>2021-05-26T12:50:30.873Z</time>
</trkpt>
<trkpt lat="31.7770400" lon="35.0318900">
<ele>325.600006</ele>
<time>2021-05-26T12:50:30.873Z</time>
</trkpt>
<trkpt lat="31.7768500" lon="35.0320500">
<ele>325.899994</ele>
<time>2021-05-26T12:50:30.873Z</time>
</trkpt>
<trkpt lat="31.7765300" lon="35.0322000">
<ele>328.720001</ele>
<time>2021-05-26T12:50:30.873Z</time>
</trkpt>
<trkpt lat="31.7764100" lon="35.0322500">
<ele>329.829987</ele>
<time>2021-05-26T12:50:30.873Z</time>
</trkpt>
<trkpt lat="31.7763200" lon="35.0322600">
<ele>330.350006</ele>
<time>2021-05-26T12:50:30.873Z</time>
</trkpt>
<trkpt lat="31.7762900" lon="35.0322500">
<ele>330.259979</ele>
<time>2021-05-26T12:50:30.873Z</time>
</trkpt>
<trkpt lat="31.7762800" lon="35.0322100">
<ele>329.760010</ele>
<time>2021-05-26T12:50:30.873Z</time>
</trkpt>
<trkpt lat="31.7762700" lon="35.0321700">
<ele>329.799988</ele>
<time>2021-05-26T12:50:30.873Z</time>
</trkpt>
<trkpt lat="31.7762600" lon="35.0321000">
<ele>329.860016</ele>
<time>2021-05-26T12:50:30.873Z</time>
</trkpt>
<trkpt lat="31.7762600" lon="35.0320600">
<ele>329.839996</ele>
<time>2021-05-26T12:50:30.873Z</time>
</trkpt>
<trkpt lat="31.7761700" lon="35.0320600">
<ele>331.250000</ele>
<time>2021-05-26T12:50:30.873Z</time>
</trkpt>
<trkpt lat="31.7760400" lon="35.0321600">
<ele>333.410004</ele>
<time>2021-05-26T12:50:30.873Z</time>
</trkpt>
<trkpt lat="31.7758100" lon="35.0323200">
<ele>338.250000</ele>
<time>2021-05-26T12:50:30.873Z</time>
</trkpt>
<trkpt lat="31.7756300" lon="35.0324000">
<ele>340.200012</ele>
<time>2021-05-26T12:50:30.873Z</time>
</trkpt>
<trkpt lat="31.7753500" lon="35.0324700">
<ele>341.899994</ele>
<time>2021-05-26T12:50:30.873Z</time>
</trkpt>
<trkpt lat="31.7753200" lon="35.0324700">
<ele>342.029999</ele>
<time>2021-05-26T12:50:30.873Z</time>
</trkpt>
<trkpt lat="31.7753300" lon="35.0324000">
<ele>342.400024</ele>
<time>2021-05-26T12:50:30.873Z</time>
</trkpt>
<trkpt lat="31.7754700" lon="35.0323000">
<ele>341.750000</ele>
<time>2021-05-26T12:50:30.873Z</time>
</trkpt>
<trkpt lat="31.7756100" lon="35.0321700">
<ele>341.500000</ele>
<time>2021-05-26T12:50:30.874Z</time>
</trkpt>
<trkpt lat="31.7756200" lon="35.0321100">
<ele>342.629974</ele>
<time>2021-05-26T12:50:30.874Z</time>
</trkpt>
<trkpt lat="31.7752900" lon="35.0321800">
<ele>345.069977</ele>
<time>2021-05-26T12:50:30.874Z</time>
</trkpt>
<trkpt lat="31.7749000" lon="35.0323100">
<ele>351.520020</ele>
<time>2021-05-26T12:50:30.874Z</time>
</trkpt>
<trkpt lat="31.7747700" lon="35.0323900">
<ele>353.040009</ele>
<time>2021-05-26T12:50:30.874Z</time>
</trkpt>
<trkpt lat="31.7747200" lon="35.0324600">
<ele>352.279999</ele>
<time>2021-05-26T12:50:30.874Z</time>
</trkpt>
<trkpt lat="31.7747000" lon="35.0324900">
<ele>352.570007</ele>
<time>2021-05-26T12:50:30.874Z</time>
</trkpt>
<trkpt lat="31.7746600" lon="35.0325800">
<ele>353.880005</ele>
<time>2021-05-26T12:50:30.874Z</time>
</trkpt>
<trkpt lat="31.7746000" lon="35.0327300">
<ele>355.660004</ele>
<time>2021-05-26T12:50:30.874Z</time>
</trkpt>
<trkpt lat="31.7744800" lon="35.0333000">
<ele>365.610016</ele>
<time>2021-05-26T12:50:30.874Z</time>
</trkpt>
<trkpt lat="31.7744600" lon="35.0335400">
<ele>372.710022</ele>
<time>2021-05-26T12:50:30.874Z</time>
</trkpt>
<trkpt lat="31.7744600" lon="35.0337300">
<ele>380.010010</ele>
<time>2021-05-26T12:50:30.874Z</time>
</trkpt>
<trkpt lat="31.7744700" lon="35.0338300">
<ele>384.380005</ele>
<time>2021-05-26T12:50:30.875Z</time>
</trkpt>
<trkpt lat="31.7745000" lon="35.0338800">
<ele>386.589996</ele>
<time>2021-05-26T12:50:30.875Z</time>
</trkpt>
<trkpt lat="31.7745500" lon="35.0339000">
<ele>387.290009</ele>
<time>2021-05-26T12:50:30.875Z</time>
</trkpt>
<trkpt lat="31.7746100" lon="35.0339100">
<ele>387.589996</ele>
<time>2021-05-26T12:50:30.875Z</time>
</trkpt>
<trkpt lat="31.7746900" lon="35.0338600">
<ele>385.380005</ele>
<time>2021-05-26T12:50:30.875Z</time>
</trkpt>
<trkpt lat="31.7748200" lon="35.0335900">
<ele>372.429993</ele>
<time>2021-05-26T12:50:30.875Z</time>
</trkpt>
<trkpt lat="31.7748800" lon="35.0335000">
<ele>370.809998</ele>
<time>2021-05-26T12:50:30.875Z</time>
</trkpt>
<trkpt lat="31.7750700" lon="35.0333800">
<ele>370.400024</ele>
<time>2021-05-26T12:50:30.875Z</time>
</trkpt>
<trkpt lat="31.7752900" lon="35.0332900">
<ele>370.050018</ele>
<time>2021-05-26T12:50:30.875Z</time>
</trkpt>
<trkpt lat="31.7757500" lon="35.0333800">
<ele>382.019989</ele>
<time>2021-05-26T12:50:30.875Z</time>
</trkpt>
<trkpt lat="31.7760500" lon="35.0335200">
<ele>393.709991</ele>
<time>2021-05-26T12:50:30.875Z</time>
</trkpt>
<trkpt lat="31.7766000" lon="35.0337300">
<ele>387.019989</ele>
<time>2021-05-26T12:50:30.875Z</time>
</trkpt>
<trkpt lat="31.7768300" lon="35.0338700">
<ele>386.830017</ele>
<time>2021-05-26T12:50:30.875Z</time>
</trkpt>
<trkpt lat="31.7769300" lon="35.0339600">
<ele>388.440002</ele>
<time>2021-05-26T12:50:30.875Z</time>
</trkpt>
<trkpt lat="31.7769700" lon="35.0340100">
<ele>387.970001</ele>
<time>2021-05-26T12:50:30.875Z</time>
</trkpt>
<trkpt lat="31.7770100" lon="35.0341100">
<ele>388.049988</ele>
<time>2021-05-26T12:50:30.875Z</time>
</trkpt>
<trkpt lat="31.7771400" lon="35.0350100">
<ele>399.770020</ele>
<time>2021-05-26T12:50:30.876Z</time>
</trkpt>
<trkpt lat="31.7771800" lon="35.0352400">
<ele>405.529999</ele>
<time>2021-05-26T12:50:30.876Z</time>
</trkpt>
<trkpt lat="31.7772800" lon="35.0356500">
<ele>411.750000</ele>
<time>2021-05-26T12:50:30.876Z</time>
</trkpt>
<trkpt lat="31.7773400" lon="35.0358100">
<ele>413.290009</ele>
<time>2021-05-26T12:50:30.876Z</time>
</trkpt>
<trkpt lat="31.7773900" lon="35.0358800">
<ele>413.369995</ele>
<time>2021-05-26T12:50:30.876Z</time>
</trkpt>
<trkpt lat="31.7777100" lon="35.0362600">
<ele>418.390015</ele>
<time>2021-05-26T12:50:30.876Z</time>
</trkpt>
<trkpt lat="31.7777800" lon="35.0363700">
<ele>420.380005</ele>
<time>2021-05-26T12:50:30.876Z</time>
</trkpt>
<trkpt lat="31.7779300" lon="35.0366900">
<ele>422.589996</ele>
<time>2021-05-26T12:50:30.876Z</time>
</trkpt>
<trkpt lat="31.7780000" lon="35.0368800">
<ele>424.699982</ele>
<time>2021-05-26T12:50:30.876Z</time>
</trkpt>
<trkpt lat="31.7781500" lon="35.0373500">
<ele>429.080017</ele>
<time>2021-05-26T12:50:30.876Z</time>
</trkpt>
<trkpt lat="31.7784800" lon="35.0380900">
<ele>425.950012</ele>
<time>2021-05-26T12:50:30.876Z</time>
</trkpt>
<trkpt lat="31.7786100" lon="35.0386400">
<ele>435.880005</ele>
<time>2021-05-26T12:50:30.876Z</time>
</trkpt>
<trkpt lat="31.7788900" lon="35.0395900">
<ele>444.750000</ele>
<time>2021-05-26T12:50:30.876Z</time>
</trkpt>
<trkpt lat="31.7789400" lon="35.0397500">
<ele>447.849976</ele>
<time>2021-05-26T12:50:30.876Z</time>
</trkpt>
<trkpt lat="31.7790200" lon="35.0398700">
<ele>447.140015</ele>
<time>2021-05-26T12:50:30.876Z</time>
</trkpt>
<trkpt lat="31.7790700" lon="35.0399200">
<ele>447.739990</ele>
<time>2021-05-26T12:50:30.876Z</time>
</trkpt>
<trkpt lat="31.7793300" lon="35.0400200">
<ele>444.389984</ele>
<time>2021-05-26T12:50:30.876Z</time>
</trkpt>
<trkpt lat="31.7794200" lon="35.0400900">
<ele>444.209991</ele>
<time>2021-05-26T12:50:30.876Z</time>
</trkpt>
<trkpt lat="31.7796800" lon="35.0404300">
<ele>460.529999</ele>
<time>2021-05-26T12:50:30.877Z</time>
</trkpt>
<trkpt lat="31.7797500" lon="35.0405100">
<ele>462.959991</ele>
<time>2021-05-26T12:50:30.877Z</time>
</trkpt>
<trkpt lat="31.7798200" lon="35.0405400">
<ele>463.170013</ele>
<time>2021-05-26T12:50:30.877Z</time>
</trkpt>
<trkpt lat="31.7801300" lon="35.0406100">
<ele>462.489990</ele>
<time>2021-05-26T12:50:30.877Z</time>
</trkpt>
<trkpt lat="31.7802600" lon="35.0406800">
<ele>463.000031</ele>
<time>2021-05-26T12:50:30.877Z</time>
</trkpt>
<trkpt lat="31.7804500" lon="35.0408700">
<ele>464.720001</ele>
<time>2021-05-26T12:50:30.877Z</time>
</trkpt>
<trkpt lat="31.7806800" lon="35.0410300">
<ele>470.769989</ele>
<time>2021-05-26T12:50:30.877Z</time>
</trkpt>
<trkpt lat="31.7810200" lon="35.0412100">
<ele>470.230011</ele>
<time>2021-05-26T12:50:30.877Z</time>
</trkpt>
<trkpt lat="31.7813700" lon="35.0413300">
<ele>455.460022</ele>
<time>2021-05-26T12:50:30.877Z</time>
</trkpt>
<trkpt lat="31.7814100" lon="35.0413700">
<ele>454.540009</ele>
<time>2021-05-26T12:50:30.877Z</time>
</trkpt>
<trkpt lat="31.7814800" lon="35.0414600">
<ele>454.040009</ele>
<time>2021-05-26T12:50:30.877Z</time>
</trkpt>
<trkpt lat="31.7816500" lon="35.0418700">
<ele>462.520020</ele>
<time>2021-05-26T12:50:30.877Z</time>
</trkpt>
<trkpt lat="31.7817400" lon="35.0419400">
<ele>462.760010</ele>
<time>2021-05-26T12:50:30.877Z</time>
</trkpt>
<trkpt lat="31.7821900" lon="35.0421000">
<ele>456.289978</ele>
<time>2021-05-26T12:50:30.877Z</time>
</trkpt>
<trkpt lat="31.7822500" lon="35.0421600">
<ele>456.600006</ele>
<time>2021-05-26T12:50:30.877Z</time>
</trkpt>
<trkpt lat="31.7822800" lon="35.0422100">
<ele>457.080017</ele>
<time>2021-05-26T12:50:30.877Z</time>
</trkpt>
<trkpt lat="31.7823200" lon="35.0423200">
<ele>458.259979</ele>
<time>2021-05-26T12:50:30.877Z</time>
</trkpt>
<trkpt lat="31.7823400" lon="35.0424500">
<ele>460.880005</ele>
<time>2021-05-26T12:50:30.877Z</time>
</trkpt>
<trkpt lat="31.7823700" lon="35.0432900">
<ele>479.290009</ele>
<time>2021-05-26T12:50:30.877Z</time>
</trkpt>
<trkpt lat="31.7824300" lon="35.0438700">
<ele>488.649994</ele>
<time>2021-05-26T12:50:30.877Z</time>
</trkpt>
<trkpt lat="31.7824600" lon="35.0439700">
<ele>487.209991</ele>
<time>2021-05-26T12:50:30.877Z</time>
</trkpt>
<trkpt lat="31.7827000" lon="35.0445900">
<ele>480.339996</ele>
<time>2021-05-26T12:50:30.877Z</time>
</trkpt>
<trkpt lat="31.7828400" lon="35.0451900">
<ele>487.520020</ele>
<time>2021-05-26T12:50:30.877Z</time>
</trkpt>
<trkpt lat="31.7828500" lon="35.0453500">
<ele>490.709991</ele>
<time>2021-05-26T12:50:30.877Z</time>
</trkpt>
<trkpt lat="31.7828500" lon="35.0455400">
<ele>494.160004</ele>
<time>2021-05-26T12:50:30.877Z</time>
</trkpt>
<trkpt lat="31.7827900" lon="35.0459500">
<ele>498.209991</ele>
<time>2021-05-26T12:50:30.877Z</time>
</trkpt>
<trkpt lat="31.7826900" lon="35.0465000">
<ele>498.530029</ele>
<time>2021-05-26T12:50:30.877Z</time>
</trkpt>
<trkpt lat="31.7826400" lon="35.0473700">
<ele>505.800018</ele>
<time>2021-05-26T12:50:30.877Z</time>
</trkpt>
<trkpt lat="31.7826400" lon="35.0478900">
<ele>508.790009</ele>
<time>2021-05-26T12:50:30.878Z</time>
</trkpt>
<trkpt lat="31.7826600" lon="35.0483500">
<ele>510.750000</ele>
<time>2021-05-26T12:50:30.878Z</time>
</trkpt>
<trkpt lat="31.7827500" lon="35.0488600">
<ele>512.239990</ele>
<time>2021-05-26T12:50:30.878Z</time>
</trkpt>
<trkpt lat="31.7830400" lon="35.0497500">
<ele>518.770020</ele>
<time>2021-05-26T12:50:30.878Z</time>
</trkpt>
<trkpt lat="31.7830900" lon="35.0500700">
<ele>521.289978</ele>
<time>2021-05-26T12:50:30.878Z</time>
</trkpt>
<trkpt lat="31.7831000" lon="35.0508700">
<ele>533.520020</ele>
<time>2021-05-26T12:50:30.878Z</time>
</trkpt>
<trkpt lat="31.7830900" lon="35.0509200">
<ele>534.530029</ele>
<time>2021-05-26T12:50:30.878Z</time>
</trkpt>
<trkpt lat="31.7830800" lon="35.0513600">
<ele>540.470032</ele>
<time>2021-05-26T12:50:30.878Z</time>
</trkpt>
<trkpt lat="31.7830700" lon="35.0517800">
<ele>543.570007</ele>
<time>2021-05-26T12:50:30.878Z</time>
</trkpt>
<trkpt lat="31.7830500" lon="35.0526400">
<ele>542.299988</ele>
<time>2021-05-26T12:50:30.878Z</time>
</trkpt>
<trkpt lat="31.7830400" lon="35.0529900">
<ele>541.059998</ele>
<time>2021-05-26T12:50:30.878Z</time>
</trkpt>
<trkpt lat="31.7830200" lon="35.0531000">
<ele>540.760010</ele>
<time>2021-05-26T12:50:30.879Z</time>
</trkpt>
<trkpt lat="31.7829900" lon="35.0533000">
<ele>539.299988</ele>
<time>2021-05-26T12:50:30.879Z</time>
</trkpt>
<trkpt lat="31.7829200" lon="35.0535400">
<ele>540.159973</ele>
<time>2021-05-26T12:50:30.879Z</time>
</trkpt>
<trkpt lat="31.7826800" lon="35.0541000">
<ele>547.039978</ele>
<time>2021-05-26T12:50:30.879Z</time>
</trkpt>
<trkpt lat="31.7826400" lon="35.0542200">
<ele>548.070007</ele>
<time>2021-05-26T12:50:30.879Z</time>
</trkpt>
<trkpt lat="31.7824900" lon="35.0548600">
<ele>550.309998</ele>
<time>2021-05-26T12:50:30.879Z</time>
</trkpt>
<trkpt lat="31.7823800" lon="35.0550900">
<ele>549.980042</ele>
<time>2021-05-26T12:50:30.879Z</time>
</trkpt>
<trkpt lat="31.7823000" lon="35.0551700">
<ele>549.659973</ele>
<time>2021-05-26T12:50:30.879Z</time>
</trkpt>
<trkpt lat="31.7822200" lon="35.0552300">
<ele>549.419983</ele>
<time>2021-05-26T12:50:30.879Z</time>
</trkpt>
<trkpt lat="31.7820400" lon="35.0553000">
<ele>551.460022</ele>
<time>2021-05-26T12:50:30.879Z</time>
</trkpt>
<trkpt lat="31.7818900" lon="35.0553300">
<ele>553.440002</ele>
<time>2021-05-26T12:50:30.879Z</time>
</trkpt>
<trkpt lat="31.7817700" lon="35.0553300">
<ele>555.520020</ele>
<time>2021-05-26T12:50:30.879Z</time>
</trkpt>
<trkpt lat="31.7811000" lon="35.0552900">
<ele>575.710022</ele>
<time>2021-05-26T12:50:30.879Z</time>
</trkpt>
<trkpt lat="31.7806600" lon="35.0552900">
<ele>583.010010</ele>
<time>2021-05-26T12:50:30.879Z</time>
</trkpt>
<trkpt lat="31.7803500" lon="35.0552900">
<ele>584.790039</ele>
<time>2021-05-26T12:50:30.879Z</time>
</trkpt>
<trkpt lat="31.7802800" lon="35.0552900">
<ele>584.869995</ele>
<time>2021-05-26T12:50:30.879Z</time>
</trkpt>
<trkpt lat="31.7802200" lon="35.0553300">
<ele>583.890015</ele>
<time>2021-05-26T12:50:30.879Z</time>
</trkpt>
<trkpt lat="31.7800800" lon="35.0556200">
<ele>580.260010</ele>
<time>2021-05-26T12:50:30.879Z</time>
</trkpt>
<trkpt lat="31.7796200" lon="35.0566500">
<ele>574.040039</ele>
<time>2021-05-26T12:50:30.879Z</time>
</trkpt>
<trkpt lat="31.7792500" lon="35.0573600">
<ele>574.349976</ele>
<time>2021-05-26T12:50:30.879Z</time>
</trkpt>
<trkpt lat="31.7790700" lon="35.0578300">
<ele>575.419983</ele>
<time>2021-05-26T12:50:30.879Z</time>
</trkpt>
<trkpt lat="31.7790700" lon="35.0579400">
<ele>574.750000</ele>
<time>2021-05-26T12:50:30.879Z</time>
</trkpt>
<trkpt lat="31.7790700" lon="35.0580600">
<ele>574.080017</ele>
<time>2021-05-26T12:50:30.880Z</time>
</trkpt>
<trkpt lat="31.7790900" lon="35.0581600">
<ele>574.750000</ele>
<time>2021-05-26T12:50:30.880Z</time>
</trkpt>
<trkpt lat="31.7791500" lon="35.0581900">
<ele>574.570007</ele>
<time>2021-05-26T12:50:30.880Z</time>
</trkpt>
<trkpt lat="31.7792100" lon="35.0581900">
<ele>573.910034</ele>
<time>2021-05-26T12:50:30.880Z</time>
</trkpt>
<trkpt lat="31.7793400" lon="35.0581900">
<ele>572.280029</ele>
<time>2021-05-26T12:50:30.880Z</time>
</trkpt>
<trkpt lat="31.7795800" lon="35.0581600">
<ele>570.940002</ele>
<time>2021-05-26T12:50:30.880Z</time>
</trkpt>
<trkpt lat="31.7797900" lon="35.0581500">
<ele>572.160034</ele>
<time>2021-05-26T12:50:30.880Z</time>
</trkpt>
<trkpt lat="31.7799400" lon="35.0581500">
<ele>574.669983</ele>
<time>2021-05-26T12:50:30.880Z</time>
</trkpt>
<trkpt lat="31.7800300" lon="35.0581700">
<ele>575.960022</ele>
<time>2021-05-26T12:50:30.880Z</time>
</trkpt>
<trkpt lat="31.7802000" lon="35.0582600">
<ele>578.059998</ele>
<time>2021-05-26T12:50:30.880Z</time>
</trkpt>
<trkpt lat="31.7802300" lon="35.0582900">
<ele>578.780029</ele>
<time>2021-05-26T12:50:30.880Z</time>
</trkpt>
<trkpt lat="31.7803000" lon="35.0584000">
<ele>579.559998</ele>
<time>2021-05-26T12:50:30.880Z</time>
</trkpt>
<trkpt lat="31.7803600" lon="35.0585700">
<ele>579.440002</ele>
<time>2021-05-26T12:50:30.880Z</time>
</trkpt>
<trkpt lat="31.7804000" lon="35.0588300">
<ele>582.619995</ele>
<time>2021-05-26T12:50:30.880Z</time>
</trkpt>
<trkpt lat="31.7804000" lon="35.0590300">
<ele>584.679993</ele>
<time>2021-05-26T12:50:30.880Z</time>
</trkpt>
<trkpt lat="31.7804000" lon="35.0593800">
<ele>585.969971</ele>
<time>2021-05-26T12:50:30.880Z</time>
</trkpt>
<trkpt lat="31.7804000" lon="35.0596500">
<ele>586.739990</ele>
<time>2021-05-26T12:50:30.880Z</time>
</trkpt>
<trkpt lat="31.7802600" lon="35.0608800">
<ele>582.720032</ele>
<time>2021-05-26T12:50:30.880Z</time>
</trkpt>
<trkpt lat="31.7801800" lon="35.0612200">
<ele>580.030029</ele>
<time>2021-05-26T12:50:30.880Z</time>
</trkpt>
<trkpt lat="31.7801100" lon="35.0614500">
<ele>580.179993</ele>
<time>2021-05-26T12:50:30.880Z</time>
</trkpt>
<trkpt lat="31.7799100" lon="35.0619500">
<ele>589.989990</ele>
<time>2021-05-26T12:50:30.880Z</time>
</trkpt>
<trkpt lat="31.7796800" lon="35.0624200">
<ele>590.979980</ele>
<time>2021-05-26T12:50:30.880Z</time>
</trkpt>
<trkpt lat="31.7794000" lon="35.0629100">
<ele>592.119995</ele>
<time>2021-05-26T12:50:30.880Z</time>
</trkpt>
<trkpt lat="31.7790600" lon="35.0637600">
<ele>595.790039</ele>
<time>2021-05-26T12:50:30.880Z</time>
</trkpt>
<trkpt lat="31.7789800" lon="35.0640500">
<ele>599.049988</ele>
<time>2021-05-26T12:50:30.880Z</time>
</trkpt>
<trkpt lat="31.7789700" lon="35.0643000">
<ele>601.149963</ele>
<time>2021-05-26T12:50:30.881Z</time>
</trkpt>
<trkpt lat="31.7789800" lon="35.0644200">
<ele>601.839966</ele>
<time>2021-05-26T12:50:30.881Z</time>
</trkpt>
<trkpt lat="31.7790000" lon="35.0645000">
<ele>602.600037</ele>
<time>2021-05-26T12:50:30.881Z</time>
</trkpt>
<trkpt lat="31.7790500" lon="35.0645400">
<ele>602.640015</ele>
<time>2021-05-26T12:50:30.881Z</time>
</trkpt>
<trkpt lat="31.7790900" lon="35.0645500">
<ele>602.349976</ele>
<time>2021-05-26T12:50:30.881Z</time>
</trkpt>
<trkpt lat="31.7791600" lon="35.0645600">
<ele>601.739990</ele>
<time>2021-05-26T12:50:30.881Z</time>
</trkpt>
<trkpt lat="31.7792200" lon="35.0645500">
<ele>600.250000</ele>
<time>2021-05-26T12:50:30.881Z</time>
</trkpt>
<trkpt lat="31.7804300" lon="35.0638100">
<ele>591.299988</ele>
<time>2021-05-26T12:50:30.881Z</time>
</trkpt>
<trkpt lat="31.7808200" lon="35.0637200">
<ele>597.070007</ele>
<time>2021-05-26T12:50:30.881Z</time>
</trkpt>
<trkpt lat="31.7809100" lon="35.0637200">
<ele>598.330017</ele>
<time>2021-05-26T12:50:30.881Z</time>
</trkpt>
<trkpt lat="31.7809800" lon="35.0637500">
<ele>599.349976</ele>
<time>2021-05-26T12:50:30.881Z</time>
</trkpt>
<trkpt lat="31.7810000" lon="35.0637800">
<ele>599.770020</ele>
<time>2021-05-26T12:50:30.881Z</time>
</trkpt>
<trkpt lat="31.7810400" lon="35.0638600">
<ele>600.789978</ele>
<time>2021-05-26T12:50:30.881Z</time>
</trkpt>
<trkpt lat="31.7810600" lon="35.0642000">
<ele>601.239990</ele>
<time>2021-05-26T12:50:30.881Z</time>
</trkpt>
<trkpt lat="31.7810700" lon="35.0642800">
<ele>601.789978</ele>
<time>2021-05-26T12:50:30.881Z</time>
</trkpt>
<trkpt lat="31.7810700" lon="35.0647600">
<ele>603.619995</ele>
<time>2021-05-26T12:50:30.881Z</time>
</trkpt>
<trkpt lat="31.7810700" lon="35.0651100">
<ele>605.250000</ele>
<time>2021-05-26T12:50:30.881Z</time>
</trkpt>
<trkpt lat="31.7810700" lon="35.0655800">
<ele>610.619995</ele>
<time>2021-05-26T12:50:30.881Z</time>
</trkpt>
<trkpt lat="31.7810600" lon="35.0657500">
<ele>612.910034</ele>
<time>2021-05-26T12:50:30.881Z</time>
</trkpt>
<trkpt lat="31.7810100" lon="35.0660900">
<ele>611.899963</ele>
<time>2021-05-26T12:50:30.881Z</time>
</trkpt>
<trkpt lat="31.7809100" lon="35.0663200">
<ele>612.450012</ele>
<time>2021-05-26T12:50:30.881Z</time>
</trkpt>
<trkpt lat="31.7808100" lon="35.0664900">
<ele>613.020020</ele>
<time>2021-05-26T12:50:30.881Z</time>
</trkpt>
<trkpt lat="31.7802500" lon="35.0672800">
<ele>606.609985</ele>
<time>2021-05-26T12:50:30.881Z</time>
</trkpt>
<trkpt lat="31.7801700" lon="35.0674700">
<ele>608.440002</ele>
<time>2021-05-26T12:50:30.881Z</time>
</trkpt>
<trkpt lat="31.7801600" lon="35.0675900">
<ele>609.020020</ele>
<time>2021-05-26T12:50:30.881Z</time>
</trkpt>
<trkpt lat="31.7801600" lon="35.0677000">
<ele>609.419983</ele>
<time>2021-05-26T12:50:30.881Z</time>
</trkpt>
<trkpt lat="31.7801700" lon="35.0678300">
<ele>608.899963</ele>
<time>2021-05-26T12:50:30.881Z</time>
</trkpt>
<trkpt lat="31.7801900" lon="35.0678800">
<ele>607.890015</ele>
<time>2021-05-26T12:50:30.881Z</time>
</trkpt>
<trkpt lat="31.7802900" lon="35.0683300">
<ele>600.849976</ele>
<time>2021-05-26T12:50:30.882Z</time>
</trkpt>
<trkpt lat="31.7803200" lon="35.0685100">
<ele>599.850037</ele>
<time>2021-05-26T12:50:30.882Z</time>
</trkpt>
<trkpt lat="31.7803200" lon="35.0687100">
<ele>598.830017</ele>
<time>2021-05-26T12:50:30.882Z</time>
</trkpt>
<trkpt lat="31.7802800" lon="35.0693400">
<ele>592.559998</ele>
<time>2021-05-26T12:50:30.882Z</time>
</trkpt>
<trkpt lat="31.7802000" lon="35.0698200">
<ele>592.549988</ele>
<time>2021-05-26T12:50:30.882Z</time>
</trkpt>
<trkpt lat="31.7801500" lon="35.0699700">
<ele>591.250000</ele>
<time>2021-05-26T12:50:30.882Z</time>
</trkpt>
<trkpt lat="31.7800800" lon="35.0701100">
<ele>590.119995</ele>
<time>2021-05-26T12:50:30.882Z</time>
</trkpt>
<trkpt lat="31.7795100" lon="35.0711000">
<ele>588.609985</ele>
<time>2021-05-26T12:50:30.882Z</time>
</trkpt>
<trkpt lat="31.7794500" lon="35.0713100">
<ele>588.960022</ele>
<time>2021-05-26T12:50:30.882Z</time>
</trkpt>
<trkpt lat="31.7794400" lon="35.0715600">
<ele>589.049988</ele>
<time>2021-05-26T12:50:30.882Z</time>
</trkpt>
<trkpt lat="31.7794400" lon="35.0721900">
<ele>589.970032</ele>
<time>2021-05-26T12:50:30.882Z</time>
</trkpt>
<trkpt lat="31.7794200" lon="35.0725000">
<ele>587.350037</ele>
<time>2021-05-26T12:50:30.882Z</time>
</trkpt>
<trkpt lat="31.7793700" lon="35.0730600">
<ele>590.380005</ele>
<time>2021-05-26T12:50:30.882Z</time>
</trkpt>
<trkpt lat="31.7793700" lon="35.0733200">
<ele>592.690002</ele>
<time>2021-05-26T12:50:30.882Z</time>
</trkpt>
<trkpt lat="31.7793700" lon="35.0734600">
<ele>593.839966</ele>
<time>2021-05-26T12:50:30.882Z</time>
</trkpt>
<trkpt lat="31.7797300" lon="35.0742100">
<ele>590.169983</ele>
<time>2021-05-26T12:50:30.882Z</time>
</trkpt>
<trkpt lat="31.7797800" lon="35.0745200">
<ele>586.130005</ele>
<time>2021-05-26T12:50:30.882Z</time>
</trkpt>
<trkpt lat="31.7797800" lon="35.0747600">
<ele>583.979980</ele>
<time>2021-05-26T12:50:30.882Z</time>
</trkpt>
<trkpt lat="31.7797700" lon="35.0748900">
<ele>582.820007</ele>
<time>2021-05-26T12:50:30.882Z</time>
</trkpt>
<trkpt lat="31.7797300" lon="35.0752500">
<ele>581.989990</ele>
<time>2021-05-26T12:50:30.882Z</time>
</trkpt>
<trkpt lat="31.7796300" lon="35.0756100">
<ele>582.940002</ele>
<time>2021-05-26T12:50:30.882Z</time>
</trkpt>
<trkpt lat="31.7795500" lon="35.0757700">
<ele>581.410034</ele>
<time>2021-05-26T12:50:30.882Z</time>
</trkpt>
<trkpt lat="31.7793600" lon="35.0760000">
<ele>577.899963</ele>
<time>2021-05-26T12:50:30.882Z</time>
</trkpt>
<trkpt lat="31.7789700" lon="35.0763200">
<ele>578.950012</ele>
<time>2021-05-26T12:50:30.882Z</time>
</trkpt>
<trkpt lat="31.7788900" lon="35.0764400">
<ele>580.349976</ele>
<time>2021-05-26T12:50:30.882Z</time>
</trkpt>
<trkpt lat="31.7788800" lon="35.0765500">
<ele>581.299988</ele>
<time>2021-05-26T12:50:30.882Z</time>
</trkpt>
<trkpt lat="31.7788900" lon="35.0766700">
<ele>581.989990</ele>
<time>2021-05-26T12:50:30.882Z</time>
</trkpt>
<trkpt lat="31.7789000" lon="35.0767800">
<ele>582.210022</ele>
<time>2021-05-26T12:50:30.883Z</time>
</trkpt>
<trkpt lat="31.7790900" lon="35.0773500">
<ele>580.840027</ele>
<time>2021-05-26T12:50:30.883Z</time>
</trkpt>
<trkpt lat="31.7791100" lon="35.0776000">
<ele>580.659973</ele>
<time>2021-05-26T12:50:30.883Z</time>
</trkpt>
<trkpt lat="31.7791200" lon="35.0779000">
<ele>578.820007</ele>
<time>2021-05-26T12:50:30.883Z</time>
</trkpt>
<trkpt lat="31.7791100" lon="35.0783900">
<ele>578.270020</ele>
<time>2021-05-26T12:50:30.883Z</time>
</trkpt>
<trkpt lat="31.7791100" lon="35.0784800">
<ele>578.329956</ele>
<time>2021-05-26T12:50:30.883Z</time>
</trkpt>
<trkpt lat="31.7791300" lon="35.0785500">
<ele>577.890015</ele>
<time>2021-05-26T12:50:30.883Z</time>
</trkpt>
<trkpt lat="31.7791700" lon="35.0785700">
<ele>576.959961</ele>
<time>2021-05-26T12:50:30.883Z</time>
</trkpt>
<trkpt lat="31.7792300" lon="35.0785700">
<ele>576.149963</ele>
<time>2021-05-26T12:50:30.883Z</time>
</trkpt>
<trkpt lat="31.7793300" lon="35.0785600">
<ele>574.700012</ele>
<time>2021-05-26T12:50:30.883Z</time>
</trkpt>
<trkpt lat="31.7801500" lon="35.0780700">
<ele>560.479980</ele>
<time>2021-05-26T12:50:30.883Z</time>
</trkpt>
<trkpt lat="31.7803000" lon="35.0779900">
<ele>561.369995</ele>
<time>2021-05-26T12:50:30.883Z</time>
</trkpt>
<trkpt lat="31.7805100" lon="35.0779300">
<ele>566.479980</ele>
<time>2021-05-26T12:50:30.883Z</time>
</trkpt>
<trkpt lat="31.7810600" lon="35.0779000">
<ele>569.980042</ele>
<time>2021-05-26T12:50:30.883Z</time>
</trkpt>
<trkpt lat="31.7812200" lon="35.0779000">
<ele>569.960022</ele>
<time>2021-05-26T12:50:30.883Z</time>
</trkpt>
<trkpt lat="31.7814400" lon="35.0779300">
<ele>570.700012</ele>
<time>2021-05-26T12:50:30.883Z</time>
</trkpt>
<trkpt lat="31.7816800" lon="35.0780300">
<ele>570.469971</ele>
<time>2021-05-26T12:50:30.883Z</time>
</trkpt>
<trkpt lat="31.7818000" lon="35.0781500">
<ele>569.799988</ele>
<time>2021-05-26T12:50:30.883Z</time>
</trkpt>
<trkpt lat="31.7819400" lon="35.0783600">
<ele>569.489990</ele>
<time>2021-05-26T12:50:30.883Z</time>
</trkpt>
<trkpt lat="31.7823200" lon="35.0789800">
<ele>569.530029</ele>
<time>2021-05-26T12:50:30.883Z</time>
</trkpt>
<trkpt lat="31.7825000" lon="35.0792100">
<ele>572.309998</ele>
<time>2021-05-26T12:50:30.883Z</time>
</trkpt>
<trkpt lat="31.7825800" lon="35.0792800">
<ele>571.090027</ele>
<time>2021-05-26T12:50:30.883Z</time>
</trkpt>
<trkpt lat="31.7827100" lon="35.0793500">
<ele>568.780029</ele>
<time>2021-05-26T12:50:30.883Z</time>
</trkpt>
<trkpt lat="31.7830200" lon="35.0794800">
<ele>561.179993</ele>
<time>2021-05-26T12:50:30.883Z</time>
</trkpt>
<trkpt lat="31.7832800" lon="35.0796300">
<ele>554.480042</ele>
<time>2021-05-26T12:50:30.883Z</time>
</trkpt>
<trkpt lat="31.7834100" lon="35.0797700">
<ele>552.859985</ele>
<time>2021-05-26T12:50:30.883Z</time>
</trkpt>
<trkpt lat="31.7834700" lon="35.0798900">
<ele>552.859985</ele>
<time>2021-05-26T12:50:30.883Z</time>
</trkpt>
<trkpt lat="31.7834900" lon="35.0800900">
<ele>553.700012</ele>
<time>2021-05-26T12:50:30.884Z</time>
</trkpt>
<trkpt lat="31.7835000" lon="35.0804300">
<ele>553.359985</ele>
<time>2021-05-26T12:50:30.884Z</time>
</trkpt>
<trkpt lat="31.7834700" lon="35.0810600">
<ele>552.980042</ele>
<time>2021-05-26T12:50:30.884Z</time>
</trkpt>
<trkpt lat="31.7834600" lon="35.0812000">
<ele>552.770020</ele>
<time>2021-05-26T12:50:30.884Z</time>
</trkpt>
<trkpt lat="31.7830200" lon="35.0825400">
<ele>549.850037</ele>
<time>2021-05-26T12:50:30.884Z</time>
</trkpt>
<trkpt lat="31.7823100" lon="35.0845000">
<ele>557.080017</ele>
<time>2021-05-26T12:50:30.884Z</time>
</trkpt>
<trkpt lat="31.7822800" lon="35.0847000">
<ele>557.059998</ele>
<time>2021-05-26T12:50:30.884Z</time>
</trkpt>
<trkpt lat="31.7822800" lon="35.0848600">
<ele>557.229980</ele>
<time>2021-05-26T12:50:30.884Z</time>
</trkpt>
<trkpt lat="31.7822900" lon="35.0849700">
<ele>557.630005</ele>
<time>2021-05-26T12:50:30.884Z</time>
</trkpt>
<trkpt lat="31.7823100" lon="35.0851600">
<ele>560.150024</ele>
<time>2021-05-26T12:50:30.884Z</time>
</trkpt>
<trkpt lat="31.7824300" lon="35.0850800">
<ele>561.960022</ele>
<time>2021-05-26T12:50:30.884Z</time>
</trkpt>
<trkpt lat="31.7824700" lon="35.0850400">
<ele>562.559998</ele>
<time>2021-05-26T12:50:30.884Z</time>
</trkpt>
<trkpt lat="31.7826400" lon="35.0842600">
<ele>553.520020</ele>
<time>2021-05-26T12:50:30.884Z</time>
</trkpt>
<trkpt lat="31.7828600" lon="35.0837200">
<ele>550.070007</ele>
<time>2021-05-26T12:50:30.884Z</time>
</trkpt>
<trkpt lat="31.7830900" lon="35.0832200">
<ele>551.750000</ele>
<time>2021-05-26T12:50:30.884Z</time>
</trkpt>
<trkpt lat="31.7832000" lon="35.0830300">
<ele>553.540039</ele>
<time>2021-05-26T12:50:30.884Z</time>
</trkpt>
<trkpt lat="31.7836400" lon="35.0823300">
<ele>553.179993</ele>
<time>2021-05-26T12:50:30.884Z</time>
</trkpt>
<trkpt lat="31.7838700" lon="35.0819500">
<ele>550.299988</ele>
<time>2021-05-26T12:50:30.884Z</time>
</trkpt>
<trkpt lat="31.7842000" lon="35.0814900">
<ele>554.250000</ele>
<time>2021-05-26T12:50:30.884Z</time>
</trkpt>
<trkpt lat="31.7844300" lon="35.0810700">
<ele>558.229980</ele>
<time>2021-05-26T12:50:30.884Z</time>
</trkpt>
<trkpt lat="31.7847100" lon="35.0804900">
<ele>566.059998</ele>
<time>2021-05-26T12:50:30.884Z</time>
</trkpt>
<trkpt lat="31.7848100" lon="35.0802600">
<ele>566.750000</ele>
<time>2021-05-26T12:50:30.884Z</time>
</trkpt>
<trkpt lat="31.7850300" lon="35.0798200">
<ele>570.409973</ele>
<time>2021-05-26T12:50:30.884Z</time>
</trkpt>
<trkpt lat="31.7855600" lon="35.0786900">
<ele>585.690002</ele>
<time>2021-05-26T12:50:30.884Z</time>
</trkpt>
<trkpt lat="31.7856000" lon="35.0786200">
<ele>585.649963</ele>
<time>2021-05-26T12:50:30.884Z</time>
</trkpt>
<trkpt lat="31.7856800" lon="35.0785500">
<ele>585.419983</ele>
<time>2021-05-26T12:50:30.884Z</time>
</trkpt>
<trkpt lat="31.7857200" lon="35.0785500">
<ele>585.169983</ele>
<time>2021-05-26T12:50:30.884Z</time>
</trkpt>
<trkpt lat="31.7857900" lon="35.0785400">
<ele>584.780029</ele>
<time>2021-05-26T12:50:30.884Z</time>
</trkpt>
<trkpt lat="31.7858200" lon="35.0785600">
<ele>584.459961</ele>
<time>2021-05-26T12:50:30.885Z</time>
</trkpt>
<trkpt lat="31.7858900" lon="35.0786000">
<ele>582.820007</ele>
<time>2021-05-26T12:50:30.885Z</time>
</trkpt>
<trkpt lat="31.7860600" lon="35.0788700">
<ele>579.859985</ele>
<time>2021-05-26T12:50:30.885Z</time>
</trkpt>
<trkpt lat="31.7864600" lon="35.0795700">
<ele>579.959961</ele>
<time>2021-05-26T12:50:30.885Z</time>
</trkpt>
<trkpt lat="31.7865800" lon="35.0797700">
<ele>579.109985</ele>
<time>2021-05-26T12:50:30.885Z</time>
</trkpt>
<trkpt lat="31.7867400" lon="35.0800000">
<ele>578.469971</ele>
<time>2021-05-26T12:50:30.885Z</time>
</trkpt>
<trkpt lat="31.7870100" lon="35.0802700">
<ele>580.109985</ele>
<time>2021-05-26T12:50:30.885Z</time>
</trkpt>
<trkpt lat="31.7875600" lon="35.0807300">
<ele>592.419983</ele>
<time>2021-05-26T12:50:30.885Z</time>
</trkpt>
<trkpt lat="31.7878600" lon="35.0810200">
<ele>591.789978</ele>
<time>2021-05-26T12:50:30.885Z</time>
</trkpt>
<trkpt lat="31.7880000" lon="35.0811200">
<ele>591.549988</ele>
<time>2021-05-26T12:50:30.885Z</time>
</trkpt>
<trkpt lat="31.7888300" lon="35.0815500">
<ele>581.989990</ele>
<time>2021-05-26T12:50:30.885Z</time>
</trkpt>
<trkpt lat="31.7888700" lon="35.0815700">
<ele>581.380005</ele>
<time>2021-05-26T12:50:30.885Z</time>
</trkpt>
<trkpt lat="31.7889700" lon="35.0815900">
<ele>580.479980</ele>
<time>2021-05-26T12:50:30.885Z</time>
</trkpt>
<trkpt lat="31.7891000" lon="35.0816000">
<ele>579.610046</ele>
<time>2021-05-26T12:50:30.885Z</time>
</trkpt>
<trkpt lat="31.7895600" lon="35.0816000">
<ele>582.080017</ele>
<time>2021-05-26T12:50:30.885Z</time>
</trkpt>
<trkpt lat="31.7898200" lon="35.0816200">
<ele>583.070007</ele>
<time>2021-05-26T12:50:30.885Z</time>
</trkpt>
<trkpt lat="31.7899400" lon="35.0816400">
<ele>584.090027</ele>
<time>2021-05-26T12:50:30.885Z</time>
</trkpt>
<trkpt lat="31.7900500" lon="35.0817100">
<ele>585.210022</ele>
<time>2021-05-26T12:50:30.885Z</time>
</trkpt>
<trkpt lat="31.7906600" lon="35.0821400">
<ele>576.500000</ele>
<time>2021-05-26T12:50:30.885Z</time>
</trkpt>
<trkpt lat="31.7909300" lon="35.0823800">
<ele>569.030029</ele>
<time>2021-05-26T12:50:30.885Z</time>
</trkpt>
<trkpt lat="31.7920600" lon="35.0836600">
<ele>559.270020</ele>
<time>2021-05-26T12:50:30.885Z</time>
</trkpt>
<trkpt lat="31.7924300" lon="35.0840200">
<ele>552.649963</ele>
<time>2021-05-26T12:50:30.885Z</time>
</trkpt>
<trkpt lat="31.7925500" lon="35.0841300">
<ele>551.390015</ele>
<time>2021-05-26T12:50:30.885Z</time>
</trkpt>
<trkpt lat="31.7930000" lon="35.0845300">
<ele>546.859985</ele>
<time>2021-05-26T12:50:30.885Z</time>
</trkpt>
<trkpt lat="31.7931200" lon="35.0846600">
<ele>545.609985</ele>
<time>2021-05-26T12:50:30.885Z</time>
</trkpt>
<trkpt lat="31.7931800" lon="35.0848000">
<ele>545.400024</ele>
<time>2021-05-26T12:50:30.886Z</time>
</trkpt>
<trkpt lat="31.7932200" lon="35.0848500">
<ele>545.220032</ele>
<time>2021-05-26T12:50:30.886Z</time>
</trkpt>
<trkpt lat="31.7932800" lon="35.0850800">
<ele>544.530029</ele>
<time>2021-05-26T12:50:30.886Z</time>
</trkpt>
<trkpt lat="31.7935500" lon="35.0864400">
<ele>535.700012</ele>
<time>2021-05-26T12:50:30.886Z</time>
</trkpt>
<trkpt lat="31.7936400" lon="35.0874300">
<ele>530.059998</ele>
<time>2021-05-26T12:50:30.886Z</time>
</trkpt>
<trkpt lat="31.7936600" lon="35.0881700">
<ele>527.099976</ele>
<time>2021-05-26T12:50:30.886Z</time>
</trkpt>
<trkpt lat="31.7936900" lon="35.0882300">
<ele>526.770020</ele>
<time>2021-05-26T12:50:30.886Z</time>
</trkpt>
<trkpt lat="31.7937100" lon="35.0882800">
<ele>526.630005</ele>
<time>2021-05-26T12:50:30.886Z</time>
</trkpt>
<trkpt lat="31.7937400" lon="35.0882900">
<ele>526.470032</ele>
<time>2021-05-26T12:50:30.886Z</time>
</trkpt>
<trkpt lat="31.7937800" lon="35.0882900">
<ele>526.260010</ele>
<time>2021-05-26T12:50:30.886Z</time>
</trkpt>
<trkpt lat="31.7938300" lon="35.0882800">
<ele>525.950012</ele>
<time>2021-05-26T12:50:30.886Z</time>
</trkpt>
<trkpt lat="31.7939100" lon="35.0881200">
<ele>524.010010</ele>
<time>2021-05-26T12:50:30.886Z</time>
</trkpt>
<trkpt lat="31.7940900" lon="35.0871300">
<ele>520.429993</ele>
<time>2021-05-26T12:50:30.886Z</time>
</trkpt>
<trkpt lat="31.7942200" lon="35.0866800">
<ele>514.140015</ele>
<time>2021-05-26T12:50:30.886Z</time>
</trkpt>
<trkpt lat="31.7943300" lon="35.0863500">
<ele>509.990021</ele>
<time>2021-05-26T12:50:30.886Z</time>
</trkpt>
<trkpt lat="31.7944100" lon="35.0862200">
<ele>508.859985</ele>
<time>2021-05-26T12:50:30.886Z</time>
</trkpt>
<trkpt lat="31.7946000" lon="35.0860500">
<ele>509.559998</ele>
<time>2021-05-26T12:50:30.886Z</time>
</trkpt>
<trkpt lat="31.7946400" lon="35.0860700">
<ele>509.700012</ele>
<time>2021-05-26T12:50:30.886Z</time>
</trkpt>
<trkpt lat="31.7947000" lon="35.0860600">
<ele>509.919983</ele>
<time>2021-05-26T12:50:30.886Z</time>
</trkpt>
<trkpt lat="31.7947900" lon="35.0860500">
<ele>511.110016</ele>
<time>2021-05-26T12:50:30.886Z</time>
</trkpt>
<trkpt lat="31.7948600" lon="35.0860600">
<ele>512.299988</ele>
<time>2021-05-26T12:50:30.886Z</time>
</trkpt>
<trkpt lat="31.7949100" lon="35.0859000">
<ele>512.350037</ele>
<time>2021-05-26T12:50:30.886Z</time>
</trkpt>
<trkpt lat="31.7950900" lon="35.0853900">
<ele>508.930023</ele>
<time>2021-05-26T12:50:30.886Z</time>
</trkpt>
<trkpt lat="31.7951300" lon="35.0852500">
<ele>507.940002</ele>
<time>2021-05-26T12:50:30.886Z</time>
</trkpt>
<trkpt lat="31.7952000" lon="35.0851000">
<ele>508.100006</ele>
<time>2021-05-26T12:50:30.886Z</time>
</trkpt>
<trkpt lat="31.7952700" lon="35.0849700">
<ele>508.700012</ele>
<time>2021-05-26T12:50:30.886Z</time>
</trkpt>
<trkpt lat="31.7954200" lon="35.0847500">
<ele>510.730011</ele>
<time>2021-05-26T12:50:30.887Z</time>
</trkpt>
<trkpt lat="31.7958000" lon="35.0843500">
<ele>517.900024</ele>
<time>2021-05-26T12:50:30.887Z</time>
</trkpt>
<trkpt lat="31.7958900" lon="35.0842200">
<ele>518.919983</ele>
<time>2021-05-26T12:50:30.887Z</time>
</trkpt>
<trkpt lat="31.7959700" lon="35.0840600">
<ele>519.659973</ele>
<time>2021-05-26T12:50:30.887Z</time>
</trkpt>
<trkpt lat="31.7959900" lon="35.0839500">
<ele>520.130005</ele>
<time>2021-05-26T12:50:30.887Z</time>
</trkpt>
<trkpt lat="31.7960700" lon="35.0832600">
<ele>517.809998</ele>
<time>2021-05-26T12:50:30.887Z</time>
</trkpt>
<trkpt lat="31.7960700" lon="35.0832200">
<ele>517.790039</ele>
<time>2021-05-26T12:50:30.887Z</time>
</trkpt>
<trkpt lat="31.7960800" lon="35.0829700">
<ele>518.320007</ele>
<time>2021-05-26T12:50:30.887Z</time>
</trkpt>
<trkpt lat="31.7960900" lon="35.0827400">
<ele>520.250000</ele>
<time>2021-05-26T12:50:30.887Z</time>
</trkpt>
<trkpt lat="31.7961000" lon="35.0824200">
<ele>525.020020</ele>
<time>2021-05-26T12:50:30.887Z</time>
</trkpt>
<trkpt lat="31.7961100" lon="35.0821400">
<ele>528.570007</ele>
<time>2021-05-26T12:50:30.887Z</time>
</trkpt>
<trkpt lat="31.7963300" lon="35.0811800">
<ele>526.659973</ele>
<time>2021-05-26T12:50:30.887Z</time>
</trkpt>
<trkpt lat="31.7963900" lon="35.0810400">
<ele>528.029968</ele>
<time>2021-05-26T12:50:30.887Z</time>
</trkpt>
<trkpt lat="31.7965500" lon="35.0807500">
<ele>532.380005</ele>
<time>2021-05-26T12:50:30.887Z</time>
</trkpt>
<trkpt lat="31.7965700" lon="35.0806300">
<ele>534.109985</ele>
<time>2021-05-26T12:50:30.887Z</time>
</trkpt>
<trkpt lat="31.7965800" lon="35.0805000">
<ele>535.989990</ele>
<time>2021-05-26T12:50:30.887Z</time>
</trkpt>
<trkpt lat="31.7965700" lon="35.0802100">
<ele>540.480042</ele>
<time>2021-05-26T12:50:30.887Z</time>
</trkpt>
<trkpt lat="31.7965700" lon="35.0796900">
<ele>550.059998</ele>
<time>2021-05-26T12:50:30.887Z</time>
</trkpt>
<trkpt lat="31.7965600" lon="35.0795100">
<ele>552.549988</ele>
<time>2021-05-26T12:50:30.887Z</time>
</trkpt>
<trkpt lat="31.7964500" lon="35.0787800">
<ele>554.789978</ele>
<time>2021-05-26T12:50:30.887Z</time>
</trkpt>
<trkpt lat="31.7963600" lon="35.0786400">
<ele>554.760010</ele>
<time>2021-05-26T12:50:30.887Z</time>
</trkpt>
<trkpt lat="31.7962700" lon="35.0785600">
<ele>556.049988</ele>
<time>2021-05-26T12:50:30.887Z</time>
</trkpt>
<trkpt lat="31.7958400" lon="35.0782400">
<ele>562.320007</ele>
<time>2021-05-26T12:50:30.887Z</time>
</trkpt>
<trkpt lat="31.7957500" lon="35.0781900">
<ele>562.760010</ele>
<time>2021-05-26T12:50:30.887Z</time>
</trkpt>
<trkpt lat="31.7956600" lon="35.0781600">
<ele>562.869995</ele>
<time>2021-05-26T12:50:30.887Z</time>
</trkpt>
<trkpt lat="31.7951700" lon="35.0779900">
<ele>561.469971</ele>
<time>2021-05-26T12:50:30.887Z</time>
</trkpt>
<trkpt lat="31.7945900" lon="35.0778800">
<ele>556.029968</ele>
<time>2021-05-26T12:50:30.887Z</time>
</trkpt>
<trkpt lat="31.7945200" lon="35.0778500">
<ele>556.049988</ele>
<time>2021-05-26T12:50:30.887Z</time>
</trkpt>
<trkpt lat="31.7943900" lon="35.0778000">
<ele>555.750000</ele>
<time>2021-05-26T12:50:30.887Z</time>
</trkpt>
<trkpt lat="31.7940700" lon="35.0777400">
<ele>552.820007</ele>
<time>2021-05-26T12:50:30.887Z</time>
</trkpt>
<trkpt lat="31.7938700" lon="35.0777100">
<ele>551.440002</ele>
<time>2021-05-26T12:50:30.887Z</time>
</trkpt>
<trkpt lat="31.7936500" lon="35.0777000">
<ele>548.520020</ele>
<time>2021-05-26T12:50:30.888Z</time>
</trkpt>
<trkpt lat="31.7934200" lon="35.0776800">
<ele>548.019958</ele>
<time>2021-05-26T12:50:30.888Z</time>
</trkpt>
<trkpt lat="31.7932200" lon="35.0775900">
<ele>550.660034</ele>
<time>2021-05-26T12:50:30.888Z</time>
</trkpt>
<trkpt lat="31.7928900" lon="35.0773400">
<ele>555.059998</ele>
<time>2021-05-26T12:50:30.888Z</time>
</trkpt>
<trkpt lat="31.7927800" lon="35.0772100">
<ele>556.000000</ele>
<time>2021-05-26T12:50:30.888Z</time>
</trkpt>
<trkpt lat="31.7927200" lon="35.0770400">
<ele>554.690002</ele>
<time>2021-05-26T12:50:30.888Z</time>
</trkpt>
<trkpt lat="31.7927000" lon="35.0769200">
<ele>553.799988</ele>
<time>2021-05-26T12:50:30.888Z</time>
</trkpt>
<trkpt lat="31.7927000" lon="35.0767800">
<ele>552.429993</ele>
<time>2021-05-26T12:50:30.888Z</time>
</trkpt>
<trkpt lat="31.7926900" lon="35.0766000">
<ele>550.309998</ele>
<time>2021-05-26T12:50:30.888Z</time>
</trkpt>
<trkpt lat="31.7927100" lon="35.0764600">
<ele>549.119995</ele>
<time>2021-05-26T12:50:30.888Z</time>
</trkpt>
<trkpt lat="31.7929700" lon="35.0757200">
<ele>543.139954</ele>
<time>2021-05-26T12:50:30.888Z</time>
</trkpt>
<trkpt lat="31.7931100" lon="35.0753000">
<ele>546.020020</ele>
<time>2021-05-26T12:50:30.888Z</time>
</trkpt>
<trkpt lat="31.7931100" lon="35.0751900">
<ele>547.540039</ele>
<time>2021-05-26T12:50:30.888Z</time>
</trkpt>
<trkpt lat="31.7931100" lon="35.0751100">
<ele>548.979980</ele>
<time>2021-05-26T12:50:30.888Z</time>
</trkpt>
<trkpt lat="31.7930700" lon="35.0749800">
<ele>549.960022</ele>
<time>2021-05-26T12:50:30.888Z</time>
</trkpt>
<trkpt lat="31.7930100" lon="35.0749000">
<ele>549.399963</ele>
<time>2021-05-26T12:50:30.888Z</time>
</trkpt>
<trkpt lat="31.7929300" lon="35.0747900">
<ele>548.330017</ele>
<time>2021-05-26T12:50:30.888Z</time>
</trkpt>
<trkpt lat="31.7926600" lon="35.0743400">
<ele>545.570007</ele>
<time>2021-05-26T12:50:30.888Z</time>
</trkpt>
<trkpt lat="31.7923300" lon="35.0738700">
<ele>542.630005</ele>
<time>2021-05-26T12:50:30.888Z</time>
</trkpt>
<trkpt lat="31.7922300" lon="35.0737600">
<ele>540.659973</ele>
<time>2021-05-26T12:50:30.888Z</time>
</trkpt>
<trkpt lat="31.7917400" lon="35.0733100">
<ele>543.340027</ele>
<time>2021-05-26T12:50:30.888Z</time>
</trkpt>
<trkpt lat="31.7915600" lon="35.0731100">
<ele>544.970032</ele>
<time>2021-05-26T12:50:30.888Z</time>
</trkpt>
<trkpt lat="31.7914900" lon="35.0730100">
<ele>545.279968</ele>
<time>2021-05-26T12:50:30.888Z</time>
</trkpt>
<trkpt lat="31.7910700" lon="35.0722800">
<ele>545.900024</ele>
<time>2021-05-26T12:50:30.888Z</time>
</trkpt>
<trkpt lat="31.7905600" lon="35.0714800">
<ele>549.130005</ele>
<time>2021-05-26T12:50:30.888Z</time>
</trkpt>
<trkpt lat="31.7905100" lon="35.0713200">
<ele>548.200012</ele>
<time>2021-05-26T12:50:30.888Z</time>
</trkpt>
<trkpt lat="31.7905100" lon="35.0712300">
<ele>548.200012</ele>
<time>2021-05-26T12:50:30.888Z</time>
</trkpt>
<trkpt lat="31.7905000" lon="35.0710400">
<ele>548.059998</ele>
<time>2021-05-26T12:50:30.888Z</time>
</trkpt>
<trkpt lat="31.7905100" lon="35.0704500">
<ele>550.030029</ele>
<time>2021-05-26T12:50:30.888Z</time>
</trkpt>
<trkpt lat="31.7905100" lon="35.0702400">
<ele>551.149963</ele>
<time>2021-05-26T12:50:30.888Z</time>
</trkpt>
<trkpt lat="31.7904800" lon="35.0699600">
<ele>552.970032</ele>
<time>2021-05-26T12:50:30.888Z</time>
</trkpt>
<trkpt lat="31.7904100" lon="35.0697200">
<ele>554.330017</ele>
<time>2021-05-26T12:50:30.888Z</time>
</trkpt>
<trkpt lat="31.7903500" lon="35.0695800">
<ele>554.669983</ele>
<time>2021-05-26T12:50:30.889Z</time>
</trkpt>
<trkpt lat="31.7901700" lon="35.0693600">
<ele>553.100037</ele>
<time>2021-05-26T12:50:30.889Z</time>
</trkpt>
<trkpt lat="31.7895400" lon="35.0687000">
<ele>563.720032</ele>
<time>2021-05-26T12:50:30.889Z</time>
</trkpt>
<trkpt lat="31.7892100" lon="35.0683100">
<ele>559.950012</ele>
<time>2021-05-26T12:50:30.889Z</time>
</trkpt>
<trkpt lat="31.7891500" lon="35.0681200">
<ele>558.609985</ele>
<time>2021-05-26T12:50:30.889Z</time>
</trkpt>
<trkpt lat="31.7891400" lon="35.0679900">
<ele>558.169983</ele>
<time>2021-05-26T12:50:30.889Z</time>
</trkpt>
<trkpt lat="31.7891400" lon="35.0679000">
<ele>557.809998</ele>
<time>2021-05-26T12:50:30.889Z</time>
</trkpt>
<trkpt lat="31.7891700" lon="35.0676800">
<ele>557.359985</ele>
<time>2021-05-26T12:50:30.889Z</time>
</trkpt>
<trkpt lat="31.7896000" lon="35.0668800">
<ele>561.479980</ele>
<time>2021-05-26T12:50:30.889Z</time>
</trkpt>
<trkpt lat="31.7898900" lon="35.0662600">
<ele>573.239990</ele>
<time>2021-05-26T12:50:30.889Z</time>
</trkpt>
<trkpt lat="31.7899600" lon="35.0660500">
<ele>576.230042</ele>
<time>2021-05-26T12:50:30.889Z</time>
</trkpt>
<trkpt lat="31.7899900" lon="35.0657800">
<ele>574.260010</ele>
<time>2021-05-26T12:50:30.889Z</time>
</trkpt>
<trkpt lat="31.7900200" lon="35.0654300">
<ele>574.869995</ele>
<time>2021-05-26T12:50:30.889Z</time>
</trkpt>
<trkpt lat="31.7900200" lon="35.0643400">
<ele>575.899963</ele>
<time>2021-05-26T12:50:30.889Z</time>
</trkpt>
<trkpt lat="31.7900700" lon="35.0639100">
<ele>574.649963</ele>
<time>2021-05-26T12:50:30.889Z</time>
</trkpt>
<trkpt lat="31.7901900" lon="35.0633700">
<ele>579.299988</ele>
<time>2021-05-26T12:50:30.889Z</time>
</trkpt>
<trkpt lat="31.7902100" lon="35.0631100">
<ele>581.709961</ele>
<time>2021-05-26T12:50:30.889Z</time>
</trkpt>
<trkpt lat="31.7902100" lon="35.0630200">
<ele>582.590027</ele>
<time>2021-05-26T12:50:30.889Z</time>
</trkpt>
<trkpt lat="31.7901700" lon="35.0626800">
<ele>586.630005</ele>
<time>2021-05-26T12:50:30.889Z</time>
</trkpt>
<trkpt lat="31.7900900" lon="35.0623800">
<ele>586.809998</ele>
<time>2021-05-26T12:50:30.889Z</time>
</trkpt>
<trkpt lat="31.7899700" lon="35.0619500">
<ele>583.899963</ele>
<time>2021-05-26T12:50:30.889Z</time>
</trkpt>
<trkpt lat="31.7899100" lon="35.0614700">
<ele>586.580017</ele>
<time>2021-05-26T12:50:30.889Z</time>
</trkpt>
<trkpt lat="31.7898800" lon="35.0610000">
<ele>588.270020</ele>
<time>2021-05-26T12:50:30.889Z</time>
</trkpt>
<trkpt lat="31.7898100" lon="35.0606300">
<ele>587.070007</ele>
<time>2021-05-26T12:50:30.889Z</time>
</trkpt>
<trkpt lat="31.7897600" lon="35.0604300">
<ele>586.830017</ele>
<time>2021-05-26T12:50:30.889Z</time>
</trkpt>
<trkpt lat="31.7896800" lon="35.0601700">
<ele>589.020020</ele>
<time>2021-05-26T12:50:30.889Z</time>
</trkpt>
<trkpt lat="31.7895300" lon="35.0599100">
<ele>590.950012</ele>
<time>2021-05-26T12:50:30.889Z</time>
</trkpt>
<trkpt lat="31.7893300" lon="35.0597000">
<ele>589.650024</ele>
<time>2021-05-26T12:50:30.889Z</time>
</trkpt>
<trkpt lat="31.7888300" lon="35.0592100">
<ele>588.250000</ele>
<time>2021-05-26T12:50:30.889Z</time>
</trkpt>
<trkpt lat="31.7887700" lon="35.0591300">
<ele>586.670044</ele>
<time>2021-05-26T12:50:30.889Z</time>
</trkpt>
<trkpt lat="31.7886100" lon="35.0588200">
<ele>581.969971</ele>
<time>2021-05-26T12:50:30.889Z</time>
</trkpt>
<trkpt lat="31.7883200" lon="35.0580400">
<ele>581.790039</ele>
<time>2021-05-26T12:50:30.890Z</time>
</trkpt>
<trkpt lat="31.7882800" lon="35.0578300">
<ele>577.580017</ele>
<time>2021-05-26T12:50:30.890Z</time>
</trkpt>
<trkpt lat="31.7882100" lon="35.0570400">
<ele>573.390015</ele>
<time>2021-05-26T12:50:30.890Z</time>
</trkpt>
<trkpt lat="31.7881900" lon="35.0568100">
<ele>572.779968</ele>
<time>2021-05-26T12:50:30.890Z</time>
</trkpt>
<trkpt lat="31.7881900" lon="35.0566500">
<ele>572.079956</ele>
<time>2021-05-26T12:50:30.890Z</time>
</trkpt>
<trkpt lat="31.7881900" lon="35.0565600">
<ele>571.130005</ele>
<time>2021-05-26T12:50:30.890Z</time>
</trkpt>
<trkpt lat="31.7882000" lon="35.0564300">
<ele>570.179993</ele>
<time>2021-05-26T12:50:30.890Z</time>
</trkpt>
<trkpt lat="31.7883500" lon="35.0559400">
<ele>564.609985</ele>
<time>2021-05-26T12:50:30.890Z</time>
</trkpt>
<trkpt lat="31.7884100" lon="35.0555100">
<ele>558.960022</ele>
<time>2021-05-26T12:50:30.890Z</time>
</trkpt>
<trkpt lat="31.7884400" lon="35.0554400">
<ele>558.769958</ele>
<time>2021-05-26T12:50:30.890Z</time>
</trkpt>
<trkpt lat="31.7885600" lon="35.0552900">
<ele>558.609985</ele>
<time>2021-05-26T12:50:30.890Z</time>
</trkpt>
<trkpt lat="31.7887000" lon="35.0552400">
<ele>559.100037</ele>
<time>2021-05-26T12:50:30.890Z</time>
</trkpt>
<trkpt lat="31.7888200" lon="35.0552300">
<ele>559.820007</ele>
<time>2021-05-26T12:50:30.890Z</time>
</trkpt>
<trkpt lat="31.7889400" lon="35.0552300">
<ele>560.649963</ele>
<time>2021-05-26T12:50:30.890Z</time>
</trkpt>
<trkpt lat="31.7892000" lon="35.0552400">
<ele>562.729980</ele>
<time>2021-05-26T12:50:30.890Z</time>
</trkpt>
<trkpt lat="31.7896000" lon="35.0553200">
<ele>571.510010</ele>
<time>2021-05-26T12:50:30.890Z</time>
</trkpt>
<trkpt lat="31.7901200" lon="35.0553700">
<ele>578.900024</ele>
<time>2021-05-26T12:50:30.890Z</time>
</trkpt>
<trkpt lat="31.7902700" lon="35.0553800">
<ele>578.500000</ele>
<time>2021-05-26T12:50:30.890Z</time>
</trkpt>
<trkpt lat="31.7902900" lon="35.0552900">
<ele>577.440002</ele>
<time>2021-05-26T12:50:30.890Z</time>
</trkpt>
<trkpt lat="31.7902800" lon="35.0552300">
<ele>577.049988</ele>
<time>2021-05-26T12:50:30.890Z</time>
</trkpt>
<trkpt lat="31.7900100" lon="35.0548500">
<ele>577.750000</ele>
<time>2021-05-26T12:50:30.890Z</time>
</trkpt>
<trkpt lat="31.7896200" lon="35.0542600">
<ele>568.690002</ele>
<time>2021-05-26T12:50:30.890Z</time>
</trkpt>
<trkpt lat="31.7892800" lon="35.0536300">
<ele>559.940002</ele>
<time>2021-05-26T12:50:30.890Z</time>
</trkpt>
<trkpt lat="31.7892100" lon="35.0533300">
<ele>555.219971</ele>
<time>2021-05-26T12:50:30.890Z</time>
</trkpt>
<trkpt lat="31.7892200" lon="35.0530700">
<ele>553.640015</ele>
<time>2021-05-26T12:50:30.890Z</time>
</trkpt>
<trkpt lat="31.7892200" lon="35.0530000">
<ele>553.309998</ele>
<time>2021-05-26T12:50:30.890Z</time>
</trkpt>
<trkpt lat="31.7892800" lon="35.0528100">
<ele>553.100037</ele>
<time>2021-05-26T12:50:30.890Z</time>
</trkpt>
<trkpt lat="31.7893500" lon="35.0527300">
<ele>552.399963</ele>
<time>2021-05-26T12:50:30.890Z</time>
</trkpt>
<trkpt lat="31.7894800" lon="35.0526400">
<ele>551.330017</ele>
<time>2021-05-26T12:50:30.890Z</time>
</trkpt>
<trkpt lat="31.7896800" lon="35.0525400">
<ele>548.149963</ele>
<time>2021-05-26T12:50:30.890Z</time>
</trkpt>
<trkpt lat="31.7897400" lon="35.0525300">
<ele>547.580017</ele>
<time>2021-05-26T12:50:30.890Z</time>
</trkpt>
<trkpt lat="31.7901300" lon="35.0523700">
<ele>544.130005</ele>
<time>2021-05-26T12:50:30.890Z</time>
</trkpt>
<trkpt lat="31.7901900" lon="35.0523600">
<ele>544.339966</ele>
<time>2021-05-26T12:50:30.891Z</time>
</trkpt>
<trkpt lat="31.7904000" lon="35.0522700">
<ele>547.130005</ele>
<time>2021-05-26T12:50:30.891Z</time>
</trkpt>
<trkpt lat="31.7905300" lon="35.0522000">
<ele>551.440002</ele>
<time>2021-05-26T12:50:30.891Z</time>
</trkpt>
<trkpt lat="31.7905900" lon="35.0520800">
<ele>555.089966</ele>
<time>2021-05-26T12:50:30.891Z</time>
</trkpt>
<trkpt lat="31.7905600" lon="35.0519200">
<ele>556.450012</ele>
<time>2021-05-26T12:50:30.891Z</time>
</trkpt>
<trkpt lat="31.7904600" lon="35.0516800">
<ele>559.070007</ele>
<time>2021-05-26T12:50:30.891Z</time>
</trkpt>
<trkpt lat="31.7902100" lon="35.0511200">
<ele>562.959961</ele>
<time>2021-05-26T12:50:30.892Z</time>
</trkpt>
<trkpt lat="31.7901600" lon="35.0510300">
<ele>563.479980</ele>
<time>2021-05-26T12:50:30.892Z</time>
</trkpt>
<trkpt lat="31.7900200" lon="35.0509300">
<ele>562.090027</ele>
<time>2021-05-26T12:50:30.892Z</time>
</trkpt>
<trkpt lat="31.7895000" lon="35.0507700">
<ele>560.000000</ele>
<time>2021-05-26T12:50:30.892Z</time>
</trkpt>
<trkpt lat="31.7893000" lon="35.0506700">
<ele>557.220032</ele>
<time>2021-05-26T12:50:30.892Z</time>
</trkpt>
<trkpt lat="31.7890900" lon="35.0504300">
<ele>551.910034</ele>
<time>2021-05-26T12:50:30.892Z</time>
</trkpt>
<trkpt lat="31.7890400" lon="35.0502900">
<ele>549.049988</ele>
<time>2021-05-26T12:50:30.892Z</time>
</trkpt>
<trkpt lat="31.7889900" lon="35.0499200">
<ele>546.520020</ele>
<time>2021-05-26T12:50:30.892Z</time>
</trkpt>
<trkpt lat="31.7890000" lon="35.0496300">
<ele>545.669983</ele>
<time>2021-05-26T12:50:30.892Z</time>
</trkpt>
<trkpt lat="31.7890600" lon="35.0492300">
<ele>544.380005</ele>
<time>2021-05-26T12:50:30.892Z</time>
</trkpt>
<trkpt lat="31.7893700" lon="35.0484200">
<ele>544.219971</ele>
<time>2021-05-26T12:50:30.892Z</time>
</trkpt>
<trkpt lat="31.7894700" lon="35.0481700">
<ele>547.079956</ele>
<time>2021-05-26T12:50:30.892Z</time>
</trkpt>
<trkpt lat="31.7894900" lon="35.0480100">
<ele>548.890015</ele>
<time>2021-05-26T12:50:30.892Z</time>
</trkpt>
<trkpt lat="31.7894900" lon="35.0478000">
<ele>550.780029</ele>
<time>2021-05-26T12:50:30.892Z</time>
</trkpt>
<trkpt lat="31.7894600" lon="35.0476100">
<ele>553.289978</ele>
<time>2021-05-26T12:50:30.892Z</time>
</trkpt>
<trkpt lat="31.7893400" lon="35.0474100">
<ele>555.410034</ele>
<time>2021-05-26T12:50:30.892Z</time>
</trkpt>
<trkpt lat="31.7889200" lon="35.0469600">
<ele>564.390015</ele>
<time>2021-05-26T12:50:30.892Z</time>
</trkpt>
<trkpt lat="31.7884700" lon="35.0465500">
<ele>552.869995</ele>
<time>2021-05-26T12:50:30.892Z</time>
</trkpt>
<trkpt lat="31.7884500" lon="35.0465000">
<ele>551.750000</ele>
<time>2021-05-26T12:50:30.892Z</time>
</trkpt>
<trkpt lat="31.7884400" lon="35.0464300">
<ele>550.809998</ele>
<time>2021-05-26T12:50:30.892Z</time>
</trkpt>
<trkpt lat="31.7884500" lon="35.0463600">
<ele>550.530029</ele>
<time>2021-05-26T12:50:30.892Z</time>
</trkpt>
<trkpt lat="31.7884500" lon="35.0462300">
<ele>549.399963</ele>
<time>2021-05-26T12:50:30.892Z</time>
</trkpt>
<trkpt lat="31.7885100" lon="35.0459800">
<ele>545.760010</ele>
<time>2021-05-26T12:50:30.892Z</time>
</trkpt>
<trkpt lat="31.7885800" lon="35.0458300">
<ele>541.590027</ele>
<time>2021-05-26T12:50:30.892Z</time>
</trkpt>
<trkpt lat="31.7886600" lon="35.0457200">
<ele>540.080017</ele>
<time>2021-05-26T12:50:30.892Z</time>
</trkpt>
<trkpt lat="31.7890800" lon="35.0452300">
<ele>541.419983</ele>
<time>2021-05-26T12:50:30.892Z</time>
</trkpt>
<trkpt lat="31.7891800" lon="35.0450600">
<ele>542.960022</ele>
<time>2021-05-26T12:50:30.892Z</time>
</trkpt>
<trkpt lat="31.7892400" lon="35.0449400">
<ele>544.690002</ele>
<time>2021-05-26T12:50:30.892Z</time>
</trkpt>
<trkpt lat="31.7893000" lon="35.0447500">
<ele>546.380005</ele>
<time>2021-05-26T12:50:30.892Z</time>
</trkpt>
<trkpt lat="31.7893600" lon="35.0444700">
<ele>547.119995</ele>
<time>2021-05-26T12:50:30.892Z</time>
</trkpt>
<trkpt lat="31.7893600" lon="35.0444700">
<ele>547.119995</ele>
<time>2021-05-26T12:50:30.892Z</time>
</trkpt>
<trkpt lat="31.7893600" lon="35.0444700">
<ele>547.119995</ele>
<time>2021-05-26T12:50:30.893Z</time>
</trkpt>
<trkpt lat="31.7893800" lon="35.0443600">
<ele>546.979980</ele>
<time>2021-05-26T12:50:30.893Z</time>
</trkpt>
<trkpt lat="31.7895000" lon="35.0439500">
<ele>547.840027</ele>
<time>2021-05-26T12:50:30.893Z</time>
</trkpt>
<trkpt lat="31.7896400" lon="35.0435600">
<ele>549.980042</ele>
<time>2021-05-26T12:50:30.893Z</time>
</trkpt>
<trkpt lat="31.7896600" lon="35.0437400">
<ele>550.219971</ele>
<time>2021-05-26T12:50:30.893Z</time>
</trkpt>
<trkpt lat="31.7897100" lon="35.0438000">
<ele>550.840027</ele>
<time>2021-05-26T12:50:30.893Z</time>
</trkpt>
<trkpt lat="31.7897500" lon="35.0439700">
<ele>551.260010</ele>
<time>2021-05-26T12:50:30.893Z</time>
</trkpt>
<trkpt lat="31.7898000" lon="35.0440200">
<ele>551.340027</ele>
<time>2021-05-26T12:50:30.893Z</time>
</trkpt>
<trkpt lat="31.7898700" lon="35.0440600">
<ele>551.289978</ele>
<time>2021-05-26T12:50:30.893Z</time>
</trkpt>
<trkpt lat="31.7899700" lon="35.0440200">
<ele>551.049988</ele>
<time>2021-05-26T12:50:30.893Z</time>
</trkpt>
<trkpt lat="31.7901500" lon="35.0440000">
<ele>552.510010</ele>
<time>2021-05-26T12:50:30.893Z</time>
</trkpt>
<trkpt lat="31.7902300" lon="35.0439500">
<ele>553.020020</ele>
<time>2021-05-26T12:50:30.893Z</time>
</trkpt>
<trkpt lat="31.7903300" lon="35.0438900">
<ele>553.570007</ele>
<time>2021-05-26T12:50:30.893Z</time>
</trkpt>
<trkpt lat="31.7904700" lon="35.0438600">
<ele>555.290039</ele>
<time>2021-05-26T12:50:30.893Z</time>
</trkpt>
<trkpt lat="31.7910700" lon="35.0444300">
<ele>569.080017</ele>
<time>2021-05-26T12:50:30.893Z</time>
</trkpt>
<trkpt lat="31.7911700" lon="35.0444900">
<ele>571.210022</ele>
<time>2021-05-26T12:50:30.893Z</time>
</trkpt>
<trkpt lat="31.7914800" lon="35.0445800">
<ele>576.979980</ele>
<time>2021-05-26T12:50:30.893Z</time>
</trkpt>
<trkpt lat="31.7915600" lon="35.0446600">
<ele>577.210022</ele>
<time>2021-05-26T12:50:30.893Z</time>
</trkpt>
<trkpt lat="31.7916700" lon="35.0448900">
<ele>576.419983</ele>
<time>2021-05-26T12:50:30.893Z</time>
</trkpt>
<trkpt lat="31.7917700" lon="35.0450100">
<ele>576.690002</ele>
<time>2021-05-26T12:50:30.893Z</time>
</trkpt>
<trkpt lat="31.7918500" lon="35.0450500">
<ele>577.080017</ele>
<time>2021-05-26T12:50:30.893Z</time>
</trkpt>
<trkpt lat="31.7922300" lon="35.0449600">
<ele>579.979980</ele>
<time>2021-05-26T12:50:30.893Z</time>
</trkpt>
<trkpt lat="31.7922900" lon="35.0450000">
<ele>579.760010</ele>
<time>2021-05-26T12:50:30.893Z</time>
</trkpt>
<trkpt lat="31.7923500" lon="35.0450600">
<ele>579.460022</ele>
<time>2021-05-26T12:50:30.893Z</time>
</trkpt>
<trkpt lat="31.7923800" lon="35.0451500">
<ele>579.049988</ele>
<time>2021-05-26T12:50:30.893Z</time>
</trkpt>
<trkpt lat="31.7924100" lon="35.0456900">
<ele>578.630005</ele>
<time>2021-05-26T12:50:30.893Z</time>
</trkpt>
<trkpt lat="31.7924600" lon="35.0458100">
<ele>579.000000</ele>
<time>2021-05-26T12:50:30.893Z</time>
</trkpt>
<trkpt lat="31.7925000" lon="35.0458600">
<ele>579.289978</ele>
<time>2021-05-26T12:50:30.893Z</time>
</trkpt>
<trkpt lat="31.7925600" lon="35.0459100">
<ele>578.840027</ele>
<time>2021-05-26T12:50:30.893Z</time>
</trkpt>
<trkpt lat="31.7927500" lon="35.0459800">
<ele>576.029968</ele>
<time>2021-05-26T12:50:30.893Z</time>
</trkpt>
<trkpt lat="31.7931200" lon="35.0461400">
<ele>571.570007</ele>
<time>2021-05-26T12:50:30.893Z</time>
</trkpt>
<trkpt lat="31.7932600" lon="35.0461900">
<ele>572.799988</ele>
<time>2021-05-26T12:50:30.893Z</time>
</trkpt>
<trkpt lat="31.7931800" lon="35.0460200">
<ele>571.010010</ele>
<time>2021-05-26T12:50:30.893Z</time>
</trkpt>
<trkpt lat="31.7930300" lon="35.0457900">
<ele>571.340027</ele>
<time>2021-05-26T12:50:30.893Z</time>
</trkpt>
<trkpt lat="31.7929800" lon="35.0456700">
<ele>571.770020</ele>
<time>2021-05-26T12:50:30.893Z</time>
</trkpt>
<trkpt lat="31.7929600" lon="35.0454600">
<ele>570.549988</ele>
<time>2021-05-26T12:50:30.893Z</time>
</trkpt>
<trkpt lat="31.7930000" lon="35.0453000">
<ele>568.090027</ele>
<time>2021-05-26T12:50:30.893Z</time>
</trkpt>
<trkpt lat="31.7930300" lon="35.0452700">
<ele>567.400024</ele>
<time>2021-05-26T12:50:30.893Z</time>
</trkpt>
<trkpt lat="31.7930300" lon="35.0452700">
<ele>567.400024</ele>
<time>2021-05-26T12:50:30.894Z</time>
</trkpt>
<trkpt lat="31.7930300" lon="35.0452700">
<ele>567.400024</ele>
<time>2021-05-26T12:50:30.894Z</time>
</trkpt>
<trkpt lat="31.7930800" lon="35.0452200">
<ele>566.210022</ele>
<time>2021-05-26T12:50:30.894Z</time>
</trkpt>
<trkpt lat="31.7931200" lon="35.0452200">
<ele>564.570007</ele>
<time>2021-05-26T12:50:30.894Z</time>
</trkpt>
<trkpt lat="31.7934800" lon="35.0452200">
<ele>552.859985</ele>
<time>2021-05-26T12:50:30.894Z</time>
</trkpt>
<trkpt lat="31.7936500" lon="35.0452600">
<ele>548.799988</ele>
<time>2021-05-26T12:50:30.894Z</time>
</trkpt>
<trkpt lat="31.7937600" lon="35.0452500">
<ele>545.279968</ele>
<time>2021-05-26T12:50:30.894Z</time>
</trkpt>
<trkpt lat="31.7938400" lon="35.0452200">
<ele>542.790039</ele>
<time>2021-05-26T12:50:30.894Z</time>
</trkpt>
<trkpt lat="31.7941300" lon="35.0451000">
<ele>539.660034</ele>
<time>2021-05-26T12:50:30.894Z</time>
</trkpt>
<trkpt lat="31.7942300" lon="35.0450800">
<ele>538.830017</ele>
<time>2021-05-26T12:50:30.894Z</time>
</trkpt>
<trkpt lat="31.7945600" lon="35.0449200">
<ele>536.010010</ele>
<time>2021-05-26T12:50:30.894Z</time>
</trkpt>
<trkpt lat="31.7947400" lon="35.0447800">
<ele>534.390015</ele>
<time>2021-05-26T12:50:30.894Z</time>
</trkpt>
<trkpt lat="31.7951400" lon="35.0443600">
<ele>527.700012</ele>
<time>2021-05-26T12:50:30.894Z</time>
</trkpt>
<trkpt lat="31.7952800" lon="35.0441700">
<ele>528.029968</ele>
<time>2021-05-26T12:50:30.894Z</time>
</trkpt>
<trkpt lat="31.7954200" lon="35.0438800">
<ele>522.540039</ele>
<time>2021-05-26T12:50:30.894Z</time>
</trkpt>
<trkpt lat="31.7954900" lon="35.0437800">
<ele>522.540039</ele>
<time>2021-05-26T12:50:30.894Z</time>
</trkpt>
<trkpt lat="31.7955700" lon="35.0437000">
<ele>521.640015</ele>
<time>2021-05-26T12:50:30.894Z</time>
</trkpt>
<trkpt lat="31.7958800" lon="35.0434100">
<ele>517.200012</ele>
<time>2021-05-26T12:50:30.894Z</time>
</trkpt>
<trkpt lat="31.7962400" lon="35.0430600">
<ele>513.940002</ele>
<time>2021-05-26T12:50:30.894Z</time>
</trkpt>
<trkpt lat="31.7963400" lon="35.0429300">
<ele>513.429993</ele>
<time>2021-05-26T12:50:30.894Z</time>
</trkpt>
<trkpt lat="31.7965200" lon="35.0426700">
<ele>512.900024</ele>
<time>2021-05-26T12:50:30.894Z</time>
</trkpt>
<trkpt lat="31.7966900" lon="35.0423500">
<ele>509.990021</ele>
<time>2021-05-26T12:50:30.894Z</time>
</trkpt>
<trkpt lat="31.7968400" lon="35.0420200">
<ele>506.559998</ele>
<time>2021-05-26T12:50:30.894Z</time>
</trkpt>
<trkpt lat="31.7969300" lon="35.0418300">
<ele>503.929993</ele>
<time>2021-05-26T12:50:30.894Z</time>
</trkpt>
<trkpt lat="31.7976300" lon="35.0409700">
<ele>501.119995</ele>
<time>2021-05-26T12:50:30.894Z</time>
</trkpt>
<trkpt lat="31.7979100" lon="35.0405300">
<ele>499.640015</ele>
<time>2021-05-26T12:50:30.894Z</time>
</trkpt>
<trkpt lat="31.7987300" lon="35.0393500">
<ele>487.500000</ele>
<time>2021-05-26T12:50:30.894Z</time>
</trkpt>
<trkpt lat="31.7989100" lon="35.0390400">
<ele>480.949982</ele>
<time>2021-05-26T12:50:30.894Z</time>
</trkpt>
<trkpt lat="31.7990800" lon="35.0388200">
<ele>479.690002</ele>
<time>2021-05-26T12:50:30.894Z</time>
</trkpt>
<trkpt lat="31.7991600" lon="35.0386800">
<ele>478.020020</ele>
<time>2021-05-26T12:50:30.895Z</time>
</trkpt>
<trkpt lat="31.7992400" lon="35.0384400">
<ele>479.269989</ele>
<time>2021-05-26T12:50:30.895Z</time>
</trkpt>
<trkpt lat="31.7994500" lon="35.0380000">
<ele>478.589996</ele>
<time>2021-05-26T12:50:30.895Z</time>
</trkpt>
<trkpt lat="31.7996500" lon="35.0375000">
<ele>476.480011</ele>
<time>2021-05-26T12:50:30.895Z</time>
</trkpt>
<trkpt lat="31.7998100" lon="35.0372200">
<ele>475.859985</ele>
<time>2021-05-26T12:50:30.895Z</time>
</trkpt>
<trkpt lat="31.8001500" lon="35.0366700">
<ele>471.750000</ele>
<time>2021-05-26T12:50:30.895Z</time>
</trkpt>
<trkpt lat="31.8004400" lon="35.0360900">
<ele>469.360016</ele>
<time>2021-05-26T12:50:30.895Z</time>
</trkpt>
<trkpt lat="31.8004800" lon="35.0359700">
<ele>471.200012</ele>
<time>2021-05-26T12:50:30.895Z</time>
</trkpt>
<trkpt lat="31.8004900" lon="35.0358400">
<ele>472.079987</ele>
<time>2021-05-26T12:50:30.895Z</time>
</trkpt>
<trkpt lat="31.8004500" lon="35.0355900">
<ele>472.079987</ele>
<time>2021-05-26T12:50:30.895Z</time>
</trkpt>
<trkpt lat="31.8004400" lon="35.0353400">
<ele>471.390015</ele>
<time>2021-05-26T12:50:30.895Z</time>
</trkpt>
<trkpt lat="31.8004000" lon="35.0351800">
<ele>470.179993</ele>
<time>2021-05-26T12:50:30.895Z</time>
</trkpt>
<trkpt lat="31.8003300" lon="35.0350900">
<ele>469.019989</ele>
<time>2021-05-26T12:50:30.895Z</time>
</trkpt>
<trkpt lat="31.8001600" lon="35.0350300">
<ele>470.579987</ele>
<time>2021-05-26T12:50:30.895Z</time>
</trkpt>
<trkpt lat="31.7999700" lon="35.0349000">
<ele>474.800018</ele>
<time>2021-05-26T12:50:30.895Z</time>
</trkpt>
<trkpt lat="31.7998100" lon="35.0347300">
<ele>477.269989</ele>
<time>2021-05-26T12:50:30.895Z</time>
</trkpt>
<trkpt lat="31.7994000" lon="35.0342600">
<ele>480.110016</ele>
<time>2021-05-26T12:50:30.895Z</time>
</trkpt>
<trkpt lat="31.7993200" lon="35.0341900">
<ele>480.410004</ele>
<time>2021-05-26T12:50:30.895Z</time>
</trkpt>
<trkpt lat="31.7991900" lon="35.0341000">
<ele>480.619995</ele>
<time>2021-05-26T12:50:30.895Z</time>
</trkpt>
<trkpt lat="31.7990600" lon="35.0339600">
<ele>480.350006</ele>
<time>2021-05-26T12:50:30.895Z</time>
</trkpt>
<trkpt lat="31.7989900" lon="35.0338100">
<ele>479.540009</ele>
<time>2021-05-26T12:50:30.895Z</time>
</trkpt>
<trkpt lat="31.7988600" lon="35.0333800">
<ele>478.069977</ele>
<time>2021-05-26T12:50:30.895Z</time>
</trkpt>
<trkpt lat="31.7988800" lon="35.0327800">
<ele>471.099976</ele>
<time>2021-05-26T12:50:30.895Z</time>
</trkpt>
<trkpt lat="31.7989300" lon="35.0326700">
<ele>470.799988</ele>
<time>2021-05-26T12:50:30.895Z</time>
</trkpt>
<trkpt lat="31.7989900" lon="35.0326300">
<ele>469.839996</ele>
<time>2021-05-26T12:50:30.895Z</time>
</trkpt>
<trkpt lat="31.7992400" lon="35.0326300">
<ele>465.269989</ele>
<time>2021-05-26T12:50:30.896Z</time>
</trkpt>
<trkpt lat="31.7993800" lon="35.0325700">
<ele>461.020020</ele>
<time>2021-05-26T12:50:30.896Z</time>
</trkpt>
<trkpt lat="31.7995500" lon="35.0324200">
<ele>455.750000</ele>
<time>2021-05-26T12:50:30.896Z</time>
</trkpt>
<trkpt lat="31.7996900" lon="35.0324400">
<ele>454.839996</ele>
<time>2021-05-26T12:50:30.896Z</time>
</trkpt>
<trkpt lat="31.7997500" lon="35.0324100">
<ele>453.989990</ele>
<time>2021-05-26T12:50:30.896Z</time>
</trkpt>
<trkpt lat="31.7998400" lon="35.0323300">
<ele>451.990021</ele>
<time>2021-05-26T12:50:30.896Z</time>
</trkpt>
<trkpt lat="31.7999600" lon="35.0321700">
<ele>447.670013</ele>
<time>2021-05-26T12:50:30.896Z</time>
</trkpt>
<trkpt lat="31.8001300" lon="35.0320200">
<ele>442.779999</ele>
<time>2021-05-26T12:50:30.896Z</time>
</trkpt>
<trkpt lat="31.8002300" lon="35.0319000">
<ele>441.120026</ele>
<time>2021-05-26T12:50:30.896Z</time>
</trkpt>
<trkpt lat="31.8003200" lon="35.0317200">
<ele>440.600006</ele>
<time>2021-05-26T12:50:30.896Z</time>
</trkpt>
<trkpt lat="31.8003700" lon="35.0315600">
<ele>439.159973</ele>
<time>2021-05-26T12:50:30.896Z</time>
</trkpt>
<trkpt lat="31.8004800" lon="35.0309400">
<ele>434.100006</ele>
<time>2021-05-26T12:50:30.896Z</time>
</trkpt>
<trkpt lat="31.8005800" lon="35.0305800">
<ele>431.250000</ele>
<time>2021-05-26T12:50:30.896Z</time>
</trkpt>
<trkpt lat="31.8006600" lon="35.0300800">
<ele>426.799988</ele>
<time>2021-05-26T12:50:30.896Z</time>
</trkpt>
<trkpt lat="31.8007200" lon="35.0298700">
<ele>424.320007</ele>
<time>2021-05-26T12:50:30.896Z</time>
</trkpt>
<trkpt lat="31.8008200" lon="35.0296500">
<ele>421.750000</ele>
<time>2021-05-26T12:50:30.896Z</time>
</trkpt>
<trkpt lat="31.8009800" lon="35.0293700">
<ele>420.190002</ele>
<time>2021-05-26T12:50:30.896Z</time>
</trkpt>
<trkpt lat="31.8017700" lon="35.0283300">
<ele>406.820007</ele>
<time>2021-05-26T12:50:30.896Z</time>
</trkpt>
<trkpt lat="31.8020200" lon="35.0279400">
<ele>399.770020</ele>
<time>2021-05-26T12:50:30.896Z</time>
</trkpt>
<trkpt lat="31.8021800" lon="35.0276900">
<ele>394.979980</ele>
<time>2021-05-26T12:50:30.896Z</time>
</trkpt>
<trkpt lat="31.8024000" lon="35.0274000">
<ele>396.440002</ele>
<time>2021-05-26T12:50:30.896Z</time>
</trkpt>
<trkpt lat="31.8024700" lon="35.0273200">
<ele>397.500031</ele>
<time>2021-05-26T12:50:30.896Z</time>
</trkpt>
<trkpt lat="31.8025400" lon="35.0272200">
<ele>397.399994</ele>
<time>2021-05-26T12:50:30.897Z</time>
</trkpt>
<trkpt lat="31.8026200" lon="35.0269800">
<ele>393.660004</ele>
<time>2021-05-26T12:50:30.897Z</time>
</trkpt>
<trkpt lat="31.8026800" lon="35.0266500">
<ele>387.189972</ele>
<time>2021-05-26T12:50:30.897Z</time>
</trkpt>
<trkpt lat="31.8027200" lon="35.0264900">
<ele>384.419983</ele>
<time>2021-05-26T12:50:30.897Z</time>
</trkpt>
<trkpt lat="31.8027800" lon="35.0263400">
<ele>381.260010</ele>
<time>2021-05-26T12:50:30.897Z</time>
</trkpt>
<trkpt lat="31.8029200" lon="35.0262000">
<ele>377.420013</ele>
<time>2021-05-26T12:50:30.897Z</time>
</trkpt>
<trkpt lat="31.8031700" lon="35.0260300">
<ele>376.650024</ele>
<time>2021-05-26T12:50:30.897Z</time>
</trkpt>
<trkpt lat="31.8033700" lon="35.0259000">
<ele>378.220001</ele>
<time>2021-05-26T12:50:30.897Z</time>
</trkpt>
<trkpt lat="31.8034200" lon="35.0258700">
<ele>377.790009</ele>
<time>2021-05-26T12:50:30.897Z</time>
</trkpt>
<trkpt lat="31.8038800" lon="35.0255400">
<ele>371.959991</ele>
<time>2021-05-26T12:50:30.897Z</time>
</trkpt>
<trkpt lat="31.8040700" lon="35.0254500">
<ele>371.080017</ele>
<time>2021-05-26T12:50:30.897Z</time>
</trkpt>
<trkpt lat="31.8042300" lon="35.0253500">
<ele>369.290009</ele>
<time>2021-05-26T12:50:30.897Z</time>
</trkpt>
<trkpt lat="31.8045100" lon="35.0250900">
<ele>363.129974</ele>
<time>2021-05-26T12:50:30.897Z</time>
</trkpt>
<trkpt lat="31.8046300" lon="35.0250000">
<ele>361.329987</ele>
<time>2021-05-26T12:50:30.897Z</time>
</trkpt>
<trkpt lat="31.8047300" lon="35.0249500">
<ele>360.009979</ele>
<time>2021-05-26T12:50:30.897Z</time>
</trkpt>
<trkpt lat="31.8048600" lon="35.0248900">
<ele>359.709991</ele>
<time>2021-05-26T12:50:30.897Z</time>
</trkpt>
<trkpt lat="31.8050800" lon="35.0247400">
<ele>357.269989</ele>
<time>2021-05-26T12:50:30.897Z</time>
</trkpt>
<trkpt lat="31.8052600" lon="35.0245700">
<ele>355.599976</ele>
<time>2021-05-26T12:50:30.897Z</time>
</trkpt>
<trkpt lat="31.8054000" lon="35.0244900">
<ele>353.539978</ele>
<time>2021-05-26T12:50:30.897Z</time>
</trkpt>
<trkpt lat="31.8056800" lon="35.0243000">
<ele>350.620026</ele>
<time>2021-05-26T12:50:30.897Z</time>
</trkpt>
<trkpt lat="31.8060800" lon="35.0241300">
<ele>344.039978</ele>
<time>2021-05-26T12:50:30.897Z</time>
</trkpt>
<trkpt lat="31.8061500" lon="35.0241200">
<ele>343.239990</ele>
<time>2021-05-26T12:50:30.897Z</time>
</trkpt>
<trkpt lat="31.8063600" lon="35.0240800">
<ele>341.550018</ele>
<time>2021-05-26T12:50:30.897Z</time>
</trkpt>
<trkpt lat="31.8064900" lon="35.0240300">
<ele>340.290009</ele>
<time>2021-05-26T12:50:30.897Z</time>
</trkpt>
<trkpt lat="31.8067700" lon="35.0237700">
<ele>337.099976</ele>
<time>2021-05-26T12:50:30.897Z</time>
</trkpt>
<trkpt lat="31.8070100" lon="35.0236300">
<ele>333.379974</ele>
<time>2021-05-26T12:50:30.897Z</time>
</trkpt>
<trkpt lat="31.8073300" lon="35.0234000">
<ele>326.010010</ele>
<time>2021-05-26T12:50:30.897Z</time>
</trkpt>
<trkpt lat="31.8075500" lon="35.0231800">
<ele>318.609985</ele>
<time>2021-05-26T12:50:30.897Z</time>
</trkpt>
<trkpt lat="31.8077100" lon="35.0229800">
<ele>315.000000</ele>
<time>2021-05-26T12:50:30.897Z</time>
</trkpt>
<trkpt lat="31.8080200" lon="35.0227300">
<ele>312.339996</ele>
<time>2021-05-26T12:50:30.897Z</time>
</trkpt>
<trkpt lat="31.8083500" lon="35.0224800">
<ele>312.080017</ele>
<time>2021-05-26T12:50:30.898Z</time>
</trkpt>
<trkpt lat="31.8087100" lon="35.0221400">
<ele>307.970001</ele>
<time>2021-05-26T12:50:30.898Z</time>
</trkpt>
<trkpt lat="31.8088000" lon="35.0220300">
<ele>307.190002</ele>
<time>2021-05-26T12:50:30.898Z</time>
</trkpt>
<trkpt lat="31.8089500" lon="35.0218300">
<ele>305.220001</ele>
<time>2021-05-26T12:50:30.898Z</time>
</trkpt>
<trkpt lat="31.8091100" lon="35.0215800">
<ele>302.820007</ele>
<time>2021-05-26T12:50:30.898Z</time>
</trkpt>
<trkpt lat="31.8092100" lon="35.0213700">
<ele>302.609985</ele>
<time>2021-05-26T12:50:30.898Z</time>
</trkpt>
<trkpt lat="31.8092500" lon="35.0211700">
<ele>302.959991</ele>
<time>2021-05-26T12:50:30.898Z</time>
</trkpt>
<trkpt lat="31.8093100" lon="35.0209900">
<ele>305.049988</ele>
<time>2021-05-26T12:50:30.898Z</time>
</trkpt>
<trkpt lat="31.8095200" lon="35.0201600">
<ele>308.550018</ele>
<time>2021-05-26T12:50:30.898Z</time>
</trkpt>
<trkpt lat="31.8095100" lon="35.0200100">
<ele>308.690002</ele>
<time>2021-05-26T12:50:30.898Z</time>
</trkpt>
<trkpt lat="31.8094200" lon="35.0199100">
<ele>306.320007</ele>
<time>2021-05-26T12:50:30.898Z</time>
</trkpt>
<trkpt lat="31.8090000" lon="35.0196700">
<ele>308.799988</ele>
<time>2021-05-26T12:50:30.898Z</time>
</trkpt>
<trkpt lat="31.8091900" lon="35.0191500">
<ele>304.350006</ele>
<time>2021-05-26T12:50:30.898Z</time>
</trkpt>
<trkpt lat="31.8093100" lon="35.0188200">
<ele>299.520020</ele>
<time>2021-05-26T12:50:30.898Z</time>
</trkpt>
<trkpt lat="31.8094800" lon="35.0182500">
<ele>292.010010</ele>
<time>2021-05-26T12:50:30.898Z</time>
</trkpt>
<trkpt lat="31.8095800" lon="35.0179700">
<ele>289.699982</ele>
<time>2021-05-26T12:50:30.898Z</time>
</trkpt>
<trkpt lat="31.8096400" lon="35.0177100">
<ele>288.350006</ele>
<time>2021-05-26T12:50:30.898Z</time>
</trkpt>
<trkpt lat="31.8097000" lon="35.0174500">
<ele>286.980011</ele>
<time>2021-05-26T12:50:30.898Z</time>
</trkpt>
<trkpt lat="31.8097200" lon="35.0173300">
<ele>286.399994</ele>
<time>2021-05-26T12:50:30.898Z</time>
</trkpt>
<trkpt lat="31.8098200" lon="35.0170700">
<ele>286.190002</ele>
<time>2021-05-26T12:50:30.898Z</time>
</trkpt>
<trkpt lat="31.8100100" lon="35.0165600">
<ele>284.130005</ele>
<time>2021-05-26T12:50:30.898Z</time>
</trkpt>
<trkpt lat="31.8101500" lon="35.0161200">
<ele>284.570007</ele>
<time>2021-05-26T12:50:30.898Z</time>
</trkpt>
<trkpt lat="31.8102800" lon="35.0157800">
<ele>283.200012</ele>
<time>2021-05-26T12:50:30.898Z</time>
</trkpt>
<trkpt lat="31.8103500" lon="35.0154900">
<ele>284.700012</ele>
<time>2021-05-26T12:50:30.898Z</time>
</trkpt>
<trkpt lat="31.8104700" lon="35.0151900">
<ele>285.110016</ele>
<time>2021-05-26T12:50:30.898Z</time>
</trkpt>
<trkpt lat="31.8105300" lon="35.0149400">
<ele>283.160004</ele>
<time>2021-05-26T12:50:30.898Z</time>
</trkpt>
<trkpt lat="31.8109800" lon="35.0141200">
<ele>276.490021</ele>
<time>2021-05-26T12:50:30.898Z</time>
</trkpt>
<trkpt lat="31.8112900" lon="35.0136100">
<ele>275.929993</ele>
<time>2021-05-26T12:50:30.898Z</time>
</trkpt>
<trkpt lat="31.8113000" lon="35.0135900">
<ele>276.010010</ele>
<time>2021-05-26T12:50:30.898Z</time>
</trkpt>
<trkpt lat="31.8112900" lon="35.0135900">
<ele>275.919983</ele>
<time>2021-05-26T12:50:30.899Z</time>
</trkpt>
</trkseg>
</trk>
</gpx>
